Time,TemperatureF,DewpointF,PressureIn,WindDirection,WindDirectionDegrees,WindSpeedMPH,WindSpeedGustMPH,Humidity,HourlyPrecipIn,Conditions,Clouds,dailyrainin,SoftwareType,DateUTC
2013-11-20 00:00:00,37.3,35.7,30.08,NNE,22,1.0,1.0,94,0.00,,OVC050,0.00,VWS V14.00,2013-11-20 08:00:00,
2013-11-20 00:01:00,37.3,35.7,30.08,NNE,22,1.0,3.0,94,0.00,,OVC095,0.00,VWS V14.00,2013-11-20 08:01:00,
2013-11-20 00:02:00,37.2,35.6,30.08,NNE,22,2.0,3.0,94,0.00,,OVC095,0.00,VWS V14.00,2013-11-20 08:02:00,
2013-11-20 00:03:00,37.2,35.6,30.08,NNE,22,2.0,2.0,94,0.00,,OVC095,0.00,VWS V14.00,2013-11-20 08:03:00,
2013-11-20 00:04:00,37.1,35.5,30.08,NNE,22,1.0,2.0,94,0.00,,OVC095,0.00,VWS V14.00,2013-11-20 08:04:00,
2013-11-20 00:05:00,37.1,35.5,30.08,NNE,22,0.0,0.0,94,0.00,,OVC050,0.00,VWS V14.00,2013-11-20 08:05:00,
2013-11-20 00:06:00,37.1,35.5,30.09,NNE,22,0.0,2.0,94,0.00,,OVC095,0.00,VWS V14.00,2013-11-20 08:06:00,
2013-11-20 00:07:00,37.1,35.5,30.09,NNE,22,0.0,1.0,94,0.00,,OVC095,0.00,VWS V14.00,2013-11-20 08:07:00,
2013-11-20 00:08:00,37.1,35.5,30.09,NNE,22,0.0,1.0,94,0.00,,OVC095,0.00,VWS V14.00,2013-11-20 08:08:00,
2013-11-20 00:09:00,37.1,35.5,30.09,NNE,22,0.0,2.0,94,0.00,,OVC095,0.00,VWS V14.00,2013-11-20 08:09:00,
2013-11-20 00:10:00,37.0,35.4,30.09,NNE,22,0.0,0.0,94,0.00,,OVC050,0.00,VWS V14.00,2013-11-20 08:10:00,
2013-11-20 00:11:00,37.0,35.4,30.09,NNE,22,0.0,1.0,94,0.00,,OVC095,0.00,VWS V14.00,2013-11-20 08:11:00,
2013-11-20 00:12:00,37.0,35.4,30.09,NNE,22,0.0,0.0,94,0.00,,OVC095,0.00,VWS V14.00,2013-11-20 08:12:00,
2013-11-20 00:13:00,37.0,35.2,30.09,NNE,22,0.0,0.0,93,0.00,,OVC095,0.00,VWS V14.00,2013-11-20 08:13:00,
2013-11-20 00:14:00,36.9,35.1,30.09,NNE,22,0.0,1.0,93,0.00,,OVC095,0.00,VWS V14.00,2013-11-20 08:14:00,
2013-11-20 00:15:00,36.9,35.1,30.09,NNE,22,0.0,0.0,93,0.00,,OVC050,0.00,VWS V14.00,2013-11-20 08:15:00,
2013-11-20 00:16:00,36.9,35.1,30.09,NNE,22,0.0,0.0,93,0.00,,OVC095,0.00,VWS V14.00,2013-11-20 08:16:00,
2013-11-20 00:17:00,36.8,35.0,30.09,NNE,22,0.0,0.0,93,0.00,,OVC095,0.00,VWS V14.00,2013-11-20 08:17:00,
2013-11-20 00:18:00,36.8,35.0,30.09,NNE,22,0.0,1.0,93,0.00,,OVC095,0.00,VWS V14.00,2013-11-20 08:18:00,
2013-11-20 00:19:00,36.7,34.9,30.09,NNE,22,1.0,2.0,93,0.00,,OVC095,0.00,VWS V14.00,2013-11-20 08:19:00,
2013-11-20 00:20:00,36.6,34.8,30.09,NNE,22,0.0,0.0,93,0.00,,OVC050,0.00,VWS V14.00,2013-11-20 08:20:00,
2013-11-20 00:21:00,36.6,34.8,30.09,NNE,22,0.0,1.0,93,0.00,,OVC095,0.00,VWS V14.00,2013-11-20 08:21:00,
2013-11-20 00:22:00,36.5,34.7,30.09,NNE,22,1.0,1.0,93,0.00,,OVC095,0.00,VWS V14.00,2013-11-20 08:22:00,
2013-11-20 00:23:00,36.4,34.6,30.09,NNE,22,0.0,1.0,93,0.00,,OVC095,0.00,VWS V14.00,2013-11-20 08:23:00,
2013-11-20 00:24:00,36.4,34.6,30.09,NNE,22,1.0,1.0,93,0.00,,OVC095,0.00,VWS V14.00,2013-11-20 08:24:00,
2013-11-20 00:25:00,36.2,34.4,30.09,NNE,22,0.0,1.0,93,0.00,,OVC050,0.00,VWS V14.00,2013-11-20 08:25:00,
2013-11-20 00:26:00,36.2,34.4,30.09,NNE,22,0.0,1.0,93,0.00,,OVC095,0.00,VWS V14.00,2013-11-20 08:26:00,
2013-11-20 00:27:00,36.2,34.4,30.09,NNE,22,0.0,1.0,93,0.00,,OVC095,0.00,VWS V14.00,2013-11-20 08:27:00,
2013-11-20 00:28:00,36.1,34.3,30.09,NNE,22,0.0,0.0,93,0.00,,OVC095,0.00,VWS V14.00,2013-11-20 08:28:00,
2013-11-20 00:29:00,36.1,34.3,30.09,NNE,22,0.0,0.0,93,0.00,,OVC095,0.00,VWS V14.00,2013-11-20 08:29:00,
2013-11-20 00:30:00,36.0,34.2,30.09,NNE,22,0.0,0.0,93,0.00,,OVC050,0.00,VWS V14.00,2013-11-20 08:30:00,
2013-11-20 00:31:00,36.0,34.2,30.09,NNE,22,0.0,0.0,93,0.00,,OVC095,0.00,VWS V14.00,2013-11-20 08:31:00,
2013-11-20 00:32:00,36.0,34.2,30.09,NNE,22,0.0,0.0,93,0.00,,OVC095,0.00,VWS V14.00,2013-11-20 08:32:00,
2013-11-20 00:33:00,35.9,34.1,30.09,NNE,22,0.0,0.0,93,0.00,,OVC095,0.00,VWS V14.00,2013-11-20 08:33:00,
2013-11-20 00:34:00,35.9,34.1,30.10,NNE,22,0.0,0.0,93,0.00,,OVC095,0.00,VWS V14.00,2013-11-20 08:34:00,
2013-11-20 00:35:00,35.9,34.1,30.10,NNE,22,0.0,0.0,93,0.00,,OVC050,0.00,VWS V14.00,2013-11-20 08:35:00,
2013-11-20 00:36:00,35.9,34.1,30.10,NNE,22,0.0,0.0,93,0.00,,OVC095,0.00,VWS V14.00,2013-11-20 08:36:00,
2013-11-20 00:37:00,35.8,34.0,30.10,NNE,22,0.0,0.0,93,0.00,,OVC095,0.00,VWS V14.00,2013-11-20 08:37:00,
2013-11-20 00:38:00,35.8,34.0,30.10,NNE,22,0.0,0.0,93,0.00,,OVC095,0.00,VWS V14.00,2013-11-20 08:38:00,
2013-11-20 00:39:00,35.7,33.9,30.10,NNE,22,0.0,0.0,93,0.00,,OVC095,0.00,VWS V14.00,2013-11-20 08:39:00,
2013-11-20 00:40:00,35.7,33.9,30.10,NNE,22,0.0,0.0,93,0.00,,OVC050,0.00,VWS V14.00,2013-11-20 08:40:00,
2013-11-20 00:41:00,35.7,33.9,30.10,NNE,22,0.0,1.0,93,0.00,,OVC095,0.00,VWS V14.00,2013-11-20 08:41:00,
2013-11-20 00:42:00,35.6,34.0,30.10,NNE,22,0.0,0.0,94,0.00,,OVC095,0.00,VWS V14.00,2013-11-20 08:42:00,
2013-11-20 00:43:00,35.6,34.0,30.10,NNE,22,0.0,0.0,94,0.00,,OVC095,0.00,VWS V14.00,2013-11-20 08:43:00,
2013-11-20 00:44:00,35.5,34.0,30.10,NNE,22,0.0,0.0,94,0.00,,OVC095,0.00,VWS V14.00,2013-11-20 08:44:00,
2013-11-20 00:45:00,35.5,34.0,30.10,NNE,22,1.0,1.0,94,0.00,,OVC050,0.00,VWS V14.00,2013-11-20 08:45:00,
2013-11-20 00:46:00,35.5,34.0,30.10,NNE,22,0.0,0.0,94,0.00,,OVC095,0.00,VWS V14.00,2013-11-20 08:46:00,
2013-11-20 00:47:00,35.5,34.0,30.10,NNE,22,0.0,1.0,94,0.00,,OVC095,0.00,VWS V14.00,2013-11-20 08:47:00,
2013-11-20 00:48:00,35.4,33.8,30.10,NNE,22,1.0,2.0,94,0.00,,OVC095,0.00,VWS V14.00,2013-11-20 08:48:00,
2013-11-20 00:49:00,35.3,33.8,30.10,NNE,22,1.0,2.0,94,0.00,,OVC095,0.00,VWS V14.00,2013-11-20 08:49:00,
2013-11-20 00:50:00,35.3,33.8,30.11,NNE,22,1.0,1.0,94,0.00,,OVC050,0.00,VWS V14.00,2013-11-20 08:50:00,
2013-11-20 00:51:00,35.3,33.8,30.11,NNE,22,0.0,1.0,94,0.00,,OVC095,0.00,VWS V14.00,2013-11-20 08:51:00,
2013-11-20 00:52:00,35.3,33.8,30.11,NNE,22,2.0,2.0,94,0.00,,OVC095,0.00,VWS V14.00,2013-11-20 08:52:00,
2013-11-20 00:53:00,35.2,33.7,30.11,NNE,22,1.0,2.0,94,0.00,,OVC095,0.00,VWS V14.00,2013-11-20 08:53:00,
2013-11-20 00:54:00,35.2,33.7,30.11,NNE,22,2.0,3.0,94,0.00,,OVC095,0.00,VWS V14.00,2013-11-20 08:54:00,
2013-11-20 00:55:00,35.1,33.5,30.11,NNE,22,1.0,1.0,94,0.00,,OVC050,0.00,VWS V14.00,2013-11-20 08:55:00,
2013-11-20 00:57:00,35.0,33.5,30.11,NNE,22,0.0,1.0,94,0.00,,OVC095,0.00,VWS V14.00,2013-11-20 08:57:00,
2013-11-20 00:58:00,35.0,33.5,30.11,NNE,22,0.0,1.0,94,0.00,,OVC095,0.00,VWS V14.00,2013-11-20 08:58:00,
2013-11-20 00:59:00,35.0,33.5,30.11,NNE,22,0.0,1.0,94,0.00,,OVC095,0.00,VWS V14.00,2013-11-20 08:59:00,
2013-11-20 01:00:00,34.9,33.3,30.11,NNE,22,0.0,0.0,94,0.00,,OVC050,0.00,VWS V14.00,2013-11-20 09:00:00,
2013-11-20 01:01:00,34.9,33.3,30.11,NNE,22,0.0,0.0,94,0.00,,OVC095,0.00,VWS V14.00,2013-11-20 09:01:00,
2013-11-20 01:02:00,34.9,33.3,30.11,NNE,22,0.0,0.0,94,0.00,,OVC095,0.00,VWS V14.00,2013-11-20 09:02:00,
2013-11-20 01:03:00,34.8,33.2,30.11,NNE,22,0.0,0.0,94,0.00,,OVC095,0.00,VWS V14.00,2013-11-20 09:03:00,
2013-11-20 01:04:00,34.8,33.2,30.11,NNE,22,2.0,2.0,94,0.00,,OVC095,0.00,VWS V14.00,2013-11-20 09:04:00,
2013-11-20 01:05:00,34.7,33.2,30.11,NNE,22,0.0,0.0,94,0.00,,OVC050,0.00,VWS V14.00,2013-11-20 09:05:00,
2013-11-20 01:06:00,34.7,33.2,30.12,NNE,22,0.0,0.0,94,0.00,,OVC095,0.00,VWS V14.00,2013-11-20 09:06:00,
2013-11-20 01:07:00,34.7,33.2,30.12,NNE,22,0.0,0.0,94,0.00,,OVC095,0.00,VWS V14.00,2013-11-20 09:07:00,
2013-11-20 01:08:00,34.6,33.0,30.12,NNE,22,1.0,2.0,94,0.00,,OVC095,0.00,VWS V14.00,2013-11-20 09:08:00,
2013-11-20 01:09:00,34.6,33.0,30.12,NNE,22,2.0,2.0,94,0.00,,OVC095,0.00,VWS V14.00,2013-11-20 09:09:00,
2013-11-20 01:10:00,34.6,33.0,30.12,NNE,22,3.0,3.0,94,0.00,,OVC050,0.00,VWS V14.00,2013-11-20 09:10:00,
2013-11-20 01:11:00,34.5,33.0,30.12,NNE,22,3.0,3.0,94,0.00,,OVC095,0.00,VWS V14.00,2013-11-20 09:11:00,
2013-11-20 01:12:00,34.5,33.0,30.12,NNE,22,3.0,3.0,94,0.00,,OVC095,0.00,VWS V14.00,2013-11-20 09:12:00,
2013-11-20 01:13:00,34.5,33.0,30.12,NNE,22,2.0,3.0,94,0.00,,OVC095,0.00,VWS V14.00,2013-11-20 09:13:00,
2013-11-20 01:14:00,34.5,33.0,30.12,NNE,22,3.0,3.0,94,0.00,,OVC095,0.00,VWS V14.00,2013-11-20 09:14:00,
2013-11-20 01:15:00,34.4,32.9,30.12,NNE,22,0.0,2.0,94,0.00,,OVC050,0.00,VWS V14.00,2013-11-20 09:15:00,
2013-11-20 01:16:00,34.4,32.9,30.12,NNE,22,0.0,2.0,94,0.00,,OVC095,0.00,VWS V14.00,2013-11-20 09:16:00,
2013-11-20 01:17:00,34.4,32.9,30.12,NNE,22,0.0,0.0,94,0.00,,OVC095,0.00,VWS V14.00,2013-11-20 09:17:00,
2013-11-20 01:18:00,34.4,32.9,30.12,NNE,22,0.0,1.0,94,0.00,,OVC095,0.00,VWS V14.00,2013-11-20 09:18:00,
2013-11-20 01:19:00,34.4,32.9,30.12,NNE,22,0.0,1.0,94,0.00,,OVC095,0.00,VWS V14.00,2013-11-20 09:19:00,
2013-11-20 01:20:00,34.3,32.8,30.12,NNE,22,3.0,3.0,94,0.00,,OVC050,0.00,VWS V14.00,2013-11-20 09:20:00,
2013-11-20 01:21:00,34.3,32.8,30.12,NNE,22,2.0,3.0,94,0.00,,OVC095,0.00,VWS V14.00,2013-11-20 09:21:00,
2013-11-20 01:22:00,34.3,32.8,30.12,NNE,22,3.0,3.0,94,0.00,,OVC095,0.00,VWS V14.00,2013-11-20 09:22:00,
2013-11-20 01:23:00,34.2,32.7,30.12,NNE,22,1.0,3.0,94,0.00,,OVC095,0.00,VWS V14.00,2013-11-20 09:23:00,
2013-11-20 01:24:00,34.2,32.7,30.12,NNE,22,2.0,3.0,94,0.00,,OVC095,0.00,VWS V14.00,2013-11-20 09:24:00,
2013-11-20 01:25:00,34.1,32.6,30.13,NNE,22,2.0,2.0,94,0.00,,OVC050,0.00,VWS V14.00,2013-11-20 09:25:00,
2013-11-20 01:26:00,34.1,32.6,30.12,NNE,22,1.0,2.0,94,0.00,,OVC095,0.00,VWS V14.00,2013-11-20 09:26:00,
2013-11-20 01:27:00,34.1,32.6,30.13,NNE,22,1.0,2.0,94,0.00,,OVC095,0.00,VWS V14.00,2013-11-20 09:27:00,
2013-11-20 01:28:00,34.1,32.6,30.12,NNE,22,0.0,1.0,94,0.00,,OVC095,0.00,VWS V14.00,2013-11-20 09:28:00,
2013-11-20 01:29:00,34.0,32.5,30.12,NNE,22,0.0,1.0,94,0.00,,OVC095,0.00,VWS V14.00,2013-11-20 09:29:00,
2013-11-20 01:30:00,33.9,32.4,30.13,NNE,22,1.0,2.0,94,0.00,,OVC050,0.00,VWS V14.00,2013-11-20 09:30:00,
2013-11-20 01:31:00,33.9,32.4,30.13,NNE,22,1.0,2.0,94,0.00,,OVC095,0.00,VWS V14.00,2013-11-20 09:31:00,
2013-11-20 01:32:00,33.9,32.4,30.13,NNE,22,2.0,2.0,94,0.00,,OVC095,0.00,VWS V14.00,2013-11-20 09:32:00,
2013-11-20 01:33:00,33.9,32.4,30.13,NNE,22,2.0,2.0,94,0.00,,OVC095,0.00,VWS V14.00,2013-11-20 09:33:00,
2013-11-20 01:34:00,33.8,32.3,30.13,NNE,22,2.0,2.0,94,0.00,,OVC095,0.00,VWS V14.00,2013-11-20 09:34:00,
2013-11-20 01:35:00,33.8,32.5,30.13,NNE,22,1.0,2.0,95,0.00,,OVC050,0.00,VWS V14.00,2013-11-20 09:35:00,
2013-11-20 01:36:00,33.7,32.4,30.13,NNE,22,1.0,2.0,95,0.00,,OVC095,0.00,VWS V14.00,2013-11-20 09:36:00,
2013-11-20 01:37:00,33.8,32.5,30.13,NNE,22,1.0,2.0,95,0.00,,OVC095,0.00,VWS V14.00,2013-11-20 09:37:00,
2013-11-20 01:38:00,33.7,32.4,30.13,NNE,22,0.0,2.0,95,0.00,,OVC095,0.00,VWS V14.00,2013-11-20 09:38:00,
2013-11-20 01:39:00,33.7,32.4,30.13,NNE,22,0.0,0.0,95,0.00,,OVC095,0.00,VWS V14.00,2013-11-20 09:39:00,
2013-11-20 01:40:00,33.6,32.3,30.13,NNE,22,0.0,0.0,95,0.00,,OVC050,0.00,VWS V14.00,2013-11-20 09:40:00,
2013-11-20 01:41:00,33.6,32.3,30.13,NNE,22,0.0,0.0,95,0.00,,OVC095,0.00,VWS V14.00,2013-11-20 09:41:00,
2013-11-20 01:42:00,33.5,32.2,30.13,NNE,22,0.0,0.0,95,0.00,,OVC095,0.00,VWS V14.00,2013-11-20 09:42:00,
2013-11-20 01:43:00,33.5,32.2,30.13,NNE,22,0.0,0.0,95,0.00,,OVC095,0.00,VWS V14.00,2013-11-20 09:43:00,
2013-11-20 01:44:00,33.4,31.9,30.13,NNE,22,1.0,2.0,94,0.00,,OVC095,0.00,VWS V14.00,2013-11-20 09:44:00,
2013-11-20 01:45:00,33.3,31.8,30.13,NNE,22,0.0,1.0,94,0.00,,FEW055,0.00,VWS V14.00,2013-11-20 09:45:00,
2013-11-20 01:46:00,33.3,31.8,30.13,NNE,22,0.0,1.0,94,0.00,,OVC095,0.00,VWS V14.00,2013-11-20 09:46:00,
2013-11-20 01:47:00,33.3,32.0,30.13,NNE,22,0.0,2.0,95,0.00,,OVC095,0.00,VWS V14.00,2013-11-20 09:47:00,
2013-11-20 01:48:00,33.2,31.9,30.13,NNE,22,0.0,0.0,95,0.00,,OVC095,0.00,VWS V14.00,2013-11-20 09:48:00,
2013-11-20 01:49:00,33.2,31.9,30.13,NNE,22,0.0,1.0,95,0.00,,OVC095,0.00,VWS V14.00,2013-11-20 09:49:00,
2013-11-20 01:50:00,33.1,31.8,30.13,NNE,22,2.0,2.0,95,0.00,,FEW055,0.00,VWS V14.00,2013-11-20 09:50:00,
2013-11-20 01:51:00,33.1,31.8,30.13,NNE,22,1.0,2.0,95,0.00,,OVC095,0.00,VWS V14.00,2013-11-20 09:51:00,
2013-11-20 01:52:00,33.0,31.7,30.13,NNE,22,1.0,1.0,95,0.00,,OVC095,0.00,VWS V14.00,2013-11-20 09:52:00,
2013-11-20 01:53:00,33.0,31.5,30.13,NNE,22,0.0,1.0,94,0.00,,OVC095,0.00,VWS V14.00,2013-11-20 09:53:00,
2013-11-20 01:54:00,33.0,31.7,30.13,NNE,22,0.0,0.0,95,0.00,,OVC095,0.00,VWS V14.00,2013-11-20 09:54:00,
2013-11-20 01:55:00,32.9,31.6,30.14,NNE,22,0.0,0.0,95,0.00,,FEW055,0.00,VWS V14.00,2013-11-20 09:55:00,
2013-11-20 01:56:00,32.9,31.6,30.14,NNE,22,0.0,0.0,95,0.00,,OVC095,0.00,VWS V14.00,2013-11-20 09:56:00,
2013-11-20 01:57:00,32.9,31.6,30.14,NNE,22,0.0,0.0,95,0.00,,OVC095,0.00,VWS V14.00,2013-11-20 09:57:00,
2013-11-20 01:58:00,32.9,31.6,30.14,NNE,22,0.0,0.0,95,0.00,,OVC095,0.00,VWS V14.00,2013-11-20 09:58:00,
2013-11-20 01:59:00,32.9,31.6,30.14,NNE,22,0.0,0.0,95,0.00,,OVC095,0.00,VWS V14.00,2013-11-20 09:59:00,
2013-11-20 02:00:00,32.8,31.5,30.14,NNE,22,0.0,0.0,95,0.00,,FEW055,0.00,VWS V14.00,2013-11-20 10:00:00,
2013-11-20 02:01:00,32.8,31.5,30.14,NNE,22,0.0,0.0,95,0.00,,OVC095,0.00,VWS V14.00,2013-11-20 10:01:00,
2013-11-20 02:02:00,32.8,31.5,30.14,NNE,22,0.0,0.0,95,0.00,,OVC095,0.00,VWS V14.00,2013-11-20 10:02:00,
2013-11-20 02:03:00,32.8,31.5,30.14,NNE,22,0.0,0.0,95,0.00,,OVC095,0.00,VWS V14.00,2013-11-20 10:03:00,
2013-11-20 02:04:00,32.8,31.5,30.14,NNE,22,0.0,0.0,95,0.00,,OVC095,0.00,VWS V14.00,2013-11-20 10:04:00,
2013-11-20 02:05:00,32.8,31.5,30.14,NNE,22,0.0,0.0,95,0.00,,FEW055,0.00,VWS V14.00,2013-11-20 10:05:00,
2013-11-20 02:06:00,32.7,31.4,30.14,NNE,22,0.0,0.0,95,0.00,,OVC095,0.00,VWS V14.00,2013-11-20 10:06:00,
2013-11-20 02:07:00,32.8,31.5,30.14,NNE,22,0.0,0.0,95,0.00,,OVC095,0.00,VWS V14.00,2013-11-20 10:07:00,
2013-11-20 02:08:00,32.7,31.4,30.14,NNE,22,0.0,0.0,95,0.00,,OVC095,0.00,VWS V14.00,2013-11-20 10:08:00,
2013-11-20 02:09:00,32.7,31.4,30.14,NNE,22,1.0,2.0,95,0.00,,OVC095,0.00,VWS V14.00,2013-11-20 10:09:00,
2013-11-20 02:10:00,32.7,31.4,30.14,NNE,22,0.0,1.0,95,0.00,,FEW055,0.00,VWS V14.00,2013-11-20 10:10:00,
2013-11-20 02:11:00,32.6,31.3,30.14,NNE,22,0.0,1.0,95,0.00,,OVC095,0.00,VWS V14.00,2013-11-20 10:11:00,
2013-11-20 02:12:00,32.6,31.3,30.14,NNE,22,0.0,0.0,95,0.00,,OVC095,0.00,VWS V14.00,2013-11-20 10:12:00,
2013-11-20 02:13:00,32.6,31.3,30.14,NNE,22,0.0,0.0,95,0.00,,OVC095,0.00,VWS V14.00,2013-11-20 10:13:00,
2013-11-20 02:14:00,32.6,31.3,30.14,NNE,22,0.0,0.0,95,0.00,,OVC095,0.00,VWS V14.00,2013-11-20 10:14:00,
2013-11-20 02:15:00,32.6,31.3,30.14,NNE,22,0.0,0.0,95,0.00,,FEW055,0.00,VWS V14.00,2013-11-20 10:15:00,
2013-11-20 02:16:00,32.5,31.2,30.14,NNE,22,0.0,0.0,95,0.00,,OVC095,0.00,VWS V14.00,2013-11-20 10:16:00,
2013-11-20 02:17:00,32.5,31.2,30.14,NNE,22,0.0,0.0,95,0.00,,OVC095,0.00,VWS V14.00,2013-11-20 10:17:00,
2013-11-20 02:18:00,32.5,31.2,30.15,NNE,22,0.0,0.0,95,0.00,,OVC095,0.00,VWS V14.00,2013-11-20 10:18:00,
2013-11-20 02:19:00,32.5,31.2,30.15,NNE,22,0.0,0.0,95,0.00,,OVC095,0.00,VWS V14.00,2013-11-20 10:19:00,
2013-11-20 02:20:00,32.5,31.2,30.15,NNE,22,0.0,0.0,95,0.00,,FEW055,0.00,VWS V14.00,2013-11-20 10:20:00,
2013-11-20 02:21:00,32.4,31.1,30.15,NNE,22,0.0,0.0,95,0.00,,OVC095,0.00,VWS V14.00,2013-11-20 10:21:00,
2013-11-20 02:22:00,32.4,31.1,30.15,NNE,22,0.0,0.0,95,0.00,,OVC095,0.00,VWS V14.00,2013-11-20 10:22:00,
2013-11-20 02:23:00,32.4,31.1,30.15,NNE,22,0.0,0.0,95,0.00,,OVC095,0.00,VWS V14.00,2013-11-20 10:23:00,
2013-11-20 02:24:00,32.4,31.1,30.15,NNE,22,0.0,0.0,95,0.00,,OVC095,0.00,VWS V14.00,2013-11-20 10:24:00,
2013-11-20 02:25:00,32.3,31.0,30.15,NNE,22,1.0,1.0,95,0.00,,FEW055,0.00,VWS V14.00,2013-11-20 10:25:00,
2013-11-20 02:26:00,32.3,31.0,30.15,NNE,22,2.0,2.0,95,0.00,,OVC095,0.00,VWS V14.00,2013-11-20 10:26:00,
2013-11-20 02:27:00,32.2,30.9,30.15,NNE,22,1.0,2.0,95,0.00,,OVC095,0.00,VWS V14.00,2013-11-20 10:27:00,
2013-11-20 02:28:00,32.2,30.9,30.15,NNE,22,1.0,1.0,95,0.00,,OVC095,0.00,VWS V14.00,2013-11-20 10:28:00,
2013-11-20 02:29:00,32.1,30.8,30.15,NNE,22,0.0,1.0,95,0.00,,OVC095,0.00,VWS V14.00,2013-11-20 10:29:00,
2013-11-20 02:30:00,32.1,30.8,30.16,NNE,22,1.0,2.0,95,0.00,,FEW055,0.00,VWS V14.00,2013-11-20 10:30:00,
2013-11-20 02:31:00,32.1,30.8,30.16,NNE,22,0.0,2.0,95,0.00,,OVC095,0.00,VWS V14.00,2013-11-20 10:31:00,
2013-11-20 02:32:00,32.1,30.8,30.16,NNE,22,1.0,1.0,95,0.00,,OVC095,0.00,VWS V14.00,2013-11-20 10:32:00,
2013-11-20 02:33:00,32.0,30.7,30.16,NNE,22,1.0,2.0,95,0.00,,OVC095,0.00,VWS V14.00,2013-11-20 10:33:00,
2013-11-20 02:34:00,32.0,30.7,30.16,NNE,22,2.0,2.0,95,0.00,,OVC095,0.00,VWS V14.00,2013-11-20 10:34:00,
2013-11-20 02:35:00,32.0,30.7,30.16,NNE,22,0.0,2.0,95,0.00,,FEW055,0.00,VWS V14.00,2013-11-20 10:35:00,
2013-11-20 02:36:00,32.0,30.7,30.16,NNE,22,0.0,2.0,95,0.00,,OVC095,0.00,VWS V14.00,2013-11-20 10:36:00,
2013-11-20 02:37:00,32.0,30.7,30.16,NNE,22,0.0,0.0,95,0.00,,OVC095,0.00,VWS V14.00,2013-11-20 10:37:00,
2013-11-20 02:38:00,32.0,30.7,30.16,NNE,22,2.0,2.0,95,0.00,,OVC095,0.00,VWS V14.00,2013-11-20 10:38:00,
2013-11-20 02:39:00,31.9,30.6,30.16,NNE,22,0.0,2.0,95,0.00,,OVC095,0.00,VWS V14.00,2013-11-20 10:39:00,
2013-11-20 02:40:00,31.9,30.6,30.16,NNE,22,2.0,2.0,95,0.00,,FEW055,0.00,VWS V14.00,2013-11-20 10:40:00,
2013-11-20 02:41:00,31.9,30.6,30.16,NNE,22,1.0,2.0,95,0.00,,OVC095,0.00,VWS V14.00,2013-11-20 10:41:00,
2013-11-20 02:42:00,31.9,30.6,30.16,NNE,22,1.0,2.0,95,0.00,,OVC095,0.00,VWS V14.00,2013-11-20 10:42:00,
2013-11-20 02:43:00,31.8,30.5,30.16,NNE,22,0.0,1.0,95,0.00,,OVC095,0.00,VWS V14.00,2013-11-20 10:43:00,
2013-11-20 02:44:00,31.8,30.5,30.16,NNE,22,0.0,1.0,95,0.00,,OVC095,0.00,VWS V14.00,2013-11-20 10:44:00,
2013-11-20 02:45:00,31.8,30.5,30.16,NNE,22,0.0,1.0,95,0.00,,FEW055,0.00,VWS V14.00,2013-11-20 10:45:00,
2013-11-20 02:46:00,31.7,30.4,30.16,NNE,22,0.0,1.0,95,0.00,,OVC095,0.00,VWS V14.00,2013-11-20 10:46:00,
2013-11-20 02:47:00,31.8,30.5,30.16,NNE,22,0.0,0.0,95,0.00,,OVC095,0.00,VWS V14.00,2013-11-20 10:47:00,
2013-11-20 02:48:00,31.7,30.4,30.16,NNE,22,0.0,0.0,95,0.00,,OVC095,0.00,VWS V14.00,2013-11-20 10:48:00,
2013-11-20 02:49:00,31.7,30.4,30.16,NNE,22,0.0,0.0,95,0.00,,OVC095,0.00,VWS V14.00,2013-11-20 10:49:00,
2013-11-20 02:50:00,31.7,30.4,30.17,NNE,22,0.0,0.0,95,0.00,,CLR,0.00,VWS V14.00,2013-11-20 10:50:00,
2013-11-20 02:51:00,31.6,30.3,30.17,NNE,22,0.0,0.0,95,0.00,,OVC095,0.00,VWS V14.00,2013-11-20 10:51:00,
2013-11-20 02:52:00,31.6,30.3,30.17,NNE,22,0.0,0.0,95,0.00,,OVC095,0.00,VWS V14.00,2013-11-20 10:52:00,
2013-11-20 02:53:00,31.6,30.3,30.17,NNE,22,0.0,0.0,95,0.00,,OVC095,0.00,VWS V14.00,2013-11-20 10:53:00,
2013-11-20 02:54:00,31.6,30.3,30.17,NNE,22,0.0,0.0,95,0.00,,OVC095,0.00,VWS V14.00,2013-11-20 10:54:00,
2013-11-20 02:55:00,31.6,30.3,30.17,NNE,22,0.0,0.0,95,0.00,,CLR,0.00,VWS V14.00,2013-11-20 10:55:00,
2013-11-20 02:56:00,31.5,30.2,30.17,NNE,22,0.0,0.0,95,0.00,,OVC095,0.00,VWS V14.00,2013-11-20 10:56:00,
2013-11-20 02:57:00,31.5,30.2,30.17,NNE,22,0.0,0.0,95,0.00,,OVC095,0.00,VWS V14.00,2013-11-20 10:57:00,
2013-11-20 02:58:00,31.5,30.2,30.17,NNE,22,0.0,0.0,95,0.00,,OVC095,0.00,VWS V14.00,2013-11-20 10:58:00,
2013-11-20 02:59:00,31.5,30.2,30.17,NNE,22,0.0,0.0,95,0.00,,OVC095,0.00,VWS V14.00,2013-11-20 10:59:00,
2013-11-20 03:00:00,31.4,30.1,30.17,NNE,23,0.0,0.0,95,0.00,,CLR,0.00,VWS V14.00,2013-11-20 11:00:00,
2013-11-20 03:01:00,31.4,30.1,30.17,NNE,22,0.0,0.0,95,0.00,,OVC095,0.00,VWS V14.00,2013-11-20 11:01:00,
2013-11-20 03:02:00,31.4,30.1,30.17,NNE,22,0.0,0.0,95,0.00,,OVC095,0.00,VWS V14.00,2013-11-20 11:02:00,
2013-11-20 03:03:00,31.4,30.1,30.17,NNE,22,0.0,0.0,95,0.00,,OVC095,0.00,VWS V14.00,2013-11-20 11:03:00,
2013-11-20 03:04:00,31.4,30.1,30.17,NNE,22,0.0,0.0,95,0.00,,OVC095,0.00,VWS V14.00,2013-11-20 11:04:00,
2013-11-20 03:05:00,31.3,30.0,30.17,NNE,22,0.0,0.0,95,0.00,,CLR,0.00,VWS V14.00,2013-11-20 11:05:00,
2013-11-20 03:06:00,31.3,30.0,30.17,NNE,22,0.0,0.0,95,0.00,,OVC095,0.00,VWS V14.00,2013-11-20 11:06:00,
2013-11-20 03:07:00,31.3,30.0,30.17,NNE,22,0.0,0.0,95,0.00,,OVC095,0.00,VWS V14.00,2013-11-20 11:07:00,
2013-11-20 03:08:00,31.3,30.0,30.17,NNE,22,0.0,0.0,95,0.00,,OVC095,0.00,VWS V14.00,2013-11-20 11:08:00,
2013-11-20 03:09:00,31.2,29.9,30.17,NNE,22,0.0,0.0,95,0.00,,OVC095,0.00,VWS V14.00,2013-11-20 11:09:00,
2013-11-20 03:10:00,31.2,29.9,30.17,NNE,22,0.0,0.0,95,0.00,,CLR,0.00,VWS V14.00,2013-11-20 11:10:00,
2013-11-20 03:11:00,31.2,29.9,30.17,NNE,22,0.0,0.0,95,0.00,,OVC095,0.00,VWS V14.00,2013-11-20 11:11:00,
2013-11-20 03:12:00,31.1,29.8,30.17,NNE,22,0.0,0.0,95,0.00,,OVC095,0.00,VWS V14.00,2013-11-20 11:12:00,
2013-11-20 03:13:00,31.1,29.8,30.17,NNE,22,0.0,0.0,95,0.00,,OVC095,0.00,VWS V14.00,2013-11-20 11:13:00,
2013-11-20 03:14:00,31.1,29.8,30.17,NNE,22,0.0,0.0,95,0.00,,OVC095,0.00,VWS V14.00,2013-11-20 11:14:00,
2013-11-20 03:15:00,31.0,29.7,30.17,NNE,22,0.0,0.0,95,0.00,,CLR,0.00,VWS V14.00,2013-11-20 11:15:00,
2013-11-20 03:16:00,31.0,29.7,30.17,NNE,23,0.0,0.0,95,0.00,,OVC095,0.00,VWS V14.00,2013-11-20 11:16:00,
2013-11-20 03:17:00,31.0,29.7,30.17,NNE,22,0.0,0.0,95,0.00,,OVC095,0.00,VWS V14.00,2013-11-20 11:17:00,
2013-11-20 03:18:00,30.9,29.6,30.17,NNE,22,0.0,0.0,95,0.00,,OVC095,0.00,VWS V14.00,2013-11-20 11:18:00,
2013-11-20 03:19:00,30.9,29.6,30.17,NNE,22,0.0,0.0,95,0.00,,OVC095,0.00,VWS V14.00,2013-11-20 11:19:00,
2013-11-20 03:20:00,30.8,29.5,30.17,NNE,22,0.0,0.0,95,0.00,,CLR,0.00,VWS V14.00,2013-11-20 11:20:00,
2013-11-20 03:21:00,30.8,29.5,30.17,NNE,22,0.0,0.0,95,0.00,,OVC095,0.00,VWS V14.00,2013-11-20 11:21:00,
2013-11-20 03:22:00,30.8,29.5,30.18,NNE,22,0.0,0.0,95,0.00,,OVC095,0.00,VWS V14.00,2013-11-20 11:22:00,
2013-11-20 03:23:00,30.7,29.4,30.18,NNE,22,0.0,0.0,95,0.00,,OVC095,0.00,VWS V14.00,2013-11-20 11:23:00,
2013-11-20 03:24:00,30.6,29.3,30.18,NNE,22,0.0,0.0,95,0.00,,OVC095,0.00,VWS V14.00,2013-11-20 11:24:00,
2013-11-20 03:25:00,30.6,29.3,30.18,NNE,22,0.0,0.0,95,0.00,,CLR,0.00,VWS V14.00,2013-11-20 11:25:00,
2013-11-20 03:26:00,30.6,29.3,30.18,NNE,22,0.0,0.0,95,0.00,,OVC095,0.00,VWS V14.00,2013-11-20 11:26:00,
2013-11-20 03:27:00,30.6,29.3,30.18,NNE,22,0.0,0.0,95,0.00,,OVC095,0.00,VWS V14.00,2013-11-20 11:27:00,
2013-11-20 03:28:00,30.5,29.2,30.18,NNE,22,0.0,0.0,95,0.00,,OVC095,0.00,VWS V14.00,2013-11-20 11:28:00,
2013-11-20 03:29:00,30.5,29.2,30.18,NNE,22,0.0,0.0,95,0.00,,OVC095,0.00,VWS V14.00,2013-11-20 11:29:00,
2013-11-20 03:30:00,30.5,29.2,30.18,NNE,22,0.0,0.0,95,0.00,,CLR,0.00,VWS V14.00,2013-11-20 11:30:00,
2013-11-20 03:31:00,30.5,29.2,30.18,NNE,22,0.0,0.0,95,0.00,,OVC095,0.00,VWS V14.00,2013-11-20 11:31:00,
2013-11-20 03:33:00,30.4,29.1,30.18,NNE,22,0.0,0.0,95,0.00,,OVC095,0.00,VWS V14.00,2013-11-20 11:33:00,
2013-11-20 03:34:00,30.4,29.1,30.18,NNE,22,0.0,0.0,95,0.00,,OVC095,0.00,VWS V14.00,2013-11-20 11:34:00,
2013-11-20 03:35:00,30.3,29.0,30.18,NNE,22,0.0,0.0,95,0.00,,CLR,0.00,VWS V14.00,2013-11-20 11:35:00,
2013-11-20 03:36:00,30.3,29.0,30.18,NNE,22,0.0,0.0,95,0.00,,OVC095,0.00,VWS V14.00,2013-11-20 11:36:00,
2013-11-20 03:37:00,30.3,29.0,30.18,NNE,22,0.0,0.0,95,0.00,,OVC095,0.00,VWS V14.00,2013-11-20 11:37:00,
2013-11-20 03:38:00,30.2,28.9,30.18,NNE,22,0.0,0.0,95,0.00,,OVC095,0.00,VWS V14.00,2013-11-20 11:38:00,
2013-11-20 03:39:00,30.2,28.9,30.18,NNE,22,0.0,0.0,95,0.00,,OVC095,0.00,VWS V14.00,2013-11-20 11:39:00,
2013-11-20 03:40:00,30.2,28.9,30.18,NNE,22,0.0,0.0,95,0.00,,CLR,0.00,VWS V14.00,2013-11-20 11:40:00,
2013-11-20 03:41:00,30.2,28.9,30.18,NNE,22,0.0,0.0,95,0.00,,OVC095,0.00,VWS V14.00,2013-11-20 11:41:00,
2013-11-20 03:42:00,30.1,28.8,30.18,NNE,22,0.0,0.0,95,0.00,,OVC095,0.00,VWS V14.00,2013-11-20 11:42:00,
2013-11-20 03:43:00,30.1,28.8,30.19,NNE,22,0.0,0.0,95,0.00,,OVC095,0.00,VWS V14.00,2013-11-20 11:43:00,
2013-11-20 03:44:00,30.1,28.8,30.19,NNE,22,0.0,0.0,95,0.00,,OVC095,0.00,VWS V14.00,2013-11-20 11:44:00,
2013-11-20 03:45:00,30.0,28.7,30.19,NNE,22,0.0,1.0,95,0.00,,CLR,0.00,VWS V14.00,2013-11-20 11:45:00,
2013-11-20 03:46:00,30.0,28.7,30.19,NNE,22,0.0,1.0,95,0.00,,OVC095,0.00,VWS V14.00,2013-11-20 11:46:00,
2013-11-20 03:48:00,30.0,28.7,30.19,NNE,22,0.0,0.0,95,0.00,,OVC095,0.00,VWS V14.00,2013-11-20 11:48:00,
2013-11-20 03:49:00,30.0,28.7,30.19,NNE,22,1.0,1.0,95,0.00,,OVC095,0.00,VWS V14.00,2013-11-20 11:49:00,
2013-11-20 03:50:00,29.9,28.6,30.19,NNE,22,1.0,2.0,95,0.00,,CLR,0.00,VWS V14.00,2013-11-20 11:50:00,
2013-11-20 03:51:00,29.9,28.6,30.19,NNE,22,0.0,2.0,95,0.00,,OVC095,0.00,VWS V14.00,2013-11-20 11:51:00,
2013-11-20 03:52:00,30.0,28.7,30.19,NNE,22,0.0,0.0,95,0.00,,OVC095,0.00,VWS V14.00,2013-11-20 11:52:00,
2013-11-20 03:53:00,30.0,28.7,30.19,NNE,22,0.0,0.0,95,0.00,,OVC095,0.00,VWS V14.00,2013-11-20 11:53:00,
2013-11-20 03:54:00,30.0,28.7,30.19,NNE,22,0.0,0.0,95,0.00,,OVC095,0.00,VWS V14.00,2013-11-20 11:54:00,
2013-11-20 03:55:00,30.0,28.7,30.19,NNE,22,0.0,0.0,95,0.00,,CLR,0.00,VWS V14.00,2013-11-20 11:55:00,
2013-11-20 03:56:00,30.0,28.7,30.20,NNE,22,0.0,0.0,95,0.00,,OVC095,0.00,VWS V14.00,2013-11-20 11:56:00,
2013-11-20 03:57:00,30.0,28.7,30.19,NNE,22,0.0,0.0,95,0.00,,OVC095,0.00,VWS V14.00,2013-11-20 11:57:00,
2013-11-20 03:58:00,30.0,28.7,30.19,NNE,22,0.0,0.0,95,0.00,,OVC095,0.00,VWS V14.00,2013-11-20 11:58:00,
2013-11-20 03:59:00,30.0,28.7,30.20,NNE,22,0.0,0.0,95,0.00,,OVC095,0.00,VWS V14.00,2013-11-20 11:59:00,
2013-11-20 04:00:00,30.0,28.7,30.19,NNE,22,0.0,0.0,95,0.00,,CLR,0.00,VWS V14.00,2013-11-20 12:00:00,
2013-11-20 04:01:00,29.9,28.6,30.20,NNE,22,0.0,0.0,95,0.00,,OVC095,0.00,VWS V14.00,2013-11-20 12:01:00,
2013-11-20 04:02:00,30.0,28.7,30.20,NNE,22,0.0,0.0,95,0.00,,OVC095,0.00,VWS V14.00,2013-11-20 12:02:00,
2013-11-20 04:03:00,29.9,28.6,30.20,NNE,22,0.0,0.0,95,0.00,,OVC095,0.00,VWS V14.00,2013-11-20 12:03:00,
2013-11-20 04:04:00,29.9,28.6,30.20,NNE,22,0.0,0.0,95,0.00,,OVC095,0.00,VWS V14.00,2013-11-20 12:04:00,
2013-11-20 04:05:00,29.9,28.6,30.20,NNE,22,0.0,0.0,95,0.00,,CLR,0.00,VWS V14.00,2013-11-20 12:05:00,
2013-11-20 04:06:00,29.9,28.6,30.20,NNE,22,0.0,0.0,95,0.00,,OVC095,0.00,VWS V14.00,2013-11-20 12:06:00,
2013-11-20 04:07:00,29.9,28.6,30.20,NNE,22,0.0,0.0,95,0.00,,OVC095,0.00,VWS V14.00,2013-11-20 12:07:00,
2013-11-20 04:08:00,29.9,28.6,30.20,NNE,22,0.0,0.0,95,0.00,,OVC095,0.00,VWS V14.00,2013-11-20 12:08:00,
2013-11-20 04:09:00,29.9,28.6,30.20,NNE,22,0.0,0.0,95,0.00,,OVC095,0.00,VWS V14.00,2013-11-20 12:09:00,
2013-11-20 04:10:00,29.9,28.6,30.20,NNE,22,0.0,0.0,95,0.00,,CLR,0.00,VWS V14.00,2013-11-20 12:10:00,
2013-11-20 04:11:00,29.8,28.5,30.20,NNE,22,0.0,0.0,95,0.00,,OVC095,0.00,VWS V14.00,2013-11-20 12:11:00,
2013-11-20 04:12:00,29.8,28.5,30.20,NNE,22,0.0,0.0,95,0.00,,OVC095,0.00,VWS V14.00,2013-11-20 12:12:00,
2013-11-20 04:13:00,29.8,28.5,30.20,NNE,22,0.0,0.0,95,0.00,,OVC095,0.00,VWS V14.00,2013-11-20 12:13:00,
2013-11-20 04:14:00,29.8,28.5,30.20,NNE,22,0.0,0.0,95,0.00,,OVC095,0.00,VWS V14.00,2013-11-20 12:14:00,
2013-11-20 04:15:00,29.8,28.5,30.20,NNE,22,0.0,0.0,95,0.00,,CLR,0.00,VWS V14.00,2013-11-20 12:15:00,
2013-11-20 04:16:00,29.8,28.5,30.20,NNE,22,0.0,0.0,95,0.00,,OVC095,0.00,VWS V14.00,2013-11-20 12:16:00,
2013-11-20 04:17:00,29.8,28.5,30.20,NNE,22,0.0,0.0,95,0.00,,OVC095,0.00,VWS V14.00,2013-11-20 12:17:00,
2013-11-20 04:18:00,29.8,28.5,30.20,NNE,22,0.0,0.0,95,0.00,,OVC095,0.00,VWS V14.00,2013-11-20 12:18:00,
2013-11-20 04:19:00,29.8,28.5,30.21,NNE,22,0.0,0.0,95,0.00,,OVC095,0.00,VWS V14.00,2013-11-20 12:19:00,
2013-11-20 04:20:00,29.8,28.5,30.21,NNE,22,0.0,0.0,95,0.00,,CLR,0.00,VWS V14.00,2013-11-20 12:20:00,
2013-11-20 04:21:00,29.8,28.5,30.21,NNE,22,0.0,0.0,95,0.00,,OVC095,0.00,VWS V14.00,2013-11-20 12:21:00,
2013-11-20 04:22:00,29.8,28.5,30.21,NNE,22,0.0,0.0,95,0.00,,OVC095,0.00,VWS V14.00,2013-11-20 12:22:00,
2013-11-20 04:23:00,29.8,28.5,30.21,NNE,22,0.0,0.0,95,0.00,,OVC095,0.00,VWS V14.00,2013-11-20 12:23:00,
2013-11-20 04:25:00,29.7,28.5,30.21,NNE,22,0.0,0.0,95,0.00,,CLR,0.00,VWS V14.00,2013-11-20 12:25:00,
2013-11-20 04:26:00,29.7,28.5,30.21,NNE,22,0.0,0.0,95,0.00,,OVC095,0.00,VWS V14.00,2013-11-20 12:26:00,
2013-11-20 04:27:00,29.7,28.5,30.21,NNE,22,0.0,0.0,95,0.00,,OVC095,0.00,VWS V14.00,2013-11-20 12:27:00,
2013-11-20 04:28:00,29.7,28.5,30.21,NNE,22,0.0,0.0,95,0.00,,OVC095,0.00,VWS V14.00,2013-11-20 12:28:00,
2013-11-20 04:29:00,29.7,28.5,30.21,NNE,22,0.0,0.0,95,0.00,,CLR,0.00,VWS V14.00,2013-11-20 12:29:00,
2013-11-20 04:30:00,29.7,28.5,30.21,NNE,22,0.0,0.0,95,0.00,,OVC095,0.00,VWS V14.00,2013-11-20 12:30:00,
2013-11-20 04:31:00,29.7,28.5,30.21,NNE,22,0.0,0.0,95,0.00,,OVC095,0.00,VWS V14.00,2013-11-20 12:31:00,
2013-11-20 04:33:00,29.7,28.5,30.21,NNE,22,0.0,0.0,95,0.00,,OVC095,0.00,VWS V14.00,2013-11-20 12:33:00,
2013-11-20 04:34:00,29.7,28.5,30.22,NNE,22,0.0,0.0,95,0.00,,CLR,0.00,VWS V14.00,2013-11-20 12:34:00,
2013-11-20 04:35:00,29.7,28.5,30.22,NNE,22,0.0,1.0,95,0.00,,OVC095,0.00,VWS V14.00,2013-11-20 12:35:00,
2013-11-20 04:36:00,29.7,28.5,30.22,NNE,22,0.0,0.0,95,0.00,,OVC095,0.00,VWS V14.00,2013-11-20 12:36:00,
2013-11-20 04:37:00,29.7,28.5,30.22,NNE,22,0.0,0.0,95,0.00,,OVC095,0.00,VWS V14.00,2013-11-20 12:37:00,
2013-11-20 04:38:00,29.7,28.5,30.22,NNE,22,0.0,0.0,95,0.00,,OVC095,0.00,VWS V14.00,2013-11-20 12:38:00,
2013-11-20 04:39:00,29.6,28.4,30.22,NNE,22,0.0,0.0,95,0.00,,CLR,0.00,VWS V14.00,2013-11-20 12:39:00,
2013-11-20 04:40:00,29.6,28.4,30.22,NNE,22,0.0,1.0,95,0.00,,OVC095,0.00,VWS V14.00,2013-11-20 12:40:00,
2013-11-20 04:41:00,29.7,28.5,30.22,NNE,22,0.0,0.0,95,0.00,,OVC095,0.00,VWS V14.00,2013-11-20 12:41:00,
2013-11-20 04:42:00,29.6,28.4,30.22,NNE,22,0.0,0.0,95,0.00,,OVC095,0.00,VWS V14.00,2013-11-20 12:42:00,
2013-11-20 04:43:00,29.6,28.4,30.22,NNE,22,1.0,1.0,95,0.00,,OVC095,0.00,VWS V14.00,2013-11-20 12:43:00,
2013-11-20 04:44:00,29.6,28.4,30.22,NNE,22,1.0,1.0,95,0.00,,CLR,0.00,VWS V14.00,2013-11-20 12:44:00,
2013-11-20 04:45:00,29.6,28.4,30.22,NNE,22,0.0,1.0,95,0.00,,OVC095,0.00,VWS V14.00,2013-11-20 12:45:00,
2013-11-20 04:46:00,29.6,28.6,30.22,NNE,22,1.0,1.0,96,0.00,,OVC095,0.00,VWS V14.00,2013-11-20 12:46:00,
2013-11-20 04:47:00,29.6,28.6,30.22,NNE,22,1.0,1.0,96,0.00,,OVC095,0.00,VWS V14.00,2013-11-20 12:47:00,
2013-11-20 04:48:00,29.6,28.6,30.22,NNE,22,0.0,1.0,96,0.00,,OVC095,0.00,VWS V14.00,2013-11-20 12:48:00,
2013-11-20 04:49:00,29.7,28.7,30.22,NNE,22,0.0,0.0,96,0.00,,CLR,0.00,VWS V14.00,2013-11-20 12:49:00,
2013-11-20 04:50:00,29.6,28.6,30.22,NNE,22,0.0,1.0,96,0.00,,OVC095,0.00,VWS V14.00,2013-11-20 12:50:00,
2013-11-20 04:51:00,29.6,28.6,30.22,NNE,22,0.0,0.0,96,0.00,,OVC095,0.00,VWS V14.00,2013-11-20 12:51:00,
2013-11-20 04:52:00,29.7,28.7,30.22,NNE,22,0.0,0.0,96,0.00,,OVC095,0.00,VWS V14.00,2013-11-20 12:52:00,
2013-11-20 04:53:00,29.7,28.7,30.23,NNE,22,0.0,0.0,96,0.00,,OVC095,0.00,VWS V14.00,2013-11-20 12:53:00,
2013-11-20 04:54:00,29.7,28.7,30.23,NNE,22,0.0,0.0,96,0.00,,CLR,0.00,VWS V14.00,2013-11-20 12:54:00,
2013-11-20 04:55:00,29.7,28.7,30.23,NNE,22,0.0,0.0,96,0.00,,OVC095,0.00,VWS V14.00,2013-11-20 12:55:00,
2013-11-20 04:56:00,29.7,28.7,30.23,NNE,22,0.0,0.0,96,0.00,,OVC095,0.00,VWS V14.00,2013-11-20 12:56:00,
2013-11-20 04:57:00,29.7,28.7,30.23,NNE,22,0.0,0.0,96,0.00,,OVC095,0.00,VWS V14.00,2013-11-20 12:57:00,
2013-11-20 04:58:00,29.7,28.7,30.23,NNE,22,0.0,1.0,96,0.00,,OVC095,0.00,VWS V14.00,2013-11-20 12:58:00,
2013-11-20 04:59:00,29.7,28.7,30.23,NNE,22,0.0,0.0,96,0.00,,CLR,0.00,VWS V14.00,2013-11-20 12:59:00,
2013-11-20 05:00:00,29.7,28.7,30.23,NNE,22,0.0,0.0,96,0.00,,OVC095,0.00,VWS V14.00,2013-11-20 13:00:00,
2013-11-20 05:01:00,29.7,28.7,30.23,NNE,22,1.0,1.0,96,0.00,,OVC095,0.00,VWS V14.00,2013-11-20 13:01:00,
2013-11-20 05:02:00,29.7,28.7,30.23,NNE,22,0.0,1.0,96,0.00,,OVC095,0.00,VWS V14.00,2013-11-20 13:02:00,
2013-11-20 05:03:00,29.7,28.7,30.23,NNE,22,0.0,0.0,96,0.00,,OVC095,0.00,VWS V14.00,2013-11-20 13:03:00,
2013-11-20 05:04:00,29.7,28.7,30.23,NNE,22,1.0,2.0,96,0.00,,CLR,0.00,VWS V14.00,2013-11-20 13:04:00,
2013-11-20 05:05:00,29.7,28.7,30.23,NNE,22,2.0,2.0,96,0.00,,OVC095,0.00,VWS V14.00,2013-11-20 13:05:00,
2013-11-20 05:06:00,29.7,28.7,30.23,NNE,22,1.0,2.0,96,0.00,,OVC095,0.00,VWS V14.00,2013-11-20 13:06:00,
2013-11-20 05:07:00,29.7,28.7,30.23,NNE,22,0.0,2.0,96,0.00,,OVC095,0.00,VWS V14.00,2013-11-20 13:07:00,
2013-11-20 05:08:00,29.8,28.8,30.23,NNE,22,1.0,2.0,96,0.00,,OVC095,0.00,VWS V14.00,2013-11-20 13:08:00,
2013-11-20 05:09:00,29.8,28.8,30.23,NNE,22,2.0,3.0,96,0.00,,CLR,0.00,VWS V14.00,2013-11-20 13:09:00,
2013-11-20 05:10:00,29.8,28.8,30.23,NNE,22,2.0,2.0,96,0.00,,OVC095,0.00,VWS V14.00,2013-11-20 13:10:00,
2013-11-20 05:11:00,29.9,28.9,30.23,NNE,22,2.0,3.0,96,0.00,,OVC095,0.00,VWS V14.00,2013-11-20 13:11:00,
2013-11-20 05:12:00,29.9,28.9,30.23,NNE,22,2.0,3.0,96,0.00,,OVC095,0.00,VWS V14.00,2013-11-20 13:12:00,
2013-11-20 05:13:00,29.9,28.9,30.23,NNE,22,1.0,2.0,96,0.00,,OVC095,0.00,VWS V14.00,2013-11-20 13:13:00,
2013-11-20 05:14:00,30.1,29.1,30.24,NNE,22,0.0,1.0,96,0.00,,CLR,0.00,VWS V14.00,2013-11-20 13:14:00,
2013-11-20 05:15:00,30.0,29.0,30.24,NNE,22,1.0,3.0,96,0.00,,OVC095,0.00,VWS V14.00,2013-11-20 13:15:00,
2013-11-20 05:16:00,30.1,29.1,30.24,NNE,22,1.0,2.0,96,0.00,,OVC095,0.00,VWS V14.00,2013-11-20 13:16:00,
2013-11-20 05:17:00,30.1,29.1,30.23,NNE,22,1.0,1.0,96,0.00,,OVC095,0.00,VWS V14.00,2013-11-20 13:17:00,
2013-11-20 05:18:00,30.1,29.1,30.23,NNE,22,1.0,1.0,96,0.00,,OVC095,0.00,VWS V14.00,2013-11-20 13:18:00,
2013-11-20 05:19:00,30.2,29.2,30.24,NNE,22,0.0,1.0,96,0.00,,CLR,0.00,VWS V14.00,2013-11-20 13:19:00,
2013-11-20 05:20:00,30.2,29.2,30.24,NNE,22,1.0,3.0,96,0.00,,OVC095,0.00,VWS V14.00,2013-11-20 13:20:00,
2013-11-20 05:21:00,30.2,29.2,30.24,NNE,22,2.0,3.0,96,0.00,,OVC095,0.00,VWS V14.00,2013-11-20 13:21:00,
2013-11-20 05:22:00,30.3,29.3,30.24,NNE,22,2.0,2.0,96,0.00,,OVC095,0.00,VWS V14.00,2013-11-20 13:22:00,
2013-11-20 05:23:00,30.2,29.2,30.23,NNE,22,2.0,2.0,96,0.00,,OVC095,0.00,VWS V14.00,2013-11-20 13:23:00,
2013-11-20 05:24:00,30.3,29.3,30.24,NNE,22,1.0,1.0,96,0.00,,CLR,0.00,VWS V14.00,2013-11-20 13:24:00,
2013-11-20 05:25:00,30.3,29.3,30.24,NNE,22,1.0,2.0,96,0.00,,OVC095,0.00,VWS V14.00,2013-11-20 13:25:00,
2013-11-20 05:26:00,30.3,29.3,30.24,NNE,22,0.0,3.0,96,0.00,,OVC095,0.00,VWS V14.00,2013-11-20 13:26:00,
2013-11-20 05:27:00,30.3,29.3,30.24,NNE,22,1.0,2.0,96,0.00,,OVC095,0.00,VWS V14.00,2013-11-20 13:27:00,
2013-11-20 05:28:00,30.3,29.3,30.24,NNE,22,3.0,4.0,96,0.00,,OVC095,0.00,VWS V14.00,2013-11-20 13:28:00,
2013-11-20 05:29:00,30.3,29.3,30.24,NNE,22,2.0,2.0,96,0.00,,CLR,0.00,VWS V14.00,2013-11-20 13:29:00,
2013-11-20 05:30:00,30.3,29.3,30.24,NNE,22,2.0,2.0,96,0.00,,OVC095,0.00,VWS V14.00,2013-11-20 13:30:00,
2013-11-20 05:31:00,30.4,29.4,30.24,NNE,22,2.0,3.0,96,0.00,,OVC095,0.00,VWS V14.00,2013-11-20 13:31:00,
2013-11-20 05:32:00,30.3,29.3,30.24,NNE,22,4.0,4.0,96,0.00,,OVC095,0.00,VWS V14.00,2013-11-20 13:32:00,
2013-11-20 05:33:00,30.4,29.4,30.24,NNE,22,2.0,5.0,96,0.00,,OVC095,0.00,VWS V14.00,2013-11-20 13:33:00,
2013-11-20 05:34:00,30.5,29.5,30.24,NNE,22,3.0,6.0,96,0.00,,CLR,0.00,VWS V14.00,2013-11-20 13:34:00,
2013-11-20 05:35:00,30.4,29.4,30.24,NNE,22,6.0,6.0,96,0.00,,OVC095,0.00,VWS V14.00,2013-11-20 13:35:00,
2013-11-20 05:36:00,30.5,29.5,30.24,NNE,22,1.0,6.0,96,0.00,,OVC095,0.00,VWS V14.00,2013-11-20 13:36:00,
2013-11-20 05:37:00,30.5,29.5,30.24,NNE,22,4.0,4.0,96,0.00,,OVC095,0.00,VWS V14.00,2013-11-20 13:37:00,
2013-11-20 05:38:00,30.6,29.6,30.24,NNE,22,1.0,4.0,96,0.00,,OVC095,0.00,VWS V14.00,2013-11-20 13:38:00,
2013-11-20 05:39:00,30.6,29.6,30.25,NNE,22,0.0,2.0,96,0.00,,CLR,0.00,VWS V14.00,2013-11-20 13:39:00,
2013-11-20 05:40:00,30.6,29.6,30.24,NNE,22,1.0,2.0,96,0.00,,OVC095,0.00,VWS V14.00,2013-11-20 13:40:00,
2013-11-20 05:41:00,30.6,29.3,30.24,NNE,22,1.0,2.0,95,0.00,,OVC095,0.00,VWS V14.00,2013-11-20 13:41:00,
2013-11-20 05:42:00,30.6,29.3,30.24,NNE,22,2.0,3.0,95,0.00,,OVC095,0.00,VWS V14.00,2013-11-20 13:42:00,
2013-11-20 05:43:00,30.6,29.3,30.24,NNE,22,2.0,2.0,95,0.00,,OVC095,0.00,VWS V14.00,2013-11-20 13:43:00,
2013-11-20 05:44:00,30.5,29.2,30.25,NNE,22,0.0,1.0,95,0.00,,CLR,0.00,VWS V14.00,2013-11-20 13:44:00,
2013-11-20 05:45:00,30.5,29.2,30.25,NNE,22,1.0,2.0,95,0.00,,OVC095,0.00,VWS V14.00,2013-11-20 13:45:00,
2013-11-20 05:46:00,30.5,29.2,30.25,NNE,22,1.0,2.0,95,0.00,,OVC095,0.00,VWS V14.00,2013-11-20 13:46:00,
2013-11-20 05:47:00,30.5,29.2,30.25,NNE,22,1.0,2.0,95,0.00,,OVC095,0.00,VWS V14.00,2013-11-20 13:47:00,
2013-11-20 05:48:00,30.5,29.2,30.25,NNE,22,1.0,2.0,95,0.00,,OVC095,0.00,VWS V14.00,2013-11-20 13:48:00,
2013-11-20 05:49:00,30.5,29.2,30.25,NNE,22,2.0,2.0,95,0.00,,CLR,0.00,VWS V14.00,2013-11-20 13:49:00,
2013-11-20 05:50:00,30.5,29.2,30.25,NNE,22,1.0,2.0,95,0.00,,OVC095,0.00,VWS V14.00,2013-11-20 13:50:00,
2013-11-20 05:51:00,30.5,29.2,30.25,NNE,22,1.0,2.0,95,0.00,,OVC095,0.00,VWS V14.00,2013-11-20 13:51:00,
2013-11-20 05:52:00,30.5,29.2,30.25,NNE,22,1.0,2.0,95,0.00,,OVC095,0.00,VWS V14.00,2013-11-20 13:52:00,
2013-11-20 05:53:00,30.5,29.2,30.25,NNE,22,2.0,3.0,95,0.00,,OVC095,0.00,VWS V14.00,2013-11-20 13:53:00,
2013-11-20 05:54:00,30.5,29.2,30.25,NNE,22,0.0,0.0,95,0.00,,CLR,0.00,VWS V14.00,2013-11-20 13:54:00,
2013-11-20 05:56:00,30.5,29.2,30.25,NNE,22,2.0,3.0,95,0.00,,OVC095,0.00,VWS V14.00,2013-11-20 13:56:00,
2013-11-20 05:58:00,30.5,29.2,30.25,NNE,22,1.0,3.0,95,0.00,,OVC095,0.00,VWS V14.00,2013-11-20 13:58:00,
2013-11-20 05:59:00,30.4,29.1,30.25,NNE,22,1.0,1.0,95,0.00,,CLR,0.00,VWS V14.00,2013-11-20 13:59:00,
2013-11-20 06:00:00,30.5,29.2,30.25,NNE,22,1.0,2.0,95,0.00,,OVC095,0.00,VWS V14.00,2013-11-20 14:00:00,
2013-11-20 06:04:00,30.4,29.1,30.25,NNE,22,1.0,2.0,95,0.00,,CLR,0.00,VWS V14.00,2013-11-20 14:04:00,
2013-11-20 06:05:00,30.4,29.1,30.25,NNE,22,2.0,2.0,95,0.00,,OVC095,0.00,VWS V14.00,2013-11-20 14:05:00,
2013-11-20 06:07:00,30.4,29.1,30.26,NNE,22,0.0,2.0,95,0.00,,OVC095,0.00,VWS V14.00,2013-11-20 14:07:00,
2013-11-20 06:08:00,30.4,29.1,30.26,NNE,22,0.0,0.0,95,0.00,,OVC095,0.00,VWS V14.00,2013-11-20 14:08:00,
2013-11-20 06:09:00,30.4,29.1,30.25,NNE,22,4.0,4.0,95,0.00,,CLR,0.00,VWS V14.00,2013-11-20 14:09:00,
2013-11-20 06:10:00,30.4,29.1,30.25,NNE,22,2.0,2.0,95,0.00,,OVC095,0.00,VWS V14.00,2013-11-20 14:10:00,
2013-11-20 06:14:00,30.5,29.2,30.26,NNE,22,2.0,3.0,95,0.00,,CLR,0.00,VWS V14.00,2013-11-20 14:14:00,
2013-11-20 06:18:00,30.7,29.4,30.26,NNE,22,1.0,5.0,95,0.00,,OVC095,0.00,VWS V14.00,2013-11-20 14:18:00,
2013-11-20 06:19:00,30.9,29.6,30.26,NNE,22,4.0,4.0,95,0.00,,CLR,0.00,VWS V14.00,2013-11-20 14:19:00,
2013-11-20 06:20:00,30.9,29.6,30.26,NNE,22,4.0,5.0,95,0.00,,OVC095,0.00,VWS V14.00,2013-11-20 14:20:00,
2013-11-20 06:22:00,31.1,29.8,30.26,NNE,22,5.0,7.0,95,0.00,,OVC095,0.00,VWS V14.00,2013-11-20 14:22:00,
2013-11-20 06:24:00,31.5,30.2,30.26,NNE,22,2.0,2.0,95,0.00,,CLR,0.00,VWS V14.00,2013-11-20 14:24:00,
2013-11-20 06:26:00,31.6,30.3,30.26,NNE,22,4.0,4.0,95,0.00,,OVC095,0.00,VWS V14.00,2013-11-20 14:26:00,
2013-11-20 06:27:00,31.7,30.2,30.26,NNE,22,3.0,5.0,94,0.00,,OVC095,0.00,VWS V14.00,2013-11-20 14:27:00,
2013-11-20 06:29:00,32.0,30.5,30.27,NNE,22,2.0,4.0,94,0.00,,CLR,0.00,VWS V14.00,2013-11-20 14:29:00,
2013-11-20 06:34:00,32.3,30.5,30.27,NNE,22,1.0,3.0,93,0.00,,CLR,0.00,VWS V14.00,2013-11-20 14:34:00,
2013-11-20 06:39:00,32.6,30.5,30.27,NNE,22,2.0,6.0,92,0.00,,CLR,0.00,VWS V14.00,2013-11-20 14:39:00,
2013-11-20 06:44:00,32.9,30.6,30.27,NNE,22,4.0,4.0,91,0.00,,CLR,0.00,VWS V14.00,2013-11-20 14:44:00,
2013-11-20 06:48:00,33.0,30.7,30.28,NNE,22,1.0,3.0,91,0.00,,OVC095,0.00,VWS V14.00,2013-11-20 14:48:00,
2013-11-20 06:49:00,33.1,30.8,30.28,NNE,22,2.0,4.0,91,0.00,,CLR,0.00,VWS V14.00,2013-11-20 14:49:00,
2013-11-20 06:51:00,33.1,30.8,30.28,NNE,22,2.0,2.0,91,0.00,,OVC095,0.00,VWS V14.00,2013-11-20 14:51:00,
2013-11-20 06:52:00,33.2,30.6,30.28,NNE,22,1.0,2.0,90,0.00,,OVC095,0.00,VWS V14.00,2013-11-20 14:52:00,
2013-11-20 06:53:00,33.2,30.6,30.28,NNE,22,4.0,4.0,90,0.00,,OVC095,0.00,VWS V14.00,2013-11-20 14:53:00,
2013-11-20 06:54:00,33.2,30.6,30.28,NNE,22,1.0,2.0,90,0.00,,CLR,0.00,VWS V14.00,2013-11-20 14:54:00,
2013-11-20 06:59:00,33.3,30.4,30.29,NNE,22,3.0,5.0,89,0.00,,CLR,0.00,VWS V14.00,2013-11-20 14:59:00,
2013-11-20 07:04:00,33.4,30.5,30.29,NNE,22,1.0,2.0,89,0.00,,CLR,0.00,VWS V14.00,2013-11-20 15:04:00,
2013-11-20 07:09:00,33.4,30.5,30.29,NNE,22,1.0,1.0,89,0.00,,CLR,0.00,VWS V14.00,2013-11-20 15:09:00,
2013-11-20 07:11:00,33.4,30.5,30.29,NNE,22,3.0,4.0,89,0.00,,OVC095,0.00,VWS V14.00,2013-11-20 15:11:00,
2013-11-20 07:13:00,33.5,30.3,30.29,NNE,22,1.0,3.0,88,0.00,,OVC095,0.00,VWS V14.00,2013-11-20 15:13:00,
2013-11-20 07:14:00,33.5,30.3,30.29,NNE,22,1.0,1.0,88,0.00,,CLR,0.00,VWS V14.00,2013-11-20 15:14:00,
2013-11-20 07:15:00,33.5,30.3,30.29,NNE,22,1.0,1.0,88,0.00,,OVC095,0.00,VWS V14.00,2013-11-20 15:15:00,
2013-11-20 07:16:00,33.5,30.3,30.29,NNE,22,1.0,3.0,88,0.00,,OVC095,0.00,VWS V14.00,2013-11-20 15:16:00,
2013-11-20 07:17:00,33.6,30.4,30.29,NNE,22,1.0,2.0,88,0.00,,OVC095,0.00,VWS V14.00,2013-11-20 15:17:00,
2013-11-20 07:19:00,33.6,30.4,30.29,NNE,22,3.0,3.0,88,0.00,,CLR,0.00,VWS V14.00,2013-11-20 15:19:00,
2013-11-20 07:24:00,33.6,30.4,30.29,NNE,22,1.0,3.0,88,0.00,,CLR,0.00,VWS V14.00,2013-11-20 15:24:00,
2013-11-20 07:29:00,33.6,30.4,30.30,NNE,22,0.0,1.0,88,0.00,,CLR,0.00,VWS V14.00,2013-11-20 15:29:00,
2013-11-20 07:31:00,33.6,30.4,30.30,NNE,22,1.0,2.0,88,0.00,,OVC095,0.00,VWS V14.00,2013-11-20 15:31:00,
2013-11-20 07:34:00,33.4,30.2,30.30,NNE,22,0.0,0.0,88,0.00,,CLR,0.00,VWS V14.00,2013-11-20 15:34:00,
2013-11-20 07:35:00,33.4,30.2,30.30,NNE,22,0.0,0.0,88,0.00,,OVC095,0.00,VWS V14.00,2013-11-20 15:35:00,
2013-11-20 07:36:00,33.4,30.2,30.30,NNE,22,0.0,0.0,88,0.00,,OVC095,0.00,VWS V14.00,2013-11-20 15:36:00,
2013-11-20 07:38:00,33.4,30.2,30.30,NNE,22,0.0,0.0,88,0.00,,OVC095,0.00,VWS V14.00,2013-11-20 15:38:00,
2013-11-20 07:39:00,33.4,30.2,30.30,NNE,22,0.0,0.0,88,0.00,,CLR,0.00,VWS V14.00,2013-11-20 15:39:00,
2013-11-20 07:44:00,33.2,30.3,30.31,NNE,22,0.0,0.0,89,0.00,,CLR,0.00,VWS V14.00,2013-11-20 15:44:00,
2013-11-20 07:49:00,33.0,29.8,30.31,NNE,22,0.0,0.0,88,0.00,,CLR,0.00,VWS V14.00,2013-11-20 15:49:00,
2013-11-20 07:54:00,32.8,29.6,30.31,NNE,22,0.0,0.0,88,0.00,,CLR,0.00,VWS V14.00,2013-11-20 15:54:00,
2013-11-20 07:56:00,32.8,29.6,30.31,NNE,22,0.0,0.0,88,0.00,,OVC095,0.00,VWS V14.00,2013-11-20 15:56:00,
2013-11-20 07:59:00,32.6,29.7,30.31,NNE,22,0.0,0.0,89,0.00,,CLR,0.00,VWS V14.00,2013-11-20 15:59:00,
2013-11-20 08:00:00,32.6,29.7,30.31,NNE,22,0.0,0.0,89,0.00,,OVC095,0.00,VWS V14.00,2013-11-20 16:00:00,
2013-11-20 08:01:00,32.5,29.6,30.31,NNE,22,0.0,0.0,89,0.00,,OVC095,0.00,VWS V14.00,2013-11-20 16:01:00,
2013-11-20 08:03:00,32.5,29.6,30.32,NNE,22,0.0,1.0,89,0.00,,OVC095,0.00,VWS V14.00,2013-11-20 16:03:00,
2013-11-20 08:04:00,32.3,29.4,30.31,NNE,22,0.0,0.0,89,0.00,,CLR,0.00,VWS V14.00,2013-11-20 16:04:00,
2013-11-20 08:05:00,32.3,29.4,30.31,NNE,22,0.0,0.0,89,0.00,,OVC095,0.00,VWS V14.00,2013-11-20 16:05:00,
2013-11-20 08:09:00,32.1,29.2,30.32,NNE,22,0.0,0.0,89,0.00,,CLR,0.00,VWS V14.00,2013-11-20 16:09:00,
2013-11-20 08:14:00,32.0,29.4,30.33,NNE,22,0.0,0.0,90,0.00,,CLR,0.00,VWS V14.00,2013-11-20 16:14:00,
2013-11-20 08:18:00,31.9,29.3,30.33,NNE,22,0.0,0.0,90,0.00,,OVC095,0.00,VWS V14.00,2013-11-20 16:18:00,
2013-11-20 08:19:00,31.9,29.3,30.32,NNE,22,0.0,0.0,90,0.00,,CLR,0.00,VWS V14.00,2013-11-20 16:19:00,
2013-11-20 08:21:00,31.8,29.2,30.32,NNE,22,0.0,0.0,90,0.00,,OVC095,0.00,VWS V14.00,2013-11-20 16:21:00,
2013-11-20 08:24:00,31.7,29.1,30.32,NNE,22,0.0,0.0,90,0.00,,CLR,0.00,VWS V14.00,2013-11-20 16:24:00,
2013-11-20 08:25:00,31.7,29.1,30.32,NNE,22,0.0,0.0,90,0.00,,OVC095,0.00,VWS V14.00,2013-11-20 16:25:00,
2013-11-20 08:26:00,31.7,29.1,30.32,NNE,22,0.0,0.0,90,0.00,,OVC095,0.00,VWS V14.00,2013-11-20 16:26:00,
2013-11-20 08:28:00,31.6,29.0,30.32,NNE,22,0.0,0.0,90,0.00,,OVC095,0.00,VWS V14.00,2013-11-20 16:28:00,
2013-11-20 08:29:00,31.6,29.0,30.33,NNE,22,0.0,0.0,90,0.00,,CLR,0.00,VWS V14.00,2013-11-20 16:29:00,
2013-11-20 08:30:00,31.6,29.0,30.32,NNE,22,0.0,0.0,90,0.00,,OVC095,0.00,VWS V14.00,2013-11-20 16:30:00,
2013-11-20 08:31:00,31.6,29.3,30.33,NNE,22,0.0,0.0,91,0.00,,OVC095,0.00,VWS V14.00,2013-11-20 16:31:00,
2013-11-20 08:33:00,31.5,29.2,30.33,NNE,22,0.0,0.0,91,0.00,,OVC095,0.00,VWS V14.00,2013-11-20 16:33:00,
2013-11-20 08:34:00,31.5,29.2,30.33,NNE,22,0.0,0.0,91,0.00,,CLR,0.00,VWS V14.00,2013-11-20 16:34:00,
2013-11-20 08:35:00,31.5,29.2,30.33,NNE,22,0.0,0.0,91,0.00,,OVC095,0.00,VWS V14.00,2013-11-20 16:35:00,
2013-11-20 08:36:00,31.4,29.1,30.33,NNE,22,0.0,0.0,91,0.00,,OVC095,0.00,VWS V14.00,2013-11-20 16:36:00,
2013-11-20 08:37:00,31.4,29.1,30.33,NNE,22,0.0,0.0,91,0.00,,OVC095,0.00,VWS V14.00,2013-11-20 16:37:00,
2013-11-20 08:39:00,31.3,29.2,30.33,NNE,22,0.0,1.0,92,0.00,,CLR,0.00,VWS V14.00,2013-11-20 16:39:00,
2013-11-20 08:40:00,31.3,29.2,30.33,NNE,22,0.0,1.0,92,0.00,,OVC095,0.00,VWS V14.00,2013-11-20 16:40:00,
2013-11-20 08:41:00,31.3,29.2,30.33,NNE,22,0.0,0.0,92,0.00,,OVC095,0.00,VWS V14.00,2013-11-20 16:41:00,
2013-11-20 08:42:00,31.3,29.2,30.33,NNE,22,0.0,1.0,92,0.00,,OVC095,0.00,VWS V14.00,2013-11-20 16:42:00,
2013-11-20 08:43:00,31.3,29.2,30.33,NNE,22,1.0,1.0,92,0.00,,OVC095,0.00,VWS V14.00,2013-11-20 16:43:00,
2013-11-20 08:44:00,31.3,29.2,30.33,NNE,22,1.0,1.0,92,0.00,,CLR,0.00,VWS V14.00,2013-11-20 16:44:00,
2013-11-20 08:45:00,31.3,29.2,30.33,NNE,22,1.0,1.0,92,0.00,,OVC095,0.00,VWS V14.00,2013-11-20 16:45:00,
2013-11-20 08:46:00,31.3,29.2,30.33,NNE,22,0.0,1.0,92,0.00,,OVC095,0.00,VWS V14.00,2013-11-20 16:46:00,
2013-11-20 08:47:00,31.3,29.5,30.33,NNE,22,0.0,0.0,93,0.00,,OVC095,0.00,VWS V14.00,2013-11-20 16:47:00,
2013-11-20 08:48:00,31.3,29.5,30.33,NNE,22,0.0,0.0,93,0.00,,OVC095,0.00,VWS V14.00,2013-11-20 16:48:00,
2013-11-20 08:49:00,31.3,29.5,30.33,NNE,22,0.0,0.0,93,0.00,,CLR,0.00,VWS V14.00,2013-11-20 16:49:00,
2013-11-20 08:50:00,31.3,29.5,30.33,NNE,22,0.0,0.0,93,0.00,,OVC095,0.00,VWS V14.00,2013-11-20 16:50:00,
2013-11-20 08:51:00,31.3,29.5,30.33,NNE,22,0.0,0.0,93,0.00,,OVC095,0.00,VWS V14.00,2013-11-20 16:51:00,
2013-11-20 08:52:00,31.4,29.6,30.33,NNE,22,0.0,0.0,93,0.00,,OVC095,0.00,VWS V14.00,2013-11-20 16:52:00,
2013-11-20 08:53:00,31.4,29.6,30.33,NNE,22,0.0,1.0,93,0.00,,OVC095,0.00,VWS V14.00,2013-11-20 16:53:00,
2013-11-20 08:54:00,31.4,29.9,30.34,NNE,22,0.0,0.0,94,0.00,,CLR,0.00,VWS V14.00,2013-11-20 16:54:00,
2013-11-20 08:55:00,31.5,30.0,30.34,NNE,22,1.0,1.0,94,0.00,,OVC095,0.00,VWS V14.00,2013-11-20 16:55:00,
2013-11-20 08:56:00,31.5,30.0,30.34,NNE,22,0.0,2.0,94,0.00,,OVC095,0.00,VWS V14.00,2013-11-20 16:56:00,
2013-11-20 08:57:00,31.5,30.0,30.34,NNE,22,0.0,1.0,94,0.00,,OVC095,0.00,VWS V14.00,2013-11-20 16:57:00,
2013-11-20 08:58:00,31.6,30.1,30.34,NNE,22,0.0,1.0,94,0.00,,OVC095,0.00,VWS V14.00,2013-11-20 16:58:00,
2013-11-20 08:59:00,31.6,30.1,30.34,NNE,22,0.0,0.0,94,0.00,,CLR,0.00,VWS V14.00,2013-11-20 16:59:00,
2013-11-20 09:00:00,31.6,30.1,30.34,NNE,22,0.0,0.0,94,0.00,,OVC095,0.00,VWS V14.00,2013-11-20 17:00:00,
2013-11-20 09:01:00,31.7,30.2,30.34,NNE,22,0.0,2.0,94,0.00,,OVC095,0.00,VWS V14.00,2013-11-20 17:01:00,
2013-11-20 09:02:00,31.7,30.2,30.34,NNE,22,0.0,1.0,94,0.00,,OVC095,0.00,VWS V14.00,2013-11-20 17:02:00,
2013-11-20 09:03:00,31.8,30.3,30.34,NNE,22,0.0,1.0,94,0.00,,OVC095,0.00,VWS V14.00,2013-11-20 17:03:00,
2013-11-20 09:04:00,32.0,30.7,30.34,NNE,22,0.0,0.0,95,0.00,,CLR,0.00,VWS V14.00,2013-11-20 17:04:00,
2013-11-20 09:05:00,32.0,30.7,30.34,NNE,22,0.0,0.0,95,0.00,,OVC095,0.00,VWS V14.00,2013-11-20 17:05:00,
2013-11-20 09:06:00,32.2,30.9,30.34,NNE,22,0.0,0.0,95,0.00,,OVC095,0.00,VWS V14.00,2013-11-20 17:06:00,
2013-11-20 09:07:00,32.3,31.0,30.35,NNE,22,0.0,0.0,95,0.00,,OVC095,0.00,VWS V14.00,2013-11-20 17:07:00,
2013-11-20 09:08:00,32.4,31.1,30.34,NNE,22,1.0,1.0,95,0.00,,OVC095,0.00,VWS V14.00,2013-11-20 17:08:00,
2013-11-20 09:09:00,32.5,31.2,30.34,NNE,23,1.0,2.0,95,0.00,,CLR,0.00,VWS V14.00,2013-11-20 17:09:00,
2013-11-20 09:10:00,32.5,31.2,30.34,NNE,23,2.0,2.0,95,0.00,,OVC095,0.00,VWS V14.00,2013-11-20 17:10:00,
2013-11-20 09:11:00,32.5,31.0,30.34,NNE,23,1.0,2.0,94,0.00,,OVC095,0.00,VWS V14.00,2013-11-20 17:11:00,
2013-11-20 09:12:00,32.6,31.1,30.34,NNE,23,3.0,3.0,94,0.00,,OVC095,0.00,VWS V14.00,2013-11-20 17:12:00,
2013-11-20 09:13:00,32.7,31.2,30.34,NNE,23,1.0,3.0,94,0.00,,OVC095,0.00,VWS V14.00,2013-11-20 17:13:00,
2013-11-20 09:14:00,32.9,31.4,30.34,NNE,23,1.0,3.0,94,0.00,,CLR,0.00,VWS V14.00,2013-11-20 17:14:00,
2013-11-20 09:15:00,33.0,31.5,30.34,NNE,23,2.0,3.0,94,0.00,,OVC095,0.00,VWS V14.00,2013-11-20 17:15:00,
2013-11-20 09:16:00,33.2,31.7,30.34,NNE,30,1.0,3.0,94,0.00,,OVC095,0.00,VWS V14.00,2013-11-20 17:16:00,
2013-11-20 09:17:00,33.3,31.5,30.34,NE,34,1.0,2.0,93,0.00,,OVC095,0.00,VWS V14.00,2013-11-20 17:17:00,
2013-11-20 09:18:00,33.5,31.7,30.34,NE,35,1.0,2.0,93,0.00,,OVC095,0.00,VWS V14.00,2013-11-20 17:18:00,
2013-11-20 09:19:00,33.9,31.8,30.34,NE,46,1.0,2.0,92,0.00,,CLR,0.00,VWS V14.00,2013-11-20 17:19:00,
2013-11-20 09:20:00,33.9,31.8,30.34,NE,46,1.0,2.0,92,0.00,,OVC095,0.00,VWS V14.00,2013-11-20 17:20:00,
2013-11-20 09:21:00,34.0,31.9,30.34,ENE,76,4.0,4.0,92,0.00,,OVC095,0.00,VWS V14.00,2013-11-20 17:21:00,
2013-11-20 09:22:00,34.1,32.0,30.35,ENE,77,1.0,4.0,92,0.00,,OVC095,0.00,VWS V14.00,2013-11-20 17:22:00,
2013-11-20 09:23:00,34.3,32.0,30.34,ENE,70,1.0,3.0,91,0.00,,OVC095,0.00,VWS V14.00,2013-11-20 17:23:00,
2013-11-20 09:24:00,34.5,31.9,30.35,ENE,70,2.0,2.0,90,0.00,,CLR,0.00,VWS V14.00,2013-11-20 17:24:00,
2013-11-20 09:25:00,34.5,31.9,30.35,ENE,70,2.0,2.0,90,0.00,,OVC095,0.00,VWS V14.00,2013-11-20 17:25:00,
2013-11-20 09:26:00,34.7,32.1,30.35,NE,50,0.0,4.0,90,0.00,,OVC095,0.00,VWS V14.00,2013-11-20 17:26:00,
2013-11-20 09:27:00,34.8,32.2,30.35,NE,51,2.0,2.0,90,0.00,,OVC095,0.00,VWS V14.00,2013-11-20 17:27:00,
2013-11-20 09:28:00,34.8,31.9,30.35,ENE,76,4.0,5.0,89,0.00,,OVC095,0.00,VWS V14.00,2013-11-20 17:28:00,
2013-11-20 09:29:00,35.0,32.1,30.35,ENE,68,4.0,5.0,89,0.00,,CLR,0.00,VWS V14.00,2013-11-20 17:29:00,
2013-11-20 09:30:00,35.0,31.8,30.35,ENE,63,3.0,5.0,88,0.00,,OVC095,0.00,VWS V14.00,2013-11-20 17:30:00,
2013-11-20 09:31:00,35.1,31.9,30.35,ENE,65,1.0,3.0,88,0.00,,OVC095,0.00,VWS V14.00,2013-11-20 17:31:00,
2013-11-20 09:32:00,35.2,32.0,30.35,ENE,65,3.0,3.0,88,0.00,,OVC095,0.00,VWS V14.00,2013-11-20 17:32:00,
2013-11-20 09:33:00,35.3,32.1,30.35,ENE,65,2.0,3.0,88,0.00,,OVC095,0.00,VWS V14.00,2013-11-20 17:33:00,
2013-11-20 09:34:00,35.3,32.1,30.35,ENE,65,1.0,2.0,88,0.00,,CLR,0.00,VWS V14.00,2013-11-20 17:34:00,
2013-11-20 09:35:00,35.4,32.2,30.35,ENE,65,2.0,2.0,88,0.00,,OVC095,0.00,VWS V14.00,2013-11-20 17:35:00,
2013-11-20 09:36:00,35.5,32.0,30.35,ENE,65,3.0,4.0,87,0.00,,OVC095,0.00,VWS V14.00,2013-11-20 17:36:00,
2013-11-20 09:37:00,35.6,32.1,30.35,ENE,65,3.0,3.0,87,0.00,,OVC095,0.00,VWS V14.00,2013-11-20 17:37:00,
2013-11-20 09:38:00,35.7,32.2,30.35,ENE,65,2.0,3.0,87,0.00,,OVC095,0.00,VWS V14.00,2013-11-20 17:38:00,
2013-11-20 09:39:00,35.8,32.0,30.35,ENE,70,2.0,4.0,86,0.00,,CLR,0.00,VWS V14.00,2013-11-20 17:39:00,
2013-11-20 09:40:00,35.8,32.0,30.35,ENE,70,1.0,4.0,86,0.00,,OVC095,0.00,VWS V14.00,2013-11-20 17:40:00,
2013-11-20 09:41:00,35.9,32.1,30.35,ENE,69,3.0,3.0,86,0.00,,OVC095,0.00,VWS V14.00,2013-11-20 17:41:00,
2013-11-20 09:42:00,35.9,32.1,30.35,ENE,70,4.0,4.0,86,0.00,,OVC095,0.00,VWS V14.00,2013-11-20 17:42:00,
2013-11-20 09:43:00,36.0,31.9,30.35,ENE,67,2.0,4.0,85,0.00,,OVC095,0.00,VWS V14.00,2013-11-20 17:43:00,
2013-11-20 09:44:00,36.1,32.0,30.35,ESE,105,4.0,4.0,85,0.00,,CLR,0.00,VWS V14.00,2013-11-20 17:44:00,
2013-11-20 09:45:00,36.1,32.0,30.35,ESE,105,2.0,4.0,85,0.00,,OVC095,0.00,VWS V14.00,2013-11-20 17:45:00,
2013-11-20 09:46:00,36.1,32.0,30.35,ESE,105,1.0,2.0,85,0.00,,OVC095,0.00,VWS V14.00,2013-11-20 17:46:00,
2013-11-20 09:47:00,36.1,32.3,30.35,ESE,105,0.0,1.0,86,0.00,,OVC095,0.00,VWS V14.00,2013-11-20 17:47:00,
2013-11-20 09:48:00,36.2,32.4,30.35,ESE,105,1.0,2.0,86,0.00,,OVC095,0.00,VWS V14.00,2013-11-20 17:48:00,
2013-11-20 09:49:00,36.2,32.4,30.35,ESE,105,2.0,2.0,86,0.00,,CLR,0.00,VWS V14.00,2013-11-20 17:49:00,
2013-11-20 09:50:00,36.3,32.5,30.35,ESE,104,4.0,4.0,86,0.00,,OVC095,0.00,VWS V14.00,2013-11-20 17:50:00,
2013-11-20 09:51:00,36.3,32.2,30.35,East,98,2.0,4.0,85,0.00,,OVC095,0.00,VWS V14.00,2013-11-20 17:51:00,
2013-11-20 09:52:00,36.4,32.3,30.36,NE,37,2.0,5.0,85,0.00,,OVC095,0.00,VWS V14.00,2013-11-20 17:52:00,
2013-11-20 09:53:00,36.5,32.4,30.35,NE,38,0.0,2.0,85,0.00,,OVC095,0.00,VWS V14.00,2013-11-20 17:53:00,
2013-11-20 09:54:00,36.6,32.5,30.35,NE,38,1.0,1.0,85,0.00,,CLR,0.00,VWS V14.00,2013-11-20 17:54:00,
2013-11-20 09:55:00,36.6,32.5,30.35,ENE,66,4.0,5.0,85,0.00,,OVC095,0.00,VWS V14.00,2013-11-20 17:55:00,
2013-11-20 09:56:00,36.7,32.6,30.35,NE,52,2.0,4.0,85,0.00,,OVC095,0.00,VWS V14.00,2013-11-20 17:56:00,
2013-11-20 09:57:00,36.7,32.6,30.35,ENE,74,3.0,5.0,85,0.00,,OVC095,0.00,VWS V14.00,2013-11-20 17:57:00,
2013-11-20 09:58:00,36.6,32.5,30.35,ENE,74,3.0,4.0,85,0.00,,OVC095,0.00,VWS V14.00,2013-11-20 17:58:00,
2013-11-20 09:59:00,36.7,32.3,30.35,ENE,74,2.0,3.0,84,0.00,,CLR,0.00,VWS V14.00,2013-11-20 17:59:00,
2013-11-20 10:00:00,36.7,32.3,30.35,ENE,74,2.0,3.0,84,0.00,,OVC095,0.00,VWS V14.00,2013-11-20 18:00:00,
2013-11-20 10:01:00,36.9,32.5,30.35,ENE,74,2.0,3.0,84,0.00,,OVC095,0.00,VWS V14.00,2013-11-20 18:01:00,
2013-11-20 10:02:00,36.9,32.5,30.35,ENE,74,0.0,3.0,84,0.00,,OVC095,0.00,VWS V14.00,2013-11-20 18:02:00,
2013-11-20 10:03:00,36.9,32.2,30.35,ENE,74,1.0,2.0,83,0.00,,OVC095,0.00,VWS V14.00,2013-11-20 18:03:00,
2013-11-20 10:04:00,36.9,32.5,30.35,East,86,3.0,3.0,84,0.00,,CLR,0.00,VWS V14.00,2013-11-20 18:04:00,
2013-11-20 10:05:00,36.9,32.5,30.35,East,86,3.0,3.0,84,0.00,,OVC095,0.00,VWS V14.00,2013-11-20 18:05:00,
2013-11-20 10:06:00,36.9,32.5,30.35,SE,140,2.0,5.0,84,0.00,,OVC095,0.00,VWS V14.00,2013-11-20 18:06:00,
2013-11-20 10:09:00,37.1,32.7,30.35,East,92,2.0,5.0,84,0.00,,CLR,0.00,VWS V14.00,2013-11-20 18:09:00,
2013-11-20 10:10:00,37.1,32.4,30.35,East,92,5.0,5.0,83,0.00,,OVC095,0.00,VWS V14.00,2013-11-20 18:10:00,
2013-11-20 10:11:00,37.1,32.4,30.36,East,92,0.0,5.0,83,0.00,,OVC095,0.00,VWS V14.00,2013-11-20 18:11:00,
2013-11-20 10:12:00,37.2,32.8,30.36,East,92,1.0,4.0,84,0.00,,OVC095,0.00,VWS V14.00,2013-11-20 18:12:00,
2013-11-20 10:13:00,37.2,32.8,30.36,ENE,62,2.0,3.0,84,0.00,,OVC095,0.00,VWS V14.00,2013-11-20 18:13:00,
2013-11-20 10:14:00,37.3,32.9,30.36,ENE,63,2.0,3.0,84,0.00,,CLR,0.00,VWS V14.00,2013-11-20 18:14:00,
2013-11-20 10:15:00,37.3,32.9,30.36,East,91,4.0,4.0,84,0.00,,OVC095,0.00,VWS V14.00,2013-11-20 18:15:00,
2013-11-20 10:16:00,37.3,32.6,30.36,East,96,1.0,5.0,83,0.00,,OVC095,0.00,VWS V14.00,2013-11-20 18:16:00,
2013-11-20 10:17:00,37.3,32.6,30.36,NE,56,6.0,6.0,83,0.00,,OVC095,0.00,VWS V14.00,2013-11-20 18:17:00,
2013-11-20 10:18:00,37.3,32.6,30.36,ENE,73,3.0,6.0,83,0.00,,OVC095,0.00,VWS V14.00,2013-11-20 18:18:00,
2013-11-20 10:19:00,37.4,32.7,30.36,NE,55,3.0,3.0,83,0.00,,CLR,0.00,VWS V14.00,2013-11-20 18:19:00,
2013-11-20 10:20:00,37.4,32.7,30.36,ENE,69,4.0,4.0,83,0.00,,OVC095,0.00,VWS V14.00,2013-11-20 18:20:00,
2013-11-20 10:21:00,37.4,32.7,30.35,East,92,6.0,6.0,83,0.00,,OVC095,0.00,VWS V14.00,2013-11-20 18:21:00,
2013-11-20 10:22:00,37.5,32.5,30.36,East,85,6.0,7.0,82,0.00,,OVC095,0.00,VWS V14.00,2013-11-20 18:22:00,
2013-11-20 10:23:00,37.5,32.2,30.36,ENE,61,3.0,6.0,81,0.00,,OVC095,0.00,VWS V14.00,2013-11-20 18:23:00,
2013-11-20 10:24:00,37.6,32.6,30.36,East,80,4.0,4.0,82,0.00,,CLR,0.00,VWS V14.00,2013-11-20 18:24:00,
2013-11-20 10:25:00,37.6,32.6,30.36,East,88,4.0,5.0,82,0.00,,OVC095,0.00,VWS V14.00,2013-11-20 18:25:00,
2013-11-20 10:26:00,37.6,32.6,30.36,East,86,2.0,6.0,82,0.00,,OVC095,0.00,VWS V14.00,2013-11-20 18:26:00,
2013-11-20 10:27:00,37.6,32.6,30.36,ENE,63,3.0,6.0,82,0.00,,OVC095,0.00,VWS V14.00,2013-11-20 18:27:00,
2013-11-20 10:28:00,37.7,32.7,30.36,East,82,3.0,5.0,82,0.00,,OVC095,0.00,VWS V14.00,2013-11-20 18:28:00,
2013-11-20 10:29:00,37.8,32.5,30.36,NE,44,3.0,3.0,81,0.00,,CLR,0.00,VWS V14.00,2013-11-20 18:29:00,
2013-11-20 10:30:00,37.8,32.5,30.36,NE,44,3.0,3.0,81,0.00,,OVC095,0.00,VWS V14.00,2013-11-20 18:30:00,
2013-11-20 10:31:00,37.9,32.6,30.36,East,88,4.0,5.0,81,0.00,,OVC095,0.00,VWS V14.00,2013-11-20 18:31:00,
2013-11-20 10:32:00,38.0,32.7,30.36,East,91,1.0,4.0,81,0.00,,OVC095,0.00,VWS V14.00,2013-11-20 18:32:00,
2013-11-20 10:33:00,38.0,32.7,30.36,ENE,67,3.0,4.0,81,0.00,,OVC095,0.00,VWS V14.00,2013-11-20 18:33:00,
2013-11-20 10:34:00,38.2,32.9,30.36,East,82,3.0,4.0,81,0.00,,CLR,0.00,VWS V14.00,2013-11-20 18:34:00,
2013-11-20 10:35:00,38.2,33.2,30.36,ENE,78,2.0,4.0,82,0.00,,OVC095,0.00,VWS V14.00,2013-11-20 18:35:00,
2013-11-20 10:36:00,38.2,32.9,30.37,ENE,78,3.0,3.0,81,0.00,,OVC095,0.00,VWS V14.00,2013-11-20 18:36:00,
2013-11-20 10:37:00,38.1,32.8,30.37,East,87,2.0,5.0,81,0.00,,OVC095,0.00,VWS V14.00,2013-11-20 18:37:00,
2013-11-20 10:38:00,38.0,32.7,30.37,East,87,2.0,2.0,81,0.00,,OVC095,0.00,VWS V14.00,2013-11-20 18:38:00,
2013-11-20 10:39:00,38.0,33.0,30.37,East,87,0.0,2.0,82,0.00,,CLR,0.00,VWS V14.00,2013-11-20 18:39:00,
2013-11-20 10:40:00,38.0,33.0,30.37,NE,48,2.0,4.0,82,0.00,,OVC095,0.00,VWS V14.00,2013-11-20 18:40:00,
2013-11-20 10:41:00,37.9,32.9,30.37,NE,48,1.0,2.0,82,0.00,,OVC095,0.00,VWS V14.00,2013-11-20 18:41:00,
2013-11-20 10:42:00,38.0,33.0,30.37,ENE,65,3.0,3.0,82,0.00,,OVC095,0.00,VWS V14.00,2013-11-20 18:42:00,
2013-11-20 10:43:00,38.0,33.0,30.37,ENE,74,1.0,3.0,82,0.00,,OVC095,0.00,VWS V14.00,2013-11-20 18:43:00,
2013-11-20 10:44:00,38.0,33.0,30.36,ENE,74,1.0,3.0,82,0.00,,CLR,0.00,VWS V14.00,2013-11-20 18:44:00,
2013-11-20 10:45:00,38.0,33.0,30.36,ENE,74,1.0,3.0,82,0.00,,OVC095,0.00,VWS V14.00,2013-11-20 18:45:00,
2013-11-20 10:46:00,38.1,33.1,30.36,ENE,74,1.0,3.0,82,0.00,,OVC095,0.00,VWS V14.00,2013-11-20 18:46:00,
2013-11-20 10:47:00,38.1,32.8,30.37,ENE,74,0.0,3.0,81,0.00,,OVC095,0.00,VWS V14.00,2013-11-20 18:47:00,
2013-11-20 10:48:00,38.3,33.3,30.37,ENE,74,2.0,3.0,82,0.00,,OVC095,0.00,VWS V14.00,2013-11-20 18:48:00,
2013-11-20 10:49:00,38.4,33.4,30.37,ENE,74,0.0,2.0,82,0.00,,CLR,0.00,VWS V14.00,2013-11-20 18:49:00,
2013-11-20 10:50:00,38.5,33.5,30.37,ENE,74,0.0,2.0,82,0.00,,OVC095,0.00,VWS V14.00,2013-11-20 18:50:00,
2013-11-20 10:51:00,38.5,33.2,30.37,NE,56,2.0,4.0,81,0.00,,OVC095,0.00,VWS V14.00,2013-11-20 18:51:00,
2013-11-20 10:52:00,38.6,33.6,30.37,NE,56,1.0,2.0,82,0.00,,OVC095,0.00,VWS V14.00,2013-11-20 18:52:00,
2013-11-20 10:53:00,38.6,33.6,30.37,NE,56,0.0,2.0,82,0.00,,OVC095,0.00,VWS V14.00,2013-11-20 18:53:00,
2013-11-20 10:54:00,38.7,33.7,30.37,NE,56,0.0,0.0,82,0.00,,CLR,0.00,VWS V14.00,2013-11-20 18:54:00,
2013-11-20 10:55:00,38.7,33.7,30.37,NE,56,2.0,2.0,82,0.00,,OVC095,0.00,VWS V14.00,2013-11-20 18:55:00,
2013-11-20 10:56:00,38.6,33.3,30.37,NE,56,1.0,2.0,81,0.00,,OVC095,0.00,VWS V14.00,2013-11-20 18:56:00,
2013-11-20 10:57:00,38.6,33.3,30.37,NE,56,2.0,5.0,81,0.00,,OVC095,0.00,VWS V14.00,2013-11-20 18:57:00,
2013-11-20 10:58:00,38.6,33.3,30.37,NE,56,1.0,3.0,81,0.00,,OVC095,0.00,VWS V14.00,2013-11-20 18:58:00,
2013-11-20 10:59:00,38.7,33.4,30.37,NE,56,2.0,2.0,81,0.00,,CLR,0.00,VWS V14.00,2013-11-20 18:59:00,
2013-11-20 11:00:00,38.7,33.4,30.37,NE,56,2.0,3.0,81,0.00,,OVC095,0.00,VWS V14.00,2013-11-20 19:00:00,
2013-11-20 11:01:00,38.7,33.4,30.37,NE,56,2.0,4.0,81,0.00,,OVC095,0.00,VWS V14.00,2013-11-20 19:01:00,
2013-11-20 11:02:00,38.6,33.3,30.37,East,87,2.0,5.0,81,0.00,,OVC095,0.00,VWS V14.00,2013-11-20 19:02:00,
2013-11-20 11:03:00,38.6,33.0,30.37,East,87,0.0,3.0,80,0.00,,OVC095,0.00,VWS V14.00,2013-11-20 19:03:00,
2013-11-20 11:04:00,38.6,33.3,30.37,East,88,1.0,2.0,81,0.00,,CLR,0.00,VWS V14.00,2013-11-20 19:04:00,
2013-11-20 11:05:00,38.6,33.3,30.37,East,88,2.0,2.0,81,0.00,,OVC095,0.00,VWS V14.00,2013-11-20 19:05:00,
2013-11-20 11:06:00,38.6,33.3,30.37,East,88,2.0,3.0,81,0.00,,OVC095,0.00,VWS V14.00,2013-11-20 19:06:00,
2013-11-20 11:07:00,38.7,33.4,30.37,ENE,76,4.0,5.0,81,0.00,,OVC095,0.00,VWS V14.00,2013-11-20 19:07:00,
2013-11-20 11:08:00,38.8,33.2,30.37,NE,55,1.0,2.0,80,0.00,,CLR,0.00,VWS V14.00,2013-11-20 19:08:00,
2013-11-20 11:09:00,38.7,33.1,30.37,NE,55,2.0,3.0,80,0.00,,OVC095,0.00,VWS V14.00,2013-11-20 19:09:00,
2013-11-20 11:10:00,38.8,33.2,30.37,NE,55,3.0,3.0,80,0.00,,OVC095,0.00,VWS V14.00,2013-11-20 19:10:00,
2013-11-20 11:11:00,38.8,33.2,30.37,ENE,67,3.0,5.0,80,0.00,,OVC095,0.00,VWS V14.00,2013-11-20 19:11:00,
2013-11-20 11:12:00,38.8,33.2,30.37,East,86,3.0,4.0,80,0.00,,OVC095,0.00,VWS V14.00,2013-11-20 19:12:00,
2013-11-20 11:13:00,38.8,33.5,30.37,ESE,106,2.0,5.0,81,0.00,,CLR,0.00,VWS V14.00,2013-11-20 19:13:00,
2013-11-20 11:14:00,38.8,33.5,30.37,ENE,61,5.0,7.0,81,0.00,,OVC095,0.00,VWS V14.00,2013-11-20 19:14:00,
2013-11-20 11:15:00,38.8,33.2,30.37,East,89,2.0,5.0,80,0.00,,OVC095,0.00,VWS V14.00,2013-11-20 19:15:00,
2013-11-20 11:16:00,38.9,33.3,30.37,East,90,4.0,4.0,80,0.00,,OVC095,0.00,VWS V14.00,2013-11-20 19:16:00,
2013-11-20 11:17:00,38.9,33.3,30.37,East,81,5.0,6.0,80,0.00,,OVC095,0.00,VWS V14.00,2013-11-20 19:17:00,
2013-11-20 11:18:00,38.9,33.0,30.37,ENE,67,5.0,5.0,79,0.00,,CLR,0.00,VWS V14.00,2013-11-20 19:18:00,
2013-11-20 11:19:00,38.9,33.0,30.37,ENE,78,5.0,6.0,79,0.00,,OVC095,0.00,VWS V14.00,2013-11-20 19:19:00,
2013-11-20 11:20:00,38.9,33.0,30.36,NE,44,5.0,7.0,79,0.00,,OVC095,0.00,VWS V14.00,2013-11-20 19:20:00,
2013-11-20 11:21:00,39.0,33.0,30.36,ENE,58,4.0,5.0,79,0.00,,OVC095,0.00,VWS V14.00,2013-11-20 19:21:00,
2013-11-20 11:22:00,39.1,33.2,30.37,NE,42,2.0,5.0,79,0.00,,OVC095,0.00,VWS V14.00,2013-11-20 19:22:00,
2013-11-20 11:23:00,39.5,33.5,30.37,NE,49,3.0,4.0,79,0.00,,CLR,0.00,VWS V14.00,2013-11-20 19:23:00,
2013-11-20 11:24:00,39.4,33.8,30.37,ENE,57,4.0,4.0,80,0.00,,OVC095,0.00,VWS V14.00,2013-11-20 19:24:00,
2013-11-20 11:25:00,39.5,33.5,30.37,East,80,5.0,5.0,79,0.00,,OVC095,0.00,VWS V14.00,2013-11-20 19:25:00,
2013-11-20 11:26:00,39.6,33.3,30.36,NNE,32,2.0,7.0,78,0.00,,OVC095,0.00,VWS V14.00,2013-11-20 19:26:00,
2013-11-20 11:27:00,39.6,33.0,30.37,NE,35,4.0,5.0,77,0.00,,OVC095,0.00,VWS V14.00,2013-11-20 19:27:00,
2013-11-20 11:28:00,39.7,33.4,30.36,ENE,61,4.0,6.0,78,0.00,,CLR,0.00,VWS V14.00,2013-11-20 19:28:00,
2013-11-20 11:29:00,39.8,33.5,30.36,East,100,6.0,7.0,78,0.00,,OVC095,0.00,VWS V14.00,2013-11-20 19:29:00,
2013-11-20 11:30:00,39.7,33.1,30.36,East,84,7.0,7.0,77,0.00,,OVC095,0.00,VWS V14.00,2013-11-20 19:30:00,
2013-11-20 11:31:00,39.6,33.0,30.36,East,83,2.0,7.0,77,0.00,,OVC095,0.00,VWS V14.00,2013-11-20 19:31:00,
2013-11-20 11:32:00,39.6,33.0,30.36,NE,34,6.0,7.0,77,0.00,,OVC095,0.00,VWS V14.00,2013-11-20 19:32:00,
2013-11-20 11:33:00,39.8,33.2,30.36,NE,40,4.0,4.0,77,0.00,,CLR,0.00,VWS V14.00,2013-11-20 19:33:00,
2013-11-20 11:34:00,39.7,33.1,30.36,ENE,61,2.0,5.0,77,0.00,,OVC095,0.00,VWS V14.00,2013-11-20 19:34:00,
2013-11-20 11:35:00,39.9,33.6,30.36,NE,47,3.0,6.0,78,0.00,,OVC095,0.00,VWS V14.00,2013-11-20 19:35:00,
2013-11-20 11:36:00,40.0,33.4,30.36,ENE,75,4.0,5.0,77,0.00,,OVC095,0.00,VWS V14.00,2013-11-20 19:36:00,
2013-11-20 11:37:00,40.1,33.5,30.36,NE,53,4.0,6.0,77,0.00,,OVC095,0.00,VWS V14.00,2013-11-20 19:37:00,
2013-11-20 11:38:00,40.3,33.3,30.36,NE,38,3.0,4.0,76,0.00,,CLR,0.00,VWS V14.00,2013-11-20 19:38:00,
2013-11-20 11:39:00,40.3,33.3,30.36,ENE,77,1.0,6.0,76,0.00,,OVC095,0.00,VWS V14.00,2013-11-20 19:39:00,
2013-11-20 11:40:00,40.4,33.5,30.36,North,11,2.0,6.0,76,0.00,,OVC095,0.00,VWS V14.00,2013-11-20 19:40:00,
2013-11-20 11:41:00,40.6,33.6,30.36,ENE,69,5.0,5.0,76,0.00,,OVC095,0.00,VWS V14.00,2013-11-20 19:41:00,
2013-11-20 11:42:00,40.6,33.3,30.37,NNE,29,2.0,7.0,75,0.00,,OVC095,0.00,VWS V14.00,2013-11-20 19:42:00,
2013-11-20 11:43:00,40.7,32.7,30.37,NE,42,5.0,5.0,73,0.00,,CLR,0.00,VWS V14.00,2013-11-20 19:43:00,
2013-11-20 11:44:00,40.7,32.7,30.37,NE,49,2.0,8.0,73,0.00,,OVC095,0.00,VWS V14.00,2013-11-20 19:44:00,
2013-11-20 11:45:00,40.6,32.3,30.37,ENE,72,2.0,5.0,72,0.00,,OVC095,0.00,VWS V14.00,2013-11-20 19:45:00,
2013-11-20 11:46:00,40.6,33.0,30.36,NE,47,7.0,7.0,74,0.00,,OVC095,0.00,VWS V14.00,2013-11-20 19:46:00,
2013-11-20 11:47:00,40.7,33.1,30.36,NE,45,4.0,9.0,74,0.00,,OVC095,0.00,VWS V14.00,2013-11-20 19:47:00,
2013-11-20 11:48:00,40.8,32.8,30.37,NE,53,4.0,5.0,73,0.00,,CLR,0.00,VWS V14.00,2013-11-20 19:48:00,
2013-11-20 11:49:00,40.9,33.3,30.37,East,83,2.0,10.0,74,0.00,,OVC095,0.00,VWS V14.00,2013-11-20 19:49:00,
2013-11-20 11:51:00,40.9,32.6,30.36,NNE,17,6.0,8.0,72,0.00,,OVC095,0.00,VWS V14.00,2013-11-20 19:51:00,
2013-11-20 11:52:00,40.9,32.6,30.36,NNE,12,7.0,10.0,72,0.00,,OVC095,0.00,VWS V14.00,2013-11-20 19:52:00,
2013-11-20 11:53:00,41.1,33.1,30.37,NNE,28,6.0,7.0,73,0.00,,CLR,0.00,VWS V14.00,2013-11-20 19:53:00,
2013-11-20 11:54:00,41.1,33.1,30.37,NNE,22,6.0,9.0,73,0.00,,OVC095,0.00,VWS V14.00,2013-11-20 19:54:00,
2013-11-20 11:57:00,40.9,32.2,30.36,ENE,65,1.0,12.0,71,0.00,,OVC095,0.00,VWS V14.00,2013-11-20 19:57:00,
2013-11-20 11:58:00,41.3,33.0,30.36,NE,56,2.0,5.0,72,0.00,,CLR,0.00,VWS V14.00,2013-11-20 19:58:00,
2013-11-20 12:02:00,41.4,33.1,30.37,NE,35,2.0,6.0,72,0.00,,OVC095,0.00,VWS V14.00,2013-11-20 20:02:00,
2013-11-20 12:03:00,41.5,32.8,30.37,ENE,60,3.0,4.0,71,0.00,,CLR,0.00,VWS V14.00,2013-11-20 20:03:00,
2013-11-20 12:06:00,41.5,32.5,30.37,ENE,76,4.0,10.0,70,0.00,,OVC095,0.00,VWS V14.00,2013-11-20 20:06:00,
2013-11-20 12:07:00,41.3,31.5,30.37,ENE,72,4.0,6.0,68,0.00,,OVC095,0.00,VWS V14.00,2013-11-20 20:07:00,
2013-11-20 12:08:00,41.2,31.8,30.37,NE,54,2.0,2.0,69,0.00,,CLR,0.00,VWS V14.00,2013-11-20 20:08:00,
2013-11-20 12:09:00,41.2,31.8,30.37,NE,50,0.0,3.0,69,0.00,,OVC095,0.00,VWS V14.00,2013-11-20 20:09:00,
2013-11-20 12:10:00,41.4,32.4,30.37,ENE,76,2.0,6.0,70,0.00,,OVC095,0.00,VWS V14.00,2013-11-20 20:10:00,
2013-11-20 12:11:00,41.6,32.6,30.37,ENE,77,2.0,5.0,70,0.00,,OVC095,0.00,VWS V14.00,2013-11-20 20:11:00,
2013-11-20 12:12:00,41.7,32.7,30.37,NE,49,5.0,9.0,70,0.00,,OVC095,0.00,VWS V14.00,2013-11-20 20:12:00,
2013-11-20 12:13:00,41.5,31.4,30.37,ENE,63,5.0,6.0,67,0.00,,CLR,0.00,VWS V14.00,2013-11-20 20:13:00,
2013-11-20 12:14:00,41.5,31.4,30.37,ENE,63,6.0,8.0,67,0.00,,OVC095,0.00,VWS V14.00,2013-11-20 20:14:00,
2013-11-20 12:15:00,41.5,31.4,30.37,East,82,8.0,10.0,67,0.00,,OVC095,0.00,VWS V14.00,2013-11-20 20:15:00,
2013-11-20 12:16:00,41.5,31.4,30.37,NE,46,6.0,8.0,67,0.00,,OVC095,0.00,VWS V14.00,2013-11-20 20:16:00,
2013-11-20 12:17:00,41.5,31.4,30.37,ENE,59,6.0,7.0,67,0.00,,OVC095,0.00,VWS V14.00,2013-11-20 20:17:00,
2013-11-20 12:18:00,41.4,30.9,30.37,NE,51,3.0,5.0,66,0.00,,CLR,0.00,VWS V14.00,2013-11-20 20:18:00,
2013-11-20 12:19:00,41.4,30.9,30.37,NNE,25,5.0,6.0,66,0.00,,OVC095,0.00,VWS V14.00,2013-11-20 20:19:00,
2013-11-20 12:20:00,41.3,30.8,30.37,ENE,71,4.0,11.0,66,0.00,,OVC095,0.00,VWS V14.00,2013-11-20 20:20:00,
2013-11-20 12:21:00,41.4,30.9,30.37,NE,47,6.0,8.0,66,0.00,,OVC095,0.00,VWS V14.00,2013-11-20 20:21:00,
2013-11-20 12:22:00,41.3,30.8,30.37,NNE,31,5.0,8.0,66,0.00,,OVC095,0.00,VWS V14.00,2013-11-20 20:22:00,
2013-11-20 12:23:00,41.3,30.8,30.37,NNE,26,13.0,13.0,66,0.00,,CLR,0.00,VWS V14.00,2013-11-20 20:23:00,
2013-11-20 12:24:00,41.3,30.8,30.37,NNE,27,9.0,9.0,66,0.00,,OVC095,0.00,VWS V14.00,2013-11-20 20:24:00,
2013-11-20 12:25:00,41.3,30.4,30.37,ENE,74,1.0,13.0,65,0.00,,OVC095,0.00,VWS V14.00,2013-11-20 20:25:00,
2013-11-20 12:26:00,41.5,31.0,30.37,NE,51,5.0,8.0,66,0.00,,OVC095,0.00,VWS V14.00,2013-11-20 20:26:00,
2013-11-20 12:27:00,41.6,30.7,30.37,ENE,72,2.0,10.0,65,0.00,,OVC095,0.00,VWS V14.00,2013-11-20 20:27:00,
2013-11-20 12:28:00,41.5,30.2,30.37,ENE,71,6.0,6.0,64,0.00,,CLR,0.00,VWS V14.00,2013-11-20 20:28:00,
2013-11-20 12:29:00,41.5,30.2,30.37,ENE,73,4.0,14.0,64,0.00,,OVC095,0.00,VWS V14.00,2013-11-20 20:29:00,
2013-11-20 12:30:00,41.5,29.9,30.37,ENE,70,6.0,8.0,63,0.00,,OVC095,0.00,VWS V14.00,2013-11-20 20:30:00,
2013-11-20 12:31:00,41.5,29.9,30.37,NE,55,4.0,11.0,63,0.00,,OVC095,0.00,VWS V14.00,2013-11-20 20:31:00,
2013-11-20 12:32:00,41.5,29.5,30.37,NE,40,8.0,8.0,62,0.00,,OVC095,0.00,VWS V14.00,2013-11-20 20:32:00,
2013-11-20 12:33:00,41.4,29.4,30.37,ENE,74,6.0,9.0,62,0.00,,CLR,0.00,VWS V14.00,2013-11-20 20:33:00,
2013-11-20 12:34:00,41.4,29.4,30.37,East,99,9.0,11.0,62,0.00,,OVC095,0.00,VWS V14.00,2013-11-20 20:34:00,
2013-11-20 12:35:00,41.5,29.5,30.36,NE,49,6.0,10.0,62,0.00,,OVC095,0.00,VWS V14.00,2013-11-20 20:35:00,
2013-11-20 12:36:00,41.5,29.9,30.36,ENE,60,10.0,11.0,63,0.00,,OVC095,0.00,VWS V14.00,2013-11-20 20:36:00,
2013-11-20 12:37:00,41.5,29.5,30.36,East,85,8.0,13.0,62,0.00,,OVC095,0.00,VWS V14.00,2013-11-20 20:37:00,
2013-11-20 12:38:00,41.6,29.6,30.37,East,82,8.0,11.0,62,0.00,,CLR,0.00,VWS V14.00,2013-11-20 20:38:00,
2013-11-20 12:39:00,41.6,29.6,30.37,ENE,75,10.0,13.0,62,0.00,,OVC095,0.00,VWS V14.00,2013-11-20 20:39:00,
2013-11-20 12:40:00,41.7,30.0,30.37,East,90,5.0,11.0,63,0.00,,OVC095,0.00,VWS V14.00,2013-11-20 20:40:00,
2013-11-20 12:41:00,41.8,30.1,30.37,NE,44,6.0,8.0,63,0.00,,OVC095,0.00,VWS V14.00,2013-11-20 20:41:00,
2013-11-20 12:42:00,41.9,30.2,30.37,NE,46,3.0,7.0,63,0.00,,OVC095,0.00,VWS V14.00,2013-11-20 20:42:00,
2013-11-20 12:43:00,42.0,29.9,30.37,NE,48,2.0,2.0,62,0.00,,CLR,0.00,VWS V14.00,2013-11-20 20:43:00,
2013-11-20 12:44:00,42.0,29.9,30.37,NE,47,2.0,8.0,62,0.00,,OVC095,0.00,VWS V14.00,2013-11-20 20:44:00,
2013-11-20 12:45:00,42.0,29.9,30.37,ENE,70,5.0,8.0,62,0.00,,OVC095,0.00,VWS V14.00,2013-11-20 20:45:00,
2013-11-20 12:46:00,42.0,29.5,30.37,ENE,57,1.0,5.0,61,0.00,,OVC095,0.00,VWS V14.00,2013-11-20 20:46:00,
2013-11-20 12:47:00,42.1,30.0,30.37,ENE,64,6.0,7.0,62,0.00,,OVC095,0.00,VWS V14.00,2013-11-20 20:47:00,
2013-11-20 12:48:00,42.0,29.5,30.37,ENE,61,6.0,6.0,61,0.00,,CLR,0.00,VWS V14.00,2013-11-20 20:48:00,
2013-11-20 12:49:00,42.0,29.5,30.37,ENE,66,6.0,9.0,61,0.00,,OVC095,0.00,VWS V14.00,2013-11-20 20:49:00,
2013-11-20 12:50:00,42.0,29.5,30.37,ENE,71,2.0,7.0,61,0.00,,OVC095,0.00,VWS V14.00,2013-11-20 20:50:00,
2013-11-20 12:51:00,42.1,30.0,30.37,ENE,78,4.0,7.0,62,0.00,,OVC095,0.00,VWS V14.00,2013-11-20 20:51:00,
2013-11-20 12:52:00,42.1,30.0,30.37,ENE,57,4.0,7.0,62,0.00,,OVC095,0.00,VWS V14.00,2013-11-20 20:52:00,
2013-11-20 12:53:00,42.1,29.6,30.37,ENE,74,3.0,4.0,61,0.00,,CLR,0.00,VWS V14.00,2013-11-20 20:53:00,
2013-11-20 12:54:00,42.1,29.6,30.37,ENE,73,4.0,11.0,61,0.00,,OVC095,0.00,VWS V14.00,2013-11-20 20:54:00,
2013-11-20 12:55:00,42.2,30.1,30.37,ENE,57,5.0,8.0,62,0.00,,OVC095,0.00,VWS V14.00,2013-11-20 20:55:00,
2013-11-20 12:56:00,42.2,30.1,30.37,NE,46,3.0,5.0,62,0.00,,OVC095,0.00,VWS V14.00,2013-11-20 20:56:00,
2013-11-20 12:57:00,42.4,30.7,30.37,ENE,57,3.0,5.0,63,0.00,,OVC095,0.00,VWS V14.00,2013-11-20 20:57:00,
2013-11-20 12:58:00,42.4,29.9,30.37,NE,53,2.0,8.0,61,0.00,,CLR,0.00,VWS V14.00,2013-11-20 20:58:00,
2013-11-20 12:59:00,42.4,29.9,30.37,NE,53,2.0,8.0,61,0.00,,OVC095,0.00,VWS V14.00,2013-11-20 20:59:00,
2013-11-20 13:00:00,42.4,29.9,30.36,East,86,6.0,10.0,61,0.00,,OVC095,0.00,VWS V14.00,2013-11-20 21:00:00,
2013-11-20 13:01:00,42.4,29.9,30.36,NNE,13,8.0,9.0,61,0.00,,OVC095,0.00,VWS V14.00,2013-11-20 21:01:00,
2013-11-20 13:02:00,42.4,29.5,30.36,ENE,67,3.0,9.0,60,0.00,,OVC095,0.00,VWS V14.00,2013-11-20 21:02:00,
2013-11-20 13:03:00,42.4,29.5,30.37,NE,51,7.0,8.0,60,0.00,,CLR,0.00,VWS V14.00,2013-11-20 21:03:00,
2013-11-20 13:04:00,42.4,29.5,30.37,NE,51,7.0,8.0,60,0.00,,OVC095,0.00,VWS V14.00,2013-11-20 21:04:00,
2013-11-20 13:05:00,42.3,29.4,30.37,NNE,26,5.0,9.0,60,0.00,,OVC095,0.00,VWS V14.00,2013-11-20 21:05:00,
2013-11-20 13:06:00,42.3,29.4,30.37,NE,55,7.0,9.0,60,0.00,,OVC095,0.00,VWS V14.00,2013-11-20 21:06:00,
2013-11-20 13:07:00,42.3,29.4,30.37,East,86,6.0,11.0,60,0.00,,OVC095,0.00,VWS V14.00,2013-11-20 21:07:00,
2013-11-20 13:08:00,42.3,29.8,30.37,East,80,6.0,7.0,61,0.00,,CLR,0.00,VWS V14.00,2013-11-20 21:08:00,
2013-11-20 13:09:00,42.3,29.8,30.37,East,80,6.0,7.0,61,0.00,,OVC095,0.00,VWS V14.00,2013-11-20 21:09:00,
2013-11-20 13:10:00,42.4,29.5,30.37,NE,41,5.0,8.0,60,0.00,,OVC095,0.00,VWS V14.00,2013-11-20 21:10:00,
2013-11-20 13:11:00,42.3,29.4,30.37,ENE,67,7.0,8.0,60,0.00,,OVC095,0.00,VWS V14.00,2013-11-20 21:11:00,
2013-11-20 13:12:00,42.3,29.4,30.37,ENE,78,5.0,11.0,60,0.00,,OVC095,0.00,VWS V14.00,2013-11-20 21:12:00,
2013-11-20 13:13:00,42.3,29.8,30.37,NNW,338,4.0,8.0,61,0.00,,CLR,0.00,VWS V14.00,2013-11-20 21:13:00,
2013-11-20 13:14:00,42.3,29.8,30.37,NNW,338,4.0,8.0,61,0.00,,OVC095,0.00,VWS V14.00,2013-11-20 21:14:00,
2013-11-20 13:15:00,42.5,30.0,30.37,ENE,58,4.0,5.0,61,0.00,,OVC095,0.00,VWS V14.00,2013-11-20 21:15:00,
2013-11-20 13:16:00,42.7,30.6,30.37,ENE,67,10.0,10.0,62,0.00,,OVC095,0.00,VWS V14.00,2013-11-20 21:16:00,
2013-11-20 13:17:00,42.8,30.3,30.37,NE,50,6.0,10.0,61,0.00,,OVC095,0.00,VWS V14.00,2013-11-20 21:17:00,
2013-11-20 13:18:00,42.9,30.0,30.37,North,9,9.0,11.0,60,0.00,,CLR,0.00,VWS V14.00,2013-11-20 21:18:00,
2013-11-20 13:19:00,42.9,30.0,30.37,North,9,9.0,11.0,60,0.00,,OVC095,0.00,VWS V14.00,2013-11-20 21:19:00,
2013-11-20 13:20:00,42.9,30.0,30.37,North,9,9.0,9.0,60,0.00,,OVC095,0.00,VWS V14.00,2013-11-20 21:20:00,
2013-11-20 13:21:00,42.9,30.0,30.37,North,9,9.0,9.0,60,0.00,,OVC095,0.00,VWS V14.00,2013-11-20 21:21:00,
2013-11-20 13:22:00,42.6,29.7,30.37,East,80,3.0,9.0,60,0.00,,OVC095,0.00,VWS V14.00,2013-11-20 21:22:00,
2013-11-20 13:23:00,42.8,30.3,30.37,North,10,6.0,7.0,61,0.00,,CLR,0.00,VWS V14.00,2013-11-20 21:23:00,
2013-11-20 13:24:00,42.8,30.3,30.36,NNE,31,7.0,7.0,61,0.00,,OVC095,0.00,VWS V14.00,2013-11-20 21:24:00,
2013-11-20 13:25:00,42.8,29.9,30.36,NNE,31,6.0,8.0,60,0.00,,OVC095,0.00,VWS V14.00,2013-11-20 21:25:00,
2013-11-20 13:26:00,42.7,29.8,30.36,NNE,15,7.0,9.0,60,0.00,,OVC095,0.00,VWS V14.00,2013-11-20 21:26:00,
2013-11-20 13:27:00,42.8,30.3,30.37,NE,56,3.0,7.0,61,0.00,,OVC095,0.00,VWS V14.00,2013-11-20 21:27:00,
2013-11-20 13:28:00,42.9,30.4,30.37,North,11,1.0,6.0,61,0.00,,CLR,0.00,VWS V14.00,2013-11-20 21:28:00,
2013-11-20 13:29:00,43.0,30.5,30.37,North,11,2.0,6.0,61,0.00,,OVC095,0.00,VWS V14.00,2013-11-20 21:29:00,
2013-11-20 13:30:00,43.2,30.7,30.37,ENE,62,3.0,7.0,61,0.00,,OVC095,0.00,VWS V14.00,2013-11-20 21:30:00,
2013-11-20 13:31:00,43.4,31.3,30.37,North,9,6.0,9.0,62,0.00,,OVC095,0.00,VWS V14.00,2013-11-20 21:31:00,
2013-11-20 13:32:00,43.5,31.0,30.37,NE,51,5.0,7.0,61,0.00,,OVC095,0.00,VWS V14.00,2013-11-20 21:32:00,
2013-11-20 13:33:00,43.4,30.5,30.37,NNE,24,6.0,9.0,60,0.00,,CLR,0.00,VWS V14.00,2013-11-20 21:33:00,
2013-11-20 13:34:00,43.4,30.5,30.37,NE,38,8.0,9.0,60,0.00,,OVC095,0.00,VWS V14.00,2013-11-20 21:34:00,
2013-11-20 13:36:00,43.3,30.8,30.37,NE,49,6.0,9.0,61,0.00,,OVC095,0.00,VWS V14.00,2013-11-20 21:36:00,
2013-11-20 13:37:00,43.2,30.3,30.37,ENE,63,1.0,10.0,60,0.00,,OVC095,0.00,VWS V14.00,2013-11-20 21:37:00,
2013-11-20 13:38:00,43.2,30.3,30.37,East,92,9.0,9.0,60,0.00,,CLR,0.00,VWS V14.00,2013-11-20 21:38:00,
2013-11-20 13:39:00,43.2,30.3,30.37,East,83,6.0,9.0,60,0.00,,OVC095,0.00,VWS V14.00,2013-11-20 21:39:00,
2013-11-20 13:40:00,43.1,29.8,30.37,ENE,76,2.0,8.0,59,0.00,,OVC095,0.00,VWS V14.00,2013-11-20 21:40:00,
2013-11-20 13:41:00,43.1,30.2,30.37,ENE,72,4.0,7.0,60,0.00,,OVC095,0.00,VWS V14.00,2013-11-20 21:41:00,
2013-11-20 13:42:00,43.1,30.2,30.37,ENE,69,7.0,10.0,60,0.01,,OVC095,0.01,VWS V14.00,2013-11-20 21:42:00,
2013-11-20 13:43:00,43.1,30.6,30.37,East,82,3.0,10.0,61,0.01,,CLR,0.01,VWS V14.00,2013-11-20 21:43:00,
2013-11-20 13:44:00,43.1,30.6,30.37,East,82,4.0,10.0,61,0.01,,OVC095,0.01,VWS V14.00,2013-11-20 21:44:00,
2013-11-20 13:45:00,43.2,30.7,30.37,ENE,73,5.0,13.0,61,0.01,,OVC095,0.01,VWS V14.00,2013-11-20 21:45:00,
2013-11-20 13:46:00,43.1,30.6,30.37,ENE,61,7.0,9.0,61,0.01,,OVC095,0.01,VWS V14.00,2013-11-20 21:46:00,
2013-11-20 13:48:00,42.7,30.2,30.37,East,79,5.0,9.0,61,0.01,,CLR,0.01,VWS V14.00,2013-11-20 21:48:00,
2013-11-20 13:49:00,42.7,30.2,30.37,ENE,67,8.0,9.0,61,0.01,,OVC095,0.01,VWS V14.00,2013-11-20 21:49:00,
2013-11-20 13:50:00,42.7,30.2,30.37,NNE,26,5.0,11.0,61,0.01,,OVC095,0.01,VWS V14.00,2013-11-20 21:50:00,
2013-11-20 13:51:00,42.6,30.5,30.37,East,92,5.0,11.0,62,0.01,,OVC095,0.01,VWS V14.00,2013-11-20 21:51:00,
2013-11-20 13:52:00,42.6,30.1,30.37,NE,45,7.0,7.0,61,0.01,,OVC095,0.01,VWS V14.00,2013-11-20 21:52:00,
2013-11-20 13:53:00,42.6,30.5,30.37,ENE,69,6.0,7.0,62,0.01,,CLR,0.01,VWS V14.00,2013-11-20 21:53:00,
2013-11-20 13:54:00,42.6,30.5,30.37,NNE,29,7.0,7.0,62,0.01,,OVC095,0.01,VWS V14.00,2013-11-20 21:54:00,
2013-11-20 13:55:00,42.6,30.5,30.37,NNE,24,3.0,7.0,62,0.01,,OVC095,0.01,VWS V14.00,2013-11-20 21:55:00,
2013-11-20 13:56:00,42.7,30.6,30.37,NE,48,4.0,5.0,62,0.01,,OVC095,0.01,VWS V14.00,2013-11-20 21:56:00,
2013-11-20 13:57:00,42.8,30.7,30.37,North,5,5.0,7.0,62,0.01,,OVC095,0.01,VWS V14.00,2013-11-20 21:57:00,
2013-11-20 13:58:00,42.8,30.7,30.37,NE,40,6.0,10.0,62,0.01,,CLR,0.01,VWS V14.00,2013-11-20 21:58:00,
2013-11-20 13:59:00,42.8,30.7,30.37,NNE,22,7.0,10.0,62,0.01,,OVC095,0.01,VWS V14.00,2013-11-20 21:59:00,
2013-11-20 14:00:00,42.8,30.7,30.37,NE,55,4.0,7.0,62,0.01,,OVC095,0.01,VWS V14.00,2013-11-20 22:00:00,
2013-11-20 14:01:00,42.9,30.8,30.37,NNE,29,5.0,8.0,62,0.01,,OVC095,0.01,VWS V14.00,2013-11-20 22:01:00,
2013-11-20 14:02:00,42.9,30.8,30.37,NNE,28,6.0,8.0,62,0.01,,OVC095,0.01,VWS V14.00,2013-11-20 22:02:00,
2013-11-20 14:03:00,43.2,31.1,30.37,ENE,73,3.0,4.0,62,0.01,,CLR,0.01,VWS V14.00,2013-11-20 22:03:00,
2013-11-20 14:04:00,43.2,31.1,30.37,ENE,73,2.0,4.0,62,0.01,,OVC095,0.01,VWS V14.00,2013-11-20 22:04:00,
2013-11-20 14:05:00,43.3,31.6,30.37,ENE,78,2.0,5.0,63,0.01,,OVC095,0.01,VWS V14.00,2013-11-20 22:05:00,
2013-11-20 14:06:00,43.5,32.2,30.37,ENE,77,1.0,2.0,64,0.01,,OVC095,0.01,VWS V14.00,2013-11-20 22:06:00,
2013-11-20 14:07:00,43.7,31.9,30.37,NNE,23,4.0,6.0,63,0.01,,OVC095,0.01,VWS V14.00,2013-11-20 22:07:00,
2013-11-20 14:08:00,43.5,31.4,30.37,NE,38,6.0,10.0,62,0.01,,CLR,0.01,VWS V14.00,2013-11-20 22:08:00,
2013-11-20 14:09:00,43.5,31.4,30.37,ENE,66,6.0,10.0,62,0.01,,OVC095,0.01,VWS V14.00,2013-11-20 22:09:00,
2013-11-20 14:10:00,43.3,31.2,30.37,East,99,5.0,8.0,62,0.01,,OVC095,0.01,VWS V14.00,2013-11-20 22:10:00,
2013-11-20 14:11:00,43.2,31.5,30.37,NNE,28,3.0,6.0,63,0.01,,OVC095,0.01,VWS V14.00,2013-11-20 22:11:00,
2013-11-20 14:12:00,43.2,31.5,30.37,North,9,6.0,8.0,63,0.01,,OVC095,0.01,VWS V14.00,2013-11-20 22:12:00,
2013-11-20 14:13:00,43.3,32.0,30.37,North,5,4.0,6.0,64,0.01,,CLR,0.01,VWS V14.00,2013-11-20 22:13:00,
2013-11-20 14:14:00,43.3,32.0,30.37,North,349,5.0,7.0,64,0.01,,OVC095,0.01,VWS V14.00,2013-11-20 22:14:00,
2013-11-20 14:15:00,43.3,32.0,30.37,North,11,5.0,7.0,64,0.01,,OVC095,0.01,VWS V14.00,2013-11-20 22:15:00,
2013-11-20 14:16:00,43.3,31.6,30.37,ENE,63,3.0,8.0,63,0.01,,OVC095,0.01,VWS V14.00,2013-11-20 22:16:00,
2013-11-20 14:17:00,43.2,31.5,30.37,NE,40,5.0,7.0,63,0.01,,OVC095,0.01,VWS V14.00,2013-11-20 22:17:00,
2013-11-20 14:18:00,43.3,32.0,30.37,North,10,2.0,6.0,64,0.01,,CLR,0.01,VWS V14.00,2013-11-20 22:18:00,
2013-11-20 14:19:00,43.3,32.0,30.37,NNE,22,7.0,8.0,64,0.01,,OVC095,0.01,VWS V14.00,2013-11-20 22:19:00,
2013-11-20 14:20:00,43.6,32.2,30.37,ENE,65,6.0,11.0,64,0.01,,OVC095,0.01,VWS V14.00,2013-11-20 22:20:00,
2013-11-20 14:21:00,43.6,31.9,30.37,ENE,60,6.0,6.0,63,0.01,,OVC095,0.01,VWS V14.00,2013-11-20 22:21:00,
2013-11-20 14:22:00,43.5,31.4,30.37,NNE,25,7.0,7.0,62,0.01,,OVC095,0.01,VWS V14.00,2013-11-20 22:22:00,
2013-11-20 14:23:00,43.4,30.9,30.37,NE,40,5.0,8.0,61,0.01,,CLR,0.01,VWS V14.00,2013-11-20 22:23:00,
2013-11-20 14:24:00,43.4,30.9,30.37,NNE,32,5.0,8.0,61,0.01,,OVC095,0.01,VWS V14.00,2013-11-20 22:24:00,
2013-11-20 14:25:00,43.3,30.8,30.37,NE,34,1.0,6.0,61,0.01,,OVC095,0.01,VWS V14.00,2013-11-20 22:25:00,
2013-11-20 14:26:00,43.3,30.8,30.37,NE,45,6.0,7.0,61,0.01,,OVC095,0.01,VWS V14.00,2013-11-20 22:26:00,
2013-11-20 14:27:00,43.2,30.3,30.38,ENE,60,4.0,8.0,60,0.01,,OVC095,0.01,VWS V14.00,2013-11-20 22:27:00,
2013-11-20 14:28:00,43.1,30.6,30.37,ENE,63,2.0,6.0,61,0.01,,CLR,0.01,VWS V14.00,2013-11-20 22:28:00,
2013-11-20 14:29:00,43.2,30.7,30.37,NNW,342,3.0,6.0,61,0.01,,OVC095,0.01,VWS V14.00,2013-11-20 22:29:00,
2013-11-20 14:30:00,43.4,30.5,30.38,NNE,22,7.0,10.0,60,0.01,,OVC095,0.01,VWS V14.00,2013-11-20 22:30:00,
2013-11-20 14:31:00,43.5,30.1,30.37,NE,35,6.0,7.0,59,0.01,,OVC095,0.01,VWS V14.00,2013-11-20 22:31:00,
2013-11-20 14:32:00,43.6,29.8,30.37,East,80,10.0,10.0,58,0.01,,OVC095,0.01,VWS V14.00,2013-11-20 22:32:00,
2013-11-20 14:33:00,43.4,28.8,30.38,NNW,329,3.0,7.0,56,0.01,,CLR,0.01,VWS V14.00,2013-11-20 22:33:00,
2013-11-20 14:34:00,43.4,29.2,30.38,NNE,21,3.0,7.0,57,0.01,,OVC095,0.01,VWS V14.00,2013-11-20 22:34:00,
2013-11-20 14:35:00,43.5,29.3,30.38,North,360,6.0,8.0,57,0.01,,OVC095,0.01,VWS V14.00,2013-11-20 22:35:00,
2013-11-20 14:36:00,43.5,28.9,30.38,North,355,5.0,9.0,56,0.01,,OVC095,0.01,VWS V14.00,2013-11-20 22:36:00,
2013-11-20 14:37:00,43.5,28.9,30.38,NE,36,3.0,6.0,56,0.01,,OVC095,0.01,VWS V14.00,2013-11-20 22:37:00,
2013-11-20 14:38:00,43.5,28.9,30.38,North,355,7.0,7.0,56,0.01,,CLR,0.01,VWS V14.00,2013-11-20 22:38:00,
2013-11-20 14:39:00,43.5,28.9,30.38,NNW,336,8.0,9.0,56,0.01,,OVC095,0.01,VWS V14.00,2013-11-20 22:39:00,
2013-11-20 14:40:00,43.5,28.4,30.38,NNW,344,6.0,9.0,55,0.01,,OVC095,0.01,VWS V14.00,2013-11-20 22:40:00,
2013-11-20 14:41:00,43.6,28.5,30.38,NNE,15,11.0,11.0,55,0.01,,OVC095,0.01,VWS V14.00,2013-11-20 22:41:00,
2013-11-20 14:42:00,43.6,28.5,30.38,NE,53,2.0,11.0,55,0.01,,OVC095,0.01,VWS V14.00,2013-11-20 22:42:00,
2013-11-20 14:43:00,43.5,28.9,30.38,NNE,30,5.0,9.0,56,0.00,,CLR,0.01,VWS V14.00,2013-11-20 22:43:00,
2013-11-20 14:44:00,43.5,28.9,30.38,NNE,19,8.0,9.0,56,0.00,,OVC095,0.01,VWS V14.00,2013-11-20 22:44:00,
2013-11-20 14:45:00,43.4,28.8,30.38,NE,52,2.0,11.0,56,0.00,,OVC095,0.01,VWS V14.00,2013-11-20 22:45:00,
2013-11-20 14:46:00,43.4,28.8,30.38,NNE,30,6.0,7.0,56,0.00,,OVC095,0.01,VWS V14.00,2013-11-20 22:46:00,
2013-11-20 14:47:00,43.4,28.8,30.38,ENE,70,2.0,7.0,56,0.00,,OVC095,0.01,VWS V14.00,2013-11-20 22:47:00,
2013-11-20 14:48:00,43.4,28.3,30.38,East,79,3.0,4.0,55,0.00,,CLR,0.01,VWS V14.00,2013-11-20 22:48:00,
2013-11-20 14:49:00,43.4,28.3,30.38,East,81,5.0,5.0,55,0.00,,OVC095,0.01,VWS V14.00,2013-11-20 22:49:00,
2013-11-20 14:50:00,43.4,28.3,30.38,NE,55,8.0,10.0,55,0.00,,OVC095,0.01,VWS V14.00,2013-11-20 22:50:00,
2013-11-20 14:51:00,43.3,28.2,30.38,NE,39,5.0,8.0,55,0.00,,OVC095,0.01,VWS V14.00,2013-11-20 22:51:00,
2013-11-20 14:52:00,43.3,28.2,30.38,East,100,5.0,6.0,55,0.00,,OVC095,0.01,VWS V14.00,2013-11-20 22:52:00,
2013-11-20 14:53:00,43.2,28.1,30.38,NE,50,12.0,12.0,55,0.00,,CLR,0.01,VWS V14.00,2013-11-20 22:53:00,
2013-11-20 14:54:00,43.2,28.1,30.38,East,81,6.0,12.0,55,0.00,,OVC095,0.01,VWS V14.00,2013-11-20 22:54:00,
2013-11-20 14:55:00,43.1,28.0,30.38,ENE,71,4.0,12.0,55,0.00,,OVC095,0.01,VWS V14.00,2013-11-20 22:55:00,
2013-11-20 14:56:00,43.0,27.5,30.38,NNE,20,8.0,9.0,54,0.00,,OVC095,0.01,VWS V14.00,2013-11-20 22:56:00,
2013-11-20 14:57:00,42.9,27.4,30.38,NE,45,7.0,9.0,54,0.00,,OVC095,0.01,VWS V14.00,2013-11-20 22:57:00,
2013-11-20 14:58:00,42.8,27.8,30.38,NE,42,6.0,9.0,55,0.00,,CLR,0.01,VWS V14.00,2013-11-20 22:58:00,
2013-11-20 14:59:00,42.8,27.8,30.38,ENE,58,4.0,9.0,55,0.00,,OVC095,0.01,VWS V14.00,2013-11-20 22:59:00,
2013-11-20 15:00:00,42.8,27.8,30.38,East,84,7.0,7.0,55,0.00,,OVC095,0.01,VWS V14.00,2013-11-20 23:00:00,
2013-11-20 15:01:00,42.8,27.8,30.38,East,82,5.0,11.0,55,0.00,,OVC095,0.01,VWS V14.00,2013-11-20 23:01:00,
2013-11-20 15:02:00,42.8,27.3,30.38,ENE,58,4.0,6.0,54,0.00,,OVC095,0.01,VWS V14.00,2013-11-20 23:02:00,
2013-11-20 15:03:00,42.8,27.3,30.38,East,86,5.0,5.0,54,0.00,,CLR,0.01,VWS V14.00,2013-11-20 23:03:00,
2013-11-20 15:04:00,42.8,27.8,30.38,East,94,6.0,7.0,55,0.00,,OVC095,0.01,VWS V14.00,2013-11-20 23:04:00,
2013-11-20 15:05:00,42.7,27.2,30.38,NNE,22,4.0,7.0,54,0.00,,OVC095,0.01,VWS V14.00,2013-11-20 23:05:00,
2013-11-20 15:06:00,42.7,27.2,30.38,East,80,5.0,7.0,54,0.00,,OVC095,0.01,VWS V14.00,2013-11-20 23:06:00,
2013-11-20 15:07:00,42.7,27.2,30.38,ENE,66,1.0,7.0,54,0.00,,OVC095,0.01,VWS V14.00,2013-11-20 23:07:00,
2013-11-20 15:08:00,42.9,27.4,30.38,NNE,18,4.0,5.0,54,0.00,,CLR,0.01,VWS V14.00,2013-11-20 23:08:00,
2013-11-20 15:09:00,42.9,27.9,30.38,ENE,59,3.0,5.0,55,0.00,,OVC095,0.01,VWS V14.00,2013-11-20 23:09:00,
2013-11-20 15:10:00,42.9,27.4,30.38,ENE,63,6.0,6.0,54,0.00,,OVC095,0.01,VWS V14.00,2013-11-20 23:10:00,
2013-11-20 15:11:00,42.9,27.9,30.38,NNE,26,4.0,7.0,55,0.00,,OVC095,0.01,VWS V14.00,2013-11-20 23:11:00,
2013-11-20 15:12:00,43.0,28.0,30.39,NNE,23,7.0,7.0,55,0.00,,OVC095,0.01,VWS V14.00,2013-11-20 23:12:00,
2013-11-20 15:13:00,42.9,27.4,30.39,ENE,69,3.0,8.0,54,0.00,,CLR,0.01,VWS V14.00,2013-11-20 23:13:00,
2013-11-20 15:14:00,42.8,27.3,30.39,NE,55,5.0,8.0,54,0.00,,OVC095,0.01,VWS V14.00,2013-11-20 23:14:00,
2013-11-20 15:15:00,42.7,27.2,30.39,North,355,8.0,11.0,54,0.00,,OVC095,0.01,VWS V14.00,2013-11-20 23:15:00,
2013-11-20 15:16:00,42.7,27.2,30.39,East,90,2.0,8.0,54,0.00,,OVC095,0.01,VWS V14.00,2013-11-20 23:16:00,
2013-11-20 15:17:00,42.7,27.7,30.39,NE,36,6.0,11.0,55,0.00,,OVC095,0.01,VWS V14.00,2013-11-20 23:17:00,
2013-11-20 15:18:00,42.6,27.1,30.39,East,79,7.0,7.0,54,0.00,,CLR,0.01,VWS V14.00,2013-11-20 23:18:00,
2013-11-20 15:19:00,42.6,27.1,30.39,ENE,57,6.0,7.0,54,0.00,,OVC095,0.01,VWS V14.00,2013-11-20 23:19:00,
2013-11-20 15:20:00,42.5,27.0,30.39,ENE,73,5.0,7.0,54,0.00,,OVC095,0.01,VWS V14.00,2013-11-20 23:20:00,
2013-11-20 15:21:00,42.5,27.0,30.39,ENE,64,1.0,5.0,54,0.00,,OVC095,0.01,VWS V14.00,2013-11-20 23:21:00,
2013-11-20 15:22:00,42.5,27.0,30.39,East,79,3.0,11.0,54,0.00,,OVC095,0.01,VWS V14.00,2013-11-20 23:22:00,
2013-11-20 15:23:00,42.5,26.6,30.39,ENE,70,7.0,10.0,53,0.00,,CLR,0.01,VWS V14.00,2013-11-20 23:23:00,
2013-11-20 15:25:00,42.4,26.5,30.39,ENE,63,2.0,5.0,53,0.00,,OVC095,0.01,VWS V14.00,2013-11-20 23:25:00,
2013-11-20 15:26:00,42.4,27.0,30.39,NE,44,5.0,6.0,54,0.00,,OVC095,0.01,VWS V14.00,2013-11-20 23:26:00,
2013-11-20 15:27:00,42.5,27.0,30.39,ENE,68,1.0,5.0,54,0.00,,OVC095,0.01,VWS V14.00,2013-11-20 23:27:00,
2013-11-20 15:28:00,42.6,27.1,30.39,ENE,65,3.0,7.0,54,0.00,,CLR,0.01,VWS V14.00,2013-11-20 23:28:00,
2013-11-20 15:29:00,42.6,27.1,30.39,NNE,20,5.0,7.0,54,0.00,,OVC095,0.01,VWS V14.00,2013-11-20 23:29:00,
2013-11-20 15:30:00,42.5,27.0,30.39,NNE,13,9.0,12.0,54,0.00,,OVC095,0.01,VWS V14.00,2013-11-20 23:30:00,
2013-11-20 15:31:00,42.5,26.6,30.39,ENE,70,3.0,11.0,53,0.00,,OVC095,0.01,VWS V14.00,2013-11-20 23:31:00,
2013-11-20 15:32:00,42.4,26.5,30.39,ENE,63,3.0,8.0,53,0.00,,OVC095,0.01,VWS V14.00,2013-11-20 23:32:00,
2013-11-20 15:33:00,42.3,26.4,30.39,ENE,76,4.0,4.0,53,0.00,,CLR,0.01,VWS V14.00,2013-11-20 23:33:00,
2013-11-20 15:34:00,42.3,26.9,30.39,ENE,62,5.0,6.0,54,0.00,,OVC095,0.01,VWS V14.00,2013-11-20 23:34:00,
2013-11-20 15:35:00,42.1,26.2,30.39,ENE,57,3.0,5.0,53,0.00,,OVC095,0.01,VWS V14.00,2013-11-20 23:35:00,
2013-11-20 15:36:00,42.2,26.8,30.39,ENE,74,3.0,5.0,54,0.00,,OVC095,0.01,VWS V14.00,2013-11-20 23:36:00,
2013-11-20 15:37:00,42.1,26.7,30.39,ENE,72,2.0,7.0,54,0.00,,OVC095,0.01,VWS V14.00,2013-11-20 23:37:00,
2013-11-20 15:38:00,42.1,27.1,30.40,NE,53,5.0,9.0,55,0.00,,CLR,0.01,VWS V14.00,2013-11-20 23:38:00,
2013-11-20 15:39:00,42.1,26.7,30.40,NNE,27,7.0,9.0,54,0.00,,OVC095,0.01,VWS V14.00,2013-11-20 23:39:00,
2013-11-20 15:40:00,42.0,26.6,30.40,NE,56,2.0,7.0,54,0.00,,OVC095,0.01,VWS V14.00,2013-11-20 23:40:00,
2013-11-20 15:41:00,42.0,26.6,30.40,ENE,60,1.0,6.0,54,0.00,,OVC095,0.01,VWS V14.00,2013-11-20 23:41:00,
2013-11-20 15:42:00,42.0,27.0,30.40,ENE,70,3.0,8.0,55,0.00,,OVC095,0.01,VWS V14.00,2013-11-20 23:42:00,
2013-11-20 15:43:00,41.9,26.5,30.40,NNE,31,2.0,6.0,54,0.00,,CLR,0.01,VWS V14.00,2013-11-20 23:43:00,
2013-11-20 15:44:00,41.8,26.4,30.40,East,82,2.0,7.0,54,0.00,,OVC095,0.01,VWS V14.00,2013-11-20 23:44:00,
2013-11-20 15:45:00,41.8,26.8,30.40,NNE,26,3.0,4.0,55,0.00,,OVC095,0.01,VWS V14.00,2013-11-20 23:45:00,
2013-11-20 15:46:00,41.8,26.8,30.40,ENE,73,2.0,5.0,55,0.00,,OVC095,0.01,VWS V14.00,2013-11-20 23:46:00,
2013-11-20 15:47:00,41.8,26.8,30.40,NNE,24,3.0,6.0,55,0.00,,OVC095,0.01,VWS V14.00,2013-11-20 23:47:00,
2013-11-20 15:48:00,41.8,26.8,30.40,East,82,5.0,8.0,55,0.00,,CLR,0.01,VWS V14.00,2013-11-20 23:48:00,
2013-11-20 15:49:00,41.8,26.8,30.40,ENE,61,7.0,8.0,55,0.00,,OVC095,0.01,VWS V14.00,2013-11-20 23:49:00,
2013-11-20 15:50:00,41.8,26.4,30.40,East,88,3.0,8.0,54,0.00,,OVC095,0.01,VWS V14.00,2013-11-20 23:50:00,
2013-11-20 15:51:00,41.8,26.8,30.40,East,84,3.0,8.0,55,0.00,,OVC095,0.01,VWS V14.00,2013-11-20 23:51:00,
2013-11-20 15:52:00,41.7,26.7,30.40,NE,36,3.0,6.0,55,0.00,,OVC095,0.01,VWS V14.00,2013-11-20 23:52:00,
2013-11-20 15:53:00,41.6,26.6,30.40,NE,53,7.0,8.0,55,0.00,,CLR,0.01,VWS V14.00,2013-11-20 23:53:00,
2013-11-20 15:54:00,41.6,26.6,30.40,ENE,57,3.0,8.0,55,0.00,,OVC095,0.01,VWS V14.00,2013-11-20 23:54:00,
2013-11-20 15:55:00,41.6,26.6,30.40,NE,49,6.0,7.0,55,0.00,,OVC095,0.01,VWS V14.00,2013-11-20 23:55:00,
2013-11-20 15:56:00,41.6,26.6,30.41,East,90,4.0,6.0,55,0.00,,OVC095,0.01,VWS V14.00,2013-11-20 23:56:00,
2013-11-20 15:57:00,41.5,26.5,30.41,ENE,71,4.0,6.0,55,0.00,,OVC095,0.01,VWS V14.00,2013-11-20 23:57:00,
2013-11-20 15:58:00,41.4,26.5,30.40,ENE,66,3.0,5.0,55,0.00,,CLR,0.01,VWS V14.00,2013-11-20 23:58:00,
2013-11-20 15:59:00,41.4,26.5,30.40,NE,44,5.0,8.0,55,0.00,,OVC095,0.01,VWS V14.00,2013-11-20 23:59:00,
2013-11-20 16:00:00,41.4,26.5,30.40,NNE,33,8.0,8.0,55,0.00,,OVC095,0.01,VWS V14.00,2013-11-21 00:00:00,
2013-11-20 16:01:00,41.3,26.8,30.40,NE,53,4.0,9.0,56,0.00,,OVC095,0.01,VWS V14.00,2013-11-21 00:01:00,
2013-11-20 16:02:00,41.3,26.8,30.40,East,86,3.0,4.0,56,0.00,,OVC095,0.01,VWS V14.00,2013-11-21 00:02:00,
2013-11-20 16:03:00,41.2,26.7,30.41,ENE,63,4.0,5.0,56,0.00,,CLR,0.01,VWS V14.00,2013-11-21 00:03:00,
2013-11-20 16:04:00,41.2,26.7,30.41,NNE,28,5.0,6.0,56,0.00,,OVC095,0.01,VWS V14.00,2013-11-21 00:04:00,
2013-11-20 16:05:00,41.1,26.6,30.41,NNE,26,6.0,6.0,56,0.00,,OVC095,0.01,VWS V14.00,2013-11-21 00:05:00,
2013-11-20 16:06:00,41.1,26.6,30.41,NNE,30,5.0,8.0,56,0.00,,OVC095,0.01,VWS V14.00,2013-11-21 00:06:00,
2013-11-20 16:07:00,41.0,27.0,30.41,East,79,4.0,6.0,57,0.00,,OVC095,0.01,VWS V14.00,2013-11-21 00:07:00,
2013-11-20 16:08:00,40.9,26.9,30.41,North,355,7.0,8.0,57,0.00,,CLR,0.01,VWS V14.00,2013-11-21 00:08:00,
2013-11-20 16:09:00,40.9,26.9,30.41,NE,45,3.0,8.0,57,0.00,,OVC095,0.01,VWS V14.00,2013-11-21 00:09:00,
2013-11-20 16:10:00,40.9,26.9,30.41,NNE,13,5.0,6.0,57,0.00,,OVC095,0.01,VWS V14.00,2013-11-21 00:10:00,
2013-11-20 16:11:00,40.9,26.9,30.41,ENE,57,5.0,9.0,57,0.00,,OVC095,0.01,VWS V14.00,2013-11-21 00:11:00,
2013-11-20 16:12:00,40.8,26.8,30.41,NNE,27,5.0,5.0,57,0.00,,CLR,0.01,VWS V14.00,2013-11-21 00:12:00,
2013-11-20 16:13:00,40.8,26.8,30.41,NE,34,3.0,6.0,57,0.00,,OVC095,0.01,VWS V14.00,2013-11-21 00:13:00,
2013-11-20 16:14:00,40.7,27.1,30.41,NNE,30,5.0,5.0,58,0.00,,OVC095,0.01,VWS V14.00,2013-11-21 00:14:00,
2013-11-20 16:15:00,40.7,27.1,30.41,NE,40,5.0,6.0,58,0.00,,OVC095,0.01,VWS V14.00,2013-11-21 00:15:00,
2013-11-20 16:16:00,40.6,27.0,30.41,NNE,26,4.0,6.0,58,0.00,,OVC095,0.01,VWS V14.00,2013-11-21 00:16:00,
2013-11-20 16:17:00,40.5,26.9,30.41,NNE,24,5.0,5.0,58,0.00,,CLR,0.01,VWS V14.00,2013-11-21 00:17:00,
2013-11-20 16:18:00,40.6,27.0,30.41,NNE,29,5.0,10.0,58,0.00,,OVC095,0.01,VWS V14.00,2013-11-21 00:18:00,
2013-11-20 16:19:00,40.5,26.9,30.41,NE,35,4.0,5.0,58,0.00,,OVC095,0.01,VWS V14.00,2013-11-21 00:19:00,
2013-11-20 16:21:00,40.5,26.9,30.41,NNE,18,6.0,7.0,58,0.00,,OVC095,0.01,VWS V14.00,2013-11-21 00:21:00,
2013-11-20 16:22:00,40.4,27.2,30.41,ESE,109,4.0,5.0,59,0.00,,CLR,0.01,VWS V14.00,2013-11-21 00:22:00,
2013-11-20 16:23:00,40.4,27.2,30.41,NNE,20,5.0,7.0,59,0.00,,OVC095,0.01,VWS V14.00,2013-11-21 00:23:00,
2013-11-20 16:25:00,40.4,27.6,30.41,NNE,17,8.0,8.0,60,0.00,,OVC095,0.01,VWS V14.00,2013-11-21 00:25:00,
2013-11-20 16:26:00,40.3,27.1,30.41,NNE,21,5.0,8.0,59,0.00,,OVC095,0.01,VWS V14.00,2013-11-21 00:26:00,
2013-11-20 16:27:00,40.2,27.4,30.41,NE,51,4.0,4.0,60,0.00,,CLR,0.01,VWS V14.00,2013-11-21 00:27:00,
2013-11-20 16:30:00,40.2,27.4,30.41,NE,34,3.0,6.0,60,0.00,,OVC095,0.01,VWS V14.00,2013-11-21 00:30:00,
2013-11-20 16:31:00,40.1,27.8,30.41,ENE,63,2.0,4.0,61,0.00,,OVC095,0.01,VWS V14.00,2013-11-21 00:31:00,
2013-11-20 16:32:00,40.0,27.6,30.41,NE,53,3.0,5.0,61,0.00,,CLR,0.01,VWS V14.00,2013-11-21 00:32:00,
2013-11-20 16:35:00,39.9,27.6,30.41,NE,44,4.0,6.0,61,0.00,,OVC095,0.01,VWS V14.00,2013-11-21 00:35:00,
2013-11-20 16:37:00,39.8,27.9,30.41,NNE,30,6.0,8.0,62,0.00,,CLR,0.01,VWS V14.00,2013-11-21 00:37:00,
2013-11-20 16:41:00,39.6,27.7,30.41,NNE,21,6.0,6.0,62,0.00,,OVC095,0.01,VWS V14.00,2013-11-21 00:41:00,
2013-11-20 16:42:00,39.5,28.0,30.41,NE,37,7.0,7.0,63,0.00,,CLR,0.01,VWS V14.00,2013-11-21 00:42:00,
2013-11-20 16:44:00,39.5,27.6,30.41,NNE,29,5.0,7.0,62,0.00,,OVC095,0.01,VWS V14.00,2013-11-21 00:44:00,
2013-11-20 16:47:00,39.2,27.7,30.41,ENE,61,3.0,5.0,63,0.00,,CLR,0.01,VWS V14.00,2013-11-21 00:47:00,
2013-11-20 16:49:00,39.2,27.7,30.41,NNE,27,5.0,6.0,63,0.00,,OVC095,0.01,VWS V14.00,2013-11-21 00:49:00,
2013-11-20 16:50:00,39.2,27.7,30.41,NNE,28,6.0,7.0,63,0.00,,OVC095,0.01,VWS V14.00,2013-11-21 00:50:00,
2013-11-20 16:51:00,39.1,27.6,30.41,NNE,29,4.0,7.0,63,0.00,,OVC095,0.01,VWS V14.00,2013-11-21 00:51:00,
2013-11-20 16:52:00,39.1,28.0,30.41,NNE,26,3.0,4.0,64,0.00,,CLR,0.01,VWS V14.00,2013-11-21 00:52:00,
2013-11-20 16:53:00,39.1,28.0,30.41,ENE,60,4.0,4.0,64,0.00,,OVC095,0.01,VWS V14.00,2013-11-21 00:53:00,
2013-11-20 16:54:00,39.0,27.9,30.41,NE,40,5.0,5.0,64,0.00,,OVC095,0.01,VWS V14.00,2013-11-21 00:54:00,
2013-11-20 16:55:00,39.0,27.9,30.41,ENE,70,0.0,7.0,64,0.00,,OVC095,0.01,VWS V14.00,2013-11-21 00:55:00,
2013-11-20 16:56:00,39.0,27.9,30.41,NNE,27,7.0,7.0,64,0.00,,OVC095,0.01,VWS V14.00,2013-11-21 00:56:00,
2013-11-20 16:57:00,38.9,27.8,30.41,NNE,27,5.0,5.0,64,0.00,,CLR,0.01,VWS V14.00,2013-11-21 00:57:00,
2013-11-20 16:58:00,38.9,27.8,30.41,NE,44,2.0,5.0,64,0.00,,OVC095,0.01,VWS V14.00,2013-11-21 00:58:00,
2013-11-20 16:59:00,38.9,27.8,30.41,NNE,33,4.0,6.0,64,0.00,,OVC095,0.01,VWS V14.00,2013-11-21 00:59:00,
2013-11-20 17:00:00,38.9,27.8,30.42,NE,34,3.0,5.0,64,0.00,,OVC095,0.01,VWS V14.00,2013-11-21 01:00:00,
2013-11-20 17:01:00,38.8,28.1,30.41,NE,44,4.0,5.0,65,0.00,,OVC095,0.01,VWS V14.00,2013-11-21 01:01:00,
2013-11-20 17:02:00,38.7,28.0,30.42,NE,40,3.0,4.0,65,0.00,,CLR,0.01,VWS V14.00,2013-11-21 01:02:00,
2013-11-20 17:03:00,38.7,28.0,30.41,NNE,16,4.0,4.0,65,0.00,,OVC095,0.01,VWS V14.00,2013-11-21 01:03:00,
2013-11-20 17:04:00,38.7,28.0,30.42,NE,44,3.0,4.0,65,0.00,,OVC095,0.01,VWS V14.00,2013-11-21 01:04:00,
2013-11-20 17:05:00,38.6,27.9,30.42,NE,44,1.0,4.0,65,0.00,,OVC095,0.01,VWS V14.00,2013-11-21 01:05:00,
2013-11-20 17:06:00,38.6,27.9,30.42,NE,51,1.0,3.0,65,0.00,,OVC095,0.01,VWS V14.00,2013-11-21 01:06:00,
2013-11-20 17:07:00,38.5,28.1,30.42,NE,51,2.0,2.0,66,0.00,,CLR,0.01,VWS V14.00,2013-11-21 01:07:00,
2013-11-20 17:08:00,38.6,28.2,30.42,NE,51,1.0,3.0,66,0.00,,OVC095,0.01,VWS V14.00,2013-11-21 01:08:00,
2013-11-20 17:09:00,38.5,28.1,30.42,East,89,2.0,2.0,66,0.00,,OVC095,0.01,VWS V14.00,2013-11-21 01:09:00,
2013-11-20 17:10:00,38.4,28.0,30.42,East,82,2.0,2.0,66,0.00,,OVC095,0.01,VWS V14.00,2013-11-21 01:10:00,
2013-11-20 17:11:00,38.3,28.3,30.42,East,82,0.0,2.0,67,0.00,,OVC095,0.01,VWS V14.00,2013-11-21 01:11:00,
2013-11-20 17:12:00,38.2,28.6,30.42,East,82,1.0,2.0,68,0.00,,CLR,0.01,VWS V14.00,2013-11-21 01:12:00,
2013-11-20 17:13:00,38.2,28.6,30.42,East,82,2.0,3.0,68,0.00,,OVC095,0.01,VWS V14.00,2013-11-21 01:13:00,
2013-11-20 17:14:00,38.1,28.8,30.42,East,82,1.0,2.0,69,0.00,,OVC095,0.01,VWS V14.00,2013-11-21 01:14:00,
2013-11-20 17:15:00,37.9,28.6,30.42,East,82,1.0,2.0,69,0.00,,OVC095,0.01,VWS V14.00,2013-11-21 01:15:00,
2013-11-20 17:16:00,37.8,28.9,30.42,East,82,2.0,2.0,70,0.00,,OVC095,0.01,VWS V14.00,2013-11-21 01:16:00,
2013-11-20 17:17:00,37.5,28.6,30.42,East,82,1.0,1.0,70,0.00,,CLR,0.01,VWS V14.00,2013-11-21 01:17:00,
2013-11-20 17:18:00,37.5,28.6,30.42,East,82,1.0,2.0,70,0.00,,OVC095,0.01,VWS V14.00,2013-11-21 01:18:00,
2013-11-20 17:19:00,37.4,28.9,30.42,East,82,0.0,1.0,71,0.00,,OVC095,0.01,VWS V14.00,2013-11-21 01:19:00,
2013-11-20 17:20:00,37.3,28.8,30.42,East,82,1.0,2.0,71,0.00,,OVC095,0.01,VWS V14.00,2013-11-21 01:20:00,
2013-11-20 17:21:00,37.2,28.7,30.42,East,82,0.0,3.0,71,0.00,,OVC095,0.01,VWS V14.00,2013-11-21 01:21:00,
2013-11-20 17:22:00,37.1,28.6,30.42,East,82,1.0,1.0,71,0.00,,CLR,0.01,VWS V14.00,2013-11-21 01:22:00,
2013-11-20 17:23:00,37.1,28.6,30.42,East,82,1.0,3.0,71,0.00,,OVC095,0.01,VWS V14.00,2013-11-21 01:23:00,
2013-11-20 17:24:00,37.0,28.5,30.42,East,82,0.0,1.0,71,0.00,,OVC095,0.01,VWS V14.00,2013-11-21 01:24:00,
2013-11-20 17:25:00,37.0,28.8,30.42,East,81,1.0,2.0,72,0.00,,OVC095,0.01,VWS V14.00,2013-11-21 01:25:00,
2013-11-20 17:26:00,36.9,28.7,30.42,East,82,0.0,1.0,72,0.00,,OVC095,0.01,VWS V14.00,2013-11-21 01:26:00,
2013-11-20 17:27:00,36.8,28.6,30.42,East,82,1.0,1.0,72,0.00,,CLR,0.01,VWS V14.00,2013-11-21 01:27:00,
2013-11-20 17:28:00,36.8,28.6,30.42,East,82,0.0,2.0,72,0.00,,OVC095,0.01,VWS V14.00,2013-11-21 01:28:00,
2013-11-20 17:29:00,36.7,28.9,30.43,East,82,0.0,1.0,73,0.00,,OVC095,0.01,VWS V14.00,2013-11-21 01:29:00,
2013-11-20 17:30:00,36.6,28.8,30.43,East,82,0.0,2.0,73,0.00,,OVC095,0.01,VWS V14.00,2013-11-21 01:30:00,
2013-11-20 17:31:00,36.6,28.8,30.43,East,82,0.0,1.0,73,0.00,,OVC095,0.01,VWS V14.00,2013-11-21 01:31:00,
2013-11-20 17:32:00,36.3,28.5,30.43,East,82,0.0,0.0,73,0.00,,CLR,0.01,VWS V14.00,2013-11-21 01:32:00,
2013-11-20 17:33:00,36.3,28.5,30.43,East,82,0.0,0.0,73,0.00,,OVC095,0.01,VWS V14.00,2013-11-21 01:33:00,
2013-11-20 17:34:00,36.2,28.7,30.43,East,82,1.0,3.0,74,0.00,,OVC095,0.01,VWS V14.00,2013-11-21 01:34:00,
2013-11-20 17:35:00,36.1,28.6,30.43,East,82,0.0,1.0,74,0.00,,OVC095,0.01,VWS V14.00,2013-11-21 01:35:00,
2013-11-20 17:36:00,36.0,28.9,30.43,East,82,0.0,0.0,75,0.00,,OVC095,0.01,VWS V14.00,2013-11-21 01:36:00,
2013-11-20 17:37:00,35.8,28.7,30.43,East,82,0.0,1.0,75,0.00,,CLR,0.01,VWS V14.00,2013-11-21 01:37:00,
2013-11-20 17:38:00,35.8,28.7,30.43,East,82,1.0,1.0,75,0.00,,OVC095,0.01,VWS V14.00,2013-11-21 01:38:00,
2013-11-20 17:39:00,35.8,28.7,30.43,East,82,0.0,2.0,75,0.00,,OVC095,0.01,VWS V14.00,2013-11-21 01:39:00,
2013-11-20 17:40:00,35.7,28.6,30.43,NNE,32,3.0,3.0,75,0.00,,OVC095,0.01,VWS V14.00,2013-11-21 01:40:00,
2013-11-20 17:41:00,35.7,28.6,30.43,NNE,17,2.0,6.0,75,0.00,,OVC095,0.01,VWS V14.00,2013-11-21 01:41:00,
2013-11-20 17:42:00,35.8,28.7,30.43,NE,48,5.0,6.0,75,0.00,,CLR,0.01,VWS V14.00,2013-11-21 01:42:00,
2013-11-20 17:43:00,35.7,28.6,30.43,NNE,24,5.0,6.0,75,0.00,,OVC095,0.01,VWS V14.00,2013-11-21 01:43:00,
2013-11-20 17:44:00,35.9,28.4,30.43,NE,39,3.0,6.0,74,0.00,,OVC095,0.01,VWS V14.00,2013-11-21 01:44:00,
2013-11-20 17:45:00,35.9,28.4,30.43,ENE,74,2.0,3.0,74,0.00,,OVC095,0.01,VWS V14.00,2013-11-21 01:45:00,
2013-11-20 17:46:00,36.0,28.5,30.43,NE,42,3.0,7.0,74,0.00,,OVC095,0.01,VWS V14.00,2013-11-21 01:46:00,
2013-11-20 17:47:00,36.1,28.6,30.43,NNE,29,4.0,4.0,74,0.00,,CLR,0.01,VWS V14.00,2013-11-21 01:47:00,
2013-11-20 17:48:00,36.1,28.6,30.43,NE,43,4.0,4.0,74,0.00,,OVC095,0.01,VWS V14.00,2013-11-21 01:48:00,
2013-11-20 17:49:00,36.2,28.4,30.43,NE,34,4.0,5.0,73,0.00,,OVC095,0.01,VWS V14.00,2013-11-21 01:49:00,
2013-11-20 17:50:00,36.2,28.4,30.43,NNE,28,4.0,4.0,73,0.00,,OVC095,0.01,VWS V14.00,2013-11-21 01:50:00,
2013-11-20 17:51:00,36.3,28.5,30.43,NE,46,3.0,6.0,73,0.00,,OVC095,0.01,VWS V14.00,2013-11-21 01:51:00,
2013-11-20 17:52:00,36.6,28.8,30.43,NNE,32,4.0,4.0,73,0.00,,CLR,0.01,VWS V14.00,2013-11-21 01:52:00,
2013-11-20 17:53:00,36.6,28.8,30.43,NNE,32,4.0,7.0,73,0.00,,OVC095,0.01,VWS V14.00,2013-11-21 01:53:00,
2013-11-20 17:54:00,36.6,28.4,30.44,ENE,64,2.0,5.0,72,0.00,,OVC095,0.01,VWS V14.00,2013-11-21 01:54:00,
2013-11-20 17:55:00,36.7,28.5,30.44,NE,52,2.0,3.0,72,0.00,,OVC095,0.01,VWS V14.00,2013-11-21 01:55:00,
2013-11-20 17:56:00,36.8,28.6,30.44,East,92,4.0,5.0,72,0.00,,OVC095,0.01,VWS V14.00,2013-11-21 01:56:00,
2013-11-20 17:57:00,37.0,28.5,30.43,ENE,76,3.0,5.0,71,0.00,,CLR,0.01,VWS V14.00,2013-11-21 01:57:00,
2013-11-20 17:58:00,37.0,28.8,30.44,NE,55,5.0,7.0,72,0.00,,OVC095,0.01,VWS V14.00,2013-11-21 01:58:00,
2013-11-20 17:59:00,37.0,28.5,30.44,NNE,25,3.0,5.0,71,0.00,,OVC095,0.01,VWS V14.00,2013-11-21 01:59:00,
2013-11-20 18:00:00,37.1,28.6,30.44,ENE,59,3.0,7.0,71,0.00,,OVC095,0.01,VWS V14.00,2013-11-21 02:00:00,
2013-11-20 18:01:00,37.2,28.7,30.44,NE,43,4.0,8.0,71,0.00,,OVC095,0.01,VWS V14.00,2013-11-21 02:01:00,
2013-11-20 18:02:00,37.4,28.9,30.44,ENE,62,3.0,7.0,71,0.00,,CLR,0.01,VWS V14.00,2013-11-21 02:02:00,
2013-11-20 18:03:00,37.4,28.9,30.44,ENE,62,3.0,7.0,71,0.00,,OVC095,0.01,VWS V14.00,2013-11-21 02:03:00,
2013-11-20 18:04:00,37.4,28.9,30.44,ENE,59,3.0,8.0,71,0.00,,OVC095,0.01,VWS V14.00,2013-11-21 02:04:00,
2013-11-20 18:05:00,37.4,28.9,30.44,NNE,28,2.0,6.0,71,0.00,,OVC095,0.01,VWS V14.00,2013-11-21 02:05:00,
2013-11-20 18:06:00,37.5,29.0,30.44,NE,49,4.0,4.0,71,0.00,,OVC095,0.01,VWS V14.00,2013-11-21 02:06:00,
2013-11-20 18:07:00,37.5,29.0,30.44,NNE,25,5.0,5.0,71,0.00,,CLR,0.01,VWS V14.00,2013-11-21 02:07:00,
2013-11-20 18:08:00,37.5,29.0,30.44,NNE,25,5.0,5.0,71,0.00,,OVC095,0.01,VWS V14.00,2013-11-21 02:08:00,
2013-11-20 18:09:00,37.5,29.0,30.44,NNE,15,5.0,6.0,71,0.00,,OVC095,0.01,VWS V14.00,2013-11-21 02:09:00,
2013-11-20 18:10:00,37.5,29.0,30.44,NE,35,3.0,5.0,71,0.00,,OVC095,0.01,VWS V14.00,2013-11-21 02:10:00,
2013-11-20 18:11:00,37.5,29.0,30.44,NNE,32,5.0,6.0,71,0.00,,OVC095,0.01,VWS V14.00,2013-11-21 02:11:00,
2013-11-20 18:12:00,37.5,29.0,30.44,NNE,33,7.0,8.0,71,0.00,,CLR,0.01,VWS V14.00,2013-11-21 02:12:00,
2013-11-20 18:13:00,37.5,29.0,30.44,NNE,33,7.0,8.0,71,0.00,,OVC095,0.01,VWS V14.00,2013-11-21 02:13:00,
2013-11-20 18:14:00,37.5,29.0,30.44,NNE,31,6.0,9.0,71,0.00,,OVC095,0.01,VWS V14.00,2013-11-21 02:14:00,
2013-11-20 18:15:00,37.5,29.0,30.44,NE,42,5.0,9.0,71,0.00,,OVC095,0.01,VWS V14.00,2013-11-21 02:15:00,
2013-11-20 18:16:00,37.5,29.0,30.44,NE,42,5.0,7.0,71,0.00,,OVC095,0.01,VWS V14.00,2013-11-21 02:16:00,
2013-11-20 18:17:00,37.5,29.0,30.44,ENE,63,3.0,5.0,71,0.00,,CLR,0.01,VWS V14.00,2013-11-21 02:17:00,
2013-11-20 18:18:00,37.5,29.0,30.44,ENE,63,3.0,5.0,71,0.00,,OVC095,0.01,VWS V14.00,2013-11-21 02:18:00,
2013-11-20 18:19:00,37.5,29.0,30.44,NE,52,5.0,6.0,71,0.00,,OVC095,0.01,VWS V14.00,2013-11-21 02:19:00,
2013-11-20 18:20:00,37.4,28.9,30.44,NNE,24,5.0,6.0,71,0.00,,OVC095,0.01,VWS V14.00,2013-11-21 02:20:00,
2013-11-20 18:21:00,37.4,28.9,30.44,ENE,59,2.0,5.0,71,0.00,,OVC095,0.01,VWS V14.00,2013-11-21 02:21:00,
2013-11-20 18:22:00,37.4,28.9,30.44,ENE,67,3.0,8.0,71,0.00,,CLR,0.01,VWS V14.00,2013-11-21 02:22:00,
2013-11-20 18:23:00,37.4,28.9,30.44,NE,42,3.0,8.0,71,0.00,,OVC095,0.01,VWS V14.00,2013-11-21 02:23:00,
2013-11-20 18:24:00,37.4,28.9,30.44,NNE,27,5.0,7.0,71,0.00,,OVC095,0.01,VWS V14.00,2013-11-21 02:24:00,
2013-11-20 18:25:00,37.4,28.9,30.44,ENE,63,4.0,7.0,71,0.00,,OVC095,0.01,VWS V14.00,2013-11-21 02:25:00,
2013-11-20 18:26:00,37.3,28.8,30.44,East,83,3.0,5.0,71,0.00,,OVC095,0.01,VWS V14.00,2013-11-21 02:26:00,
2013-11-20 18:27:00,37.3,29.1,30.44,ENE,58,3.0,5.0,72,0.00,,CLR,0.01,VWS V14.00,2013-11-21 02:27:00,
2013-11-20 18:28:00,37.3,29.1,30.44,ENE,58,2.0,5.0,72,0.00,,OVC095,0.01,VWS V14.00,2013-11-21 02:28:00,
2013-11-20 18:29:00,37.3,29.1,30.44,NNE,28,4.0,4.0,72,0.00,,OVC095,0.01,VWS V14.00,2013-11-21 02:29:00,
2013-11-20 18:30:00,37.2,29.0,30.44,East,84,4.0,6.0,72,0.00,,OVC095,0.01,VWS V14.00,2013-11-21 02:30:00,
2013-11-20 18:31:00,37.2,29.0,30.44,East,101,4.0,5.0,72,0.00,,OVC095,0.01,VWS V14.00,2013-11-21 02:31:00,
2013-11-20 18:32:00,37.1,28.9,30.45,NNE,30,3.0,5.0,72,0.00,,CLR,0.01,VWS V14.00,2013-11-21 02:32:00,
2013-11-20 18:33:00,37.1,28.9,30.44,NNE,31,2.0,5.0,72,0.00,,OVC095,0.01,VWS V14.00,2013-11-21 02:33:00,
2013-11-20 18:34:00,37.1,28.9,30.45,NE,51,4.0,5.0,72,0.00,,OVC095,0.01,VWS V14.00,2013-11-21 02:34:00,
2013-11-20 18:35:00,37.0,29.2,30.44,NE,42,4.0,6.0,73,0.00,,OVC095,0.01,VWS V14.00,2013-11-21 02:35:00,
2013-11-20 18:36:00,37.0,28.8,30.44,NNE,22,5.0,6.0,72,0.00,,OVC095,0.01,VWS V14.00,2013-11-21 02:36:00,
2013-11-20 18:37:00,36.9,29.1,30.45,NE,42,5.0,6.0,73,0.00,,CLR,0.01,VWS V14.00,2013-11-21 02:37:00,
2013-11-20 18:38:00,36.9,29.1,30.45,NNE,18,4.0,6.0,73,0.00,,OVC095,0.01,VWS V14.00,2013-11-21 02:38:00,
2013-11-20 18:39:00,36.9,29.1,30.45,NNE,16,3.0,5.0,73,0.00,,OVC095,0.01,VWS V14.00,2013-11-21 02:39:00,
2013-11-20 18:40:00,36.9,29.1,30.44,North,355,3.0,5.0,73,0.00,,OVC095,0.01,VWS V14.00,2013-11-21 02:40:00,
2013-11-20 18:41:00,36.9,29.1,30.45,NE,49,2.0,4.0,73,0.00,,OVC095,0.01,VWS V14.00,2013-11-21 02:41:00,
2013-11-20 18:42:00,36.8,29.0,30.45,NE,35,0.0,4.0,73,0.00,,CLR,0.01,VWS V14.00,2013-11-21 02:42:00,
2013-11-20 18:43:00,36.8,29.0,30.45,NE,35,1.0,4.0,73,0.00,,OVC095,0.01,VWS V14.00,2013-11-21 02:43:00,
2013-11-20 18:44:00,36.8,29.3,30.45,NE,36,5.0,5.0,74,0.00,,OVC095,0.01,VWS V14.00,2013-11-21 02:44:00,
2013-11-20 18:45:00,36.8,29.3,30.45,ENE,74,2.0,6.0,74,0.00,,OVC095,0.01,VWS V14.00,2013-11-21 02:45:00,
2013-11-20 18:46:00,36.7,29.2,30.45,East,85,0.0,4.0,74,0.00,,OVC095,0.01,VWS V14.00,2013-11-21 02:46:00,
2013-11-20 18:47:00,36.6,29.1,30.45,ENE,65,1.0,3.0,74,0.00,,CLR,0.01,VWS V14.00,2013-11-21 02:47:00,
2013-11-20 18:48:00,36.5,29.0,30.45,ENE,65,1.0,3.0,74,0.00,,OVC095,0.01,VWS V14.00,2013-11-21 02:48:00,
2013-11-20 18:49:00,36.5,29.0,30.45,ENE,64,3.0,3.0,74,0.00,,OVC095,0.01,VWS V14.00,2013-11-21 02:49:00,
2013-11-20 18:50:00,36.4,28.9,30.45,NE,55,3.0,4.0,74,0.00,,OVC095,0.01,VWS V14.00,2013-11-21 02:50:00,
2013-11-20 18:51:00,36.4,28.9,30.45,ENE,58,3.0,4.0,74,0.00,,OVC095,0.01,VWS V14.00,2013-11-21 02:51:00,
2013-11-20 18:52:00,36.3,29.1,30.45,NE,50,2.0,5.0,75,0.00,,CLR,0.01,VWS V14.00,2013-11-21 02:52:00,
2013-11-20 18:53:00,36.2,29.0,30.45,NE,50,1.0,5.0,75,0.00,,OVC095,0.01,VWS V14.00,2013-11-21 02:53:00,
2013-11-20 18:54:00,36.2,29.0,30.45,NE,50,1.0,2.0,75,0.00,,OVC095,0.01,VWS V14.00,2013-11-21 02:54:00,
2013-11-20 18:55:00,36.1,29.0,30.45,NE,34,2.0,5.0,75,0.00,,OVC095,0.01,VWS V14.00,2013-11-21 02:55:00,
2013-11-20 18:56:00,36.1,29.0,30.45,ENE,61,1.0,6.0,75,0.00,,OVC095,0.01,VWS V14.00,2013-11-21 02:56:00,
2013-11-20 18:57:00,36.0,28.9,30.45,ENE,69,0.0,3.0,75,0.00,,CLR,0.01,VWS V14.00,2013-11-21 02:57:00,
2013-11-20 18:58:00,36.0,28.9,30.45,ENE,69,1.0,3.0,75,0.00,,OVC095,0.01,VWS V14.00,2013-11-21 02:58:00,
2013-11-20 18:59:00,35.9,29.1,30.45,ENE,69,2.0,3.0,76,0.00,,OVC095,0.01,VWS V14.00,2013-11-21 02:59:00,
2013-11-20 19:00:00,35.8,29.0,30.45,ENE,69,2.0,3.0,76,0.00,,OVC095,0.01,VWS V14.00,2013-11-21 03:00:00,
2013-11-20 19:01:00,35.6,28.8,30.45,ENE,69,1.0,3.0,76,0.00,,OVC095,0.01,VWS V14.00,2013-11-21 03:01:00,
2013-11-20 19:02:00,35.4,28.9,30.45,ENE,76,2.0,5.0,77,0.00,,CLR,0.01,VWS V14.00,2013-11-21 03:02:00,
2013-11-20 19:03:00,35.4,28.9,30.45,ENE,76,3.0,5.0,77,0.00,,OVC095,0.01,VWS V14.00,2013-11-21 03:03:00,
2013-11-20 19:04:00,35.3,28.8,30.45,East,86,2.0,4.0,77,0.00,,OVC095,0.01,VWS V14.00,2013-11-21 03:04:00,
2013-11-20 19:05:00,35.2,28.7,30.45,East,86,3.0,4.0,77,0.00,,OVC095,0.01,VWS V14.00,2013-11-21 03:05:00,
2013-11-20 19:06:00,35.1,28.9,30.45,East,81,1.0,4.0,78,0.00,,OVC095,0.01,VWS V14.00,2013-11-21 03:06:00,
2013-11-20 19:07:00,35.0,28.9,30.45,ENE,59,4.0,4.0,78,0.00,,CLR,0.01,VWS V14.00,2013-11-21 03:07:00,
2013-11-20 19:08:00,34.9,28.8,30.45,NE,44,3.0,4.0,78,0.00,,OVC095,0.01,VWS V14.00,2013-11-21 03:08:00,
2013-11-20 19:09:00,34.9,28.8,30.45,ENE,67,2.0,3.0,78,0.00,,OVC095,0.01,VWS V14.00,2013-11-21 03:09:00,
2013-11-20 19:10:00,34.9,28.8,30.45,ENE,67,2.0,2.0,78,0.00,,OVC095,0.01,VWS V14.00,2013-11-21 03:10:00,
2013-11-20 19:11:00,34.9,28.8,30.45,ENE,67,2.0,2.0,78,0.00,,OVC095,0.01,VWS V14.00,2013-11-21 03:11:00,
2013-11-20 19:12:00,34.6,28.8,30.45,East,79,2.0,2.0,79,0.00,,CLR,0.01,VWS V14.00,2013-11-21 03:12:00,
2013-11-20 19:13:00,34.6,28.8,30.45,East,79,2.0,2.0,79,0.00,,OVC095,0.01,VWS V14.00,2013-11-21 03:13:00,
2013-11-20 19:14:00,34.4,28.6,30.45,East,81,2.0,3.0,79,0.00,,OVC095,0.01,VWS V14.00,2013-11-21 03:14:00,
2013-11-20 19:15:00,34.3,28.5,30.45,East,81,1.0,3.0,79,0.00,,OVC095,0.01,VWS V14.00,2013-11-21 03:15:00,
2013-11-20 19:16:00,34.2,28.7,30.45,East,81,3.0,3.0,80,0.00,,OVC095,0.01,VWS V14.00,2013-11-21 03:16:00,
2013-11-20 19:17:00,33.9,28.4,30.45,East,86,2.0,4.0,80,0.00,,CLR,0.01,VWS V14.00,2013-11-21 03:17:00,
2013-11-20 19:18:00,33.9,28.4,30.45,East,86,3.0,4.0,80,0.00,,OVC095,0.01,VWS V14.00,2013-11-21 03:18:00,
2013-11-20 19:19:00,33.7,28.2,30.45,East,89,2.0,3.0,80,0.00,,OVC095,0.01,VWS V14.00,2013-11-21 03:19:00,
2013-11-20 19:20:00,33.6,28.4,30.45,East,89,2.0,2.0,81,0.00,,OVC095,0.01,VWS V14.00,2013-11-21 03:20:00,
2013-11-20 19:21:00,33.4,28.2,30.45,East,89,1.0,2.0,81,0.00,,OVC095,0.01,VWS V14.00,2013-11-21 03:21:00,
2013-11-20 19:22:00,33.1,28.2,30.45,East,89,1.0,2.0,82,0.00,,CLR,0.01,VWS V14.00,2013-11-21 03:22:00,
2013-11-20 19:23:00,33.0,28.1,30.46,East,89,2.0,3.0,82,0.00,,OVC095,0.01,VWS V14.00,2013-11-21 03:23:00,
2013-11-20 19:24:00,32.9,28.0,30.46,East,89,3.0,4.0,82,0.00,,OVC095,0.01,VWS V14.00,2013-11-21 03:24:00,
2013-11-20 19:25:00,32.8,28.2,30.46,East,89,2.0,3.0,83,0.00,,OVC095,0.01,VWS V14.00,2013-11-21 03:25:00,
2013-11-20 19:26:00,32.6,28.3,30.46,East,89,2.0,3.0,84,0.00,,OVC095,0.01,VWS V14.00,2013-11-21 03:26:00,
2013-11-20 19:27:00,32.4,28.1,30.46,East,89,1.0,2.0,84,0.00,,CLR,0.01,VWS V14.00,2013-11-21 03:27:00,
2013-11-20 19:28:00,32.3,28.0,30.46,East,89,2.0,2.0,84,0.00,,OVC095,0.01,VWS V14.00,2013-11-21 03:28:00,
2013-11-20 19:29:00,32.1,28.1,30.46,East,89,2.0,2.0,85,0.00,,OVC095,0.01,VWS V14.00,2013-11-21 03:29:00,
2013-11-20 19:30:00,32.0,28.0,30.46,East,89,2.0,2.0,85,0.00,,OVC095,0.01,VWS V14.00,2013-11-21 03:30:00,
2013-11-20 19:31:00,32.0,28.3,30.46,East,89,0.0,2.0,86,0.00,,OVC095,0.01,VWS V14.00,2013-11-21 03:31:00,
2013-11-20 19:32:00,31.7,28.0,30.46,East,89,2.0,2.0,86,0.00,,CLR,0.01,VWS V14.00,2013-11-21 03:32:00,
2013-11-20 19:33:00,31.7,28.0,30.46,East,89,2.0,2.0,86,0.00,,OVC095,0.01,VWS V14.00,2013-11-21 03:33:00,
2013-11-20 19:34:00,31.6,27.9,30.46,East,89,1.0,2.0,86,0.00,,OVC095,0.01,VWS V14.00,2013-11-21 03:34:00,
2013-11-20 19:35:00,31.5,28.1,30.46,East,89,1.0,2.0,87,0.00,,OVC095,0.01,VWS V14.00,2013-11-21 03:35:00,
2013-11-20 19:36:00,31.5,28.1,30.46,East,89,1.0,1.0,87,0.00,,OVC095,0.01,VWS V14.00,2013-11-21 03:36:00,
2013-11-20 19:37:00,31.3,27.9,30.46,East,89,1.0,3.0,87,0.00,,CLR,0.01,VWS V14.00,2013-11-21 03:37:00,
2013-11-20 19:38:00,31.3,27.9,30.46,East,89,2.0,3.0,87,0.00,,OVC095,0.01,VWS V14.00,2013-11-21 03:38:00,
2013-11-20 19:39:00,31.2,27.8,30.46,East,89,0.0,2.0,87,0.00,,OVC095,0.01,VWS V14.00,2013-11-21 03:39:00,
2013-11-20 19:40:00,31.1,27.7,30.46,East,89,0.0,1.0,87,0.00,,OVC095,0.01,VWS V14.00,2013-11-21 03:40:00,
2013-11-20 19:41:00,31.0,27.9,30.46,East,89,2.0,2.0,88,0.00,,OVC095,0.01,VWS V14.00,2013-11-21 03:41:00,
2013-11-20 19:42:00,30.9,27.8,30.46,East,89,2.0,3.0,88,0.00,,CLR,0.01,VWS V14.00,2013-11-21 03:42:00,
2013-11-20 19:43:00,30.8,27.7,30.46,East,89,2.0,3.0,88,0.00,,OVC095,0.01,VWS V14.00,2013-11-21 03:43:00,
2013-11-20 19:44:00,30.8,27.7,30.46,East,89,1.0,2.0,88,0.00,,OVC095,0.01,VWS V14.00,2013-11-21 03:44:00,
2013-11-20 19:45:00,30.8,28.0,30.46,East,89,2.0,3.0,89,0.00,,OVC095,0.01,VWS V14.00,2013-11-21 03:45:00,
2013-11-20 19:46:00,30.7,27.9,30.46,East,89,0.0,2.0,89,0.00,,OVC095,0.01,VWS V14.00,2013-11-21 03:46:00,
2013-11-20 19:47:00,30.6,27.8,30.47,East,89,1.0,2.0,89,0.00,,CLR,0.01,VWS V14.00,2013-11-21 03:47:00,
2013-11-20 19:48:00,30.6,27.8,30.47,East,89,0.0,2.0,89,0.00,,OVC095,0.01,VWS V14.00,2013-11-21 03:48:00,
2013-11-20 19:49:00,30.5,27.6,30.47,East,89,0.0,2.0,89,0.00,,OVC095,0.01,VWS V14.00,2013-11-21 03:49:00,
2013-11-20 19:50:00,30.5,27.6,30.47,East,89,1.0,2.0,89,0.00,,OVC095,0.01,VWS V14.00,2013-11-21 03:50:00,
2013-11-20 19:52:00,30.4,27.8,30.47,East,89,2.0,3.0,90,0.00,,CLR,0.01,VWS V14.00,2013-11-21 03:52:00,
2013-11-20 19:53:00,30.4,27.8,30.47,East,89,2.0,3.0,90,0.00,,OVC095,0.01,VWS V14.00,2013-11-21 03:53:00,
2013-11-20 19:54:00,30.4,27.8,30.47,East,89,1.0,2.0,90,0.00,,OVC095,0.01,VWS V14.00,2013-11-21 03:54:00,
2013-11-20 19:55:00,30.4,27.8,30.47,East,89,1.0,2.0,90,0.00,,OVC095,0.01,VWS V14.00,2013-11-21 03:55:00,
2013-11-20 19:56:00,30.3,27.7,30.47,East,89,1.0,2.0,90,0.00,,OVC095,0.01,VWS V14.00,2013-11-21 03:56:00,
2013-11-20 19:57:00,30.3,27.7,30.47,East,89,0.0,2.0,90,0.00,,CLR,0.01,VWS V14.00,2013-11-21 03:57:00,
2013-11-20 19:58:00,30.2,27.6,30.47,East,89,2.0,2.0,90,0.00,,OVC095,0.01,VWS V14.00,2013-11-21 03:58:00,
2013-11-20 19:59:00,30.3,27.7,30.47,East,89,2.0,3.0,90,0.00,,OVC095,0.01,VWS V14.00,2013-11-21 03:59:00,
2013-11-20 20:00:00,30.2,27.6,30.47,East,89,1.0,2.0,90,0.00,,OVC095,0.01,VWS V14.00,2013-11-21 04:00:00,
2013-11-20 20:01:00,30.2,27.6,30.47,East,89,1.0,2.0,90,0.00,,OVC095,0.01,VWS V14.00,2013-11-21 04:01:00,
2013-11-20 20:02:00,30.2,27.6,30.47,East,89,1.0,2.0,90,0.00,,CLR,0.01,VWS V14.00,2013-11-21 04:02:00,
2013-11-20 20:03:00,30.2,27.6,30.47,East,89,1.0,2.0,90,0.00,,OVC095,0.01,VWS V14.00,2013-11-21 04:03:00,
2013-11-20 20:04:00,30.2,27.6,30.47,East,89,2.0,2.0,90,0.00,,OVC095,0.01,VWS V14.00,2013-11-21 04:04:00,
2013-11-20 20:05:00,30.1,27.5,30.47,East,89,1.0,2.0,90,0.00,,OVC095,0.01,VWS V14.00,2013-11-21 04:05:00,
2013-11-20 20:06:00,30.1,27.5,30.47,East,89,1.0,3.0,90,0.00,,OVC095,0.01,VWS V14.00,2013-11-21 04:06:00,
2013-11-20 20:07:00,30.1,27.8,30.47,East,89,2.0,2.0,91,0.00,,CLR,0.01,VWS V14.00,2013-11-21 04:07:00,
2013-11-20 20:08:00,30.1,27.8,30.47,East,89,1.0,2.0,91,0.00,,OVC095,0.01,VWS V14.00,2013-11-21 04:08:00,
2013-11-20 20:09:00,30.0,27.7,30.47,East,89,1.0,2.0,91,0.00,,OVC095,0.01,VWS V14.00,2013-11-21 04:09:00,
2013-11-20 20:10:00,30.0,27.7,30.47,East,89,2.0,2.0,91,0.00,,OVC095,0.01,VWS V14.00,2013-11-21 04:10:00,
2013-11-20 20:11:00,30.0,27.7,30.47,East,89,1.0,2.0,91,0.00,,OVC095,0.01,VWS V14.00,2013-11-21 04:11:00,
2013-11-20 20:12:00,30.0,27.7,30.47,East,89,2.0,2.0,91,0.00,,CLR,0.01,VWS V14.00,2013-11-21 04:12:00,
2013-11-20 20:13:00,30.0,27.7,30.47,East,89,2.0,2.0,91,0.00,,OVC095,0.01,VWS V14.00,2013-11-21 04:13:00,
2013-11-20 20:14:00,30.0,27.7,30.47,East,89,2.0,2.0,91,0.00,,OVC095,0.01,VWS V14.00,2013-11-21 04:14:00,
2013-11-20 20:15:00,29.9,27.6,30.48,East,89,1.0,2.0,91,0.00,,OVC095,0.01,VWS V14.00,2013-11-21 04:15:00,
2013-11-20 20:16:00,29.9,27.6,30.48,East,89,2.0,2.0,91,0.00,,OVC095,0.01,VWS V14.00,2013-11-21 04:16:00,
2013-11-20 20:17:00,29.9,27.6,30.48,East,89,1.0,3.0,91,0.00,,CLR,0.01,VWS V14.00,2013-11-21 04:17:00,
2013-11-20 20:18:00,29.9,27.6,30.48,East,89,2.0,3.0,91,0.00,,OVC095,0.01,VWS V14.00,2013-11-21 04:18:00,
2013-11-20 20:19:00,29.9,27.6,30.48,East,89,1.0,4.0,91,0.00,,OVC095,0.01,VWS V14.00,2013-11-21 04:19:00,
2013-11-20 20:20:00,29.9,27.6,30.48,East,89,3.0,3.0,91,0.00,,OVC095,0.01,VWS V14.00,2013-11-21 04:20:00,
2013-11-20 20:21:00,29.8,27.5,30.48,East,89,1.0,3.0,91,0.00,,OVC095,0.01,VWS V14.00,2013-11-21 04:21:00,
2013-11-20 20:22:00,29.9,27.6,30.48,East,89,2.0,2.0,91,0.00,,CLR,0.01,VWS V14.00,2013-11-21 04:22:00,
2013-11-20 20:23:00,29.9,27.6,30.48,East,89,1.0,2.0,91,0.00,,OVC095,0.01,VWS V14.00,2013-11-21 04:23:00,
2013-11-20 20:24:00,29.9,27.9,30.48,East,89,2.0,2.0,92,0.00,,OVC095,0.01,VWS V14.00,2013-11-21 04:24:00,
2013-11-20 20:25:00,29.9,27.6,30.48,East,91,1.0,4.0,91,0.00,,OVC095,0.01,VWS V14.00,2013-11-21 04:25:00,
2013-11-20 20:26:00,29.9,27.6,30.48,East,91,2.0,2.0,91,0.00,,OVC095,0.01,VWS V14.00,2013-11-21 04:26:00,
2013-11-20 20:27:00,29.9,27.6,30.48,ESE,114,2.0,4.0,91,0.00,,CLR,0.01,VWS V14.00,2013-11-21 04:27:00,
2013-11-20 20:28:00,30.0,27.7,30.47,ESE,113,2.0,4.0,91,0.00,,OVC095,0.01,VWS V14.00,2013-11-21 04:28:00,
2013-11-20 20:29:00,30.0,28.0,30.48,ESE,113,1.0,2.0,92,0.00,,OVC095,0.01,VWS V14.00,2013-11-21 04:29:00,
2013-11-20 20:30:00,30.1,28.1,30.48,ESE,114,2.0,2.0,92,0.00,,OVC095,0.01,VWS V14.00,2013-11-21 04:30:00,
2013-11-20 20:31:00,30.1,27.8,30.48,ESE,113,1.0,2.0,91,0.00,,OVC095,0.01,VWS V14.00,2013-11-21 04:31:00,
2013-11-20 20:32:00,30.1,27.8,30.48,ESE,113,2.0,4.0,91,0.00,,CLR,0.01,VWS V14.00,2013-11-21 04:32:00,
2013-11-20 20:33:00,30.0,28.0,30.48,ESE,113,2.0,4.0,92,0.00,,OVC095,0.01,VWS V14.00,2013-11-21 04:33:00,
2013-11-20 20:34:00,30.1,28.1,30.48,ESE,113,4.0,4.0,92,0.00,,OVC095,0.01,VWS V14.00,2013-11-21 04:34:00,
2013-11-20 20:35:00,30.1,27.8,30.48,ESE,113,2.0,4.0,91,0.00,,OVC095,0.01,VWS V14.00,2013-11-21 04:35:00,
2013-11-20 20:36:00,30.1,27.8,30.48,ESE,113,2.0,4.0,91,0.00,,OVC095,0.01,VWS V14.00,2013-11-21 04:36:00,
2013-11-20 20:37:00,30.1,28.1,30.48,ESE,113,1.0,4.0,92,0.00,,CLR,0.01,VWS V14.00,2013-11-21 04:37:00,
2013-11-20 20:38:00,30.1,27.8,30.48,ESE,113,2.0,4.0,91,0.00,,OVC095,0.01,VWS V14.00,2013-11-21 04:38:00,
2013-11-20 20:39:00,30.0,27.7,30.48,ESE,113,2.0,4.0,91,0.00,,OVC095,0.01,VWS V14.00,2013-11-21 04:39:00,
2013-11-20 20:40:00,30.0,27.7,30.48,ESE,113,2.0,2.0,91,0.00,,OVC095,0.01,VWS V14.00,2013-11-21 04:40:00,
2013-11-20 20:41:00,30.0,27.7,30.48,ESE,113,1.0,2.0,91,0.00,,OVC095,0.01,VWS V14.00,2013-11-21 04:41:00,
2013-11-20 20:42:00,29.9,27.6,30.48,ESE,113,1.0,2.0,91,0.00,,CLR,0.01,VWS V14.00,2013-11-21 04:42:00,
2013-11-20 20:43:00,29.9,27.6,30.48,ESE,113,1.0,2.0,91,0.00,,OVC095,0.01,VWS V14.00,2013-11-21 04:43:00,
2013-11-20 20:44:00,29.9,27.6,30.48,ESE,113,1.0,2.0,91,0.00,,OVC095,0.01,VWS V14.00,2013-11-21 04:44:00,
2013-11-20 20:45:00,29.9,27.6,30.48,ESE,113,1.0,2.0,91,0.00,,OVC095,0.01,VWS V14.00,2013-11-21 04:45:00,
2013-11-20 20:46:00,30.0,27.7,30.48,ESE,113,1.0,4.0,91,0.00,,OVC095,0.01,VWS V14.00,2013-11-21 04:46:00,
2013-11-20 20:47:00,30.0,27.7,30.48,ESE,113,4.0,4.0,91,0.00,,CLR,0.01,VWS V14.00,2013-11-21 04:47:00,
2013-11-20 20:48:00,30.0,27.7,30.48,ESE,113,2.0,4.0,91,0.00,,OVC095,0.01,VWS V14.00,2013-11-21 04:48:00,
2013-11-20 20:49:00,30.0,27.7,30.48,ESE,113,0.0,4.0,91,0.00,,OVC095,0.01,VWS V14.00,2013-11-21 04:49:00,
2013-11-20 20:50:00,30.0,27.7,30.48,ESE,113,2.0,4.0,91,0.00,,OVC095,0.01,VWS V14.00,2013-11-21 04:50:00,
2013-11-20 20:51:00,30.0,27.7,30.48,ESE,113,1.0,4.0,91,0.00,,OVC095,0.01,VWS V14.00,2013-11-21 04:51:00,
2013-11-20 20:52:00,30.0,27.7,30.48,ESE,113,2.0,4.0,91,0.00,,CLR,0.01,VWS V14.00,2013-11-21 04:52:00,
2013-11-20 20:54:00,30.0,27.7,30.48,ESE,113,1.0,4.0,91,0.00,,OVC095,0.01,VWS V14.00,2013-11-21 04:54:00,
2013-11-20 20:55:00,30.0,27.7,30.48,ESE,113,2.0,2.0,91,0.00,,OVC095,0.01,VWS V14.00,2013-11-21 04:55:00,
2013-11-20 20:56:00,30.0,27.7,30.49,ESE,113,2.0,2.0,91,0.00,,OVC095,0.01,VWS V14.00,2013-11-21 04:56:00,
2013-11-20 20:57:00,30.0,27.7,30.49,ESE,113,2.0,2.0,91,0.00,,CLR,0.01,VWS V14.00,2013-11-21 04:57:00,
2013-11-20 20:58:00,30.0,27.7,30.49,ESE,113,1.0,2.0,91,0.00,,OVC095,0.01,VWS V14.00,2013-11-21 04:58:00,
2013-11-20 20:59:00,30.0,27.7,30.49,ESE,113,1.0,4.0,91,0.00,,OVC095,0.01,VWS V14.00,2013-11-21 04:59:00,
2013-11-20 21:00:00,30.1,27.8,30.49,ESE,113,2.0,2.0,91,0.00,,OVC095,0.01,VWS V14.00,2013-11-21 05:00:00,
2013-11-20 21:01:00,30.1,27.8,30.49,ESE,113,2.0,2.0,91,0.00,,CLR,0.01,VWS V14.00,2013-11-21 05:01:00,
2013-11-20 21:02:00,30.1,27.8,30.49,ESE,113,2.0,2.0,91,0.00,,OVC095,0.01,VWS V14.00,2013-11-21 05:02:00,
2013-11-20 21:03:00,30.1,27.8,30.49,ESE,113,2.0,4.0,91,0.00,,OVC095,0.01,VWS V14.00,2013-11-21 05:03:00,
2013-11-20 21:04:00,30.1,27.8,30.49,ESE,113,2.0,2.0,91,0.00,,OVC095,0.01,VWS V14.00,2013-11-21 05:04:00,
2013-11-20 21:05:00,30.1,27.8,30.49,ESE,113,0.0,2.0,91,0.00,,OVC095,0.01,VWS V14.00,2013-11-21 05:05:00,
2013-11-20 21:06:00,30.2,27.9,30.49,ESE,113,2.0,2.0,91,0.00,,CLR,0.01,VWS V14.00,2013-11-21 05:06:00,
2013-11-20 21:07:00,30.2,27.9,30.49,ESE,113,1.0,2.0,91,0.00,,OVC095,0.01,VWS V14.00,2013-11-21 05:07:00,
2013-11-20 21:08:00,30.2,27.9,30.49,ESE,113,1.0,2.0,91,0.00,,OVC095,0.01,VWS V14.00,2013-11-21 05:08:00,
2013-11-20 21:09:00,30.2,27.9,30.49,ESE,113,1.0,2.0,91,0.00,,OVC095,0.01,VWS V14.00,2013-11-21 05:09:00,
2013-11-20 21:10:00,30.2,27.9,30.50,ESE,113,1.0,4.0,91,0.00,,OVC095,0.01,VWS V14.00,2013-11-21 05:10:00,
2013-11-20 21:11:00,30.2,27.9,30.50,ESE,113,4.0,4.0,91,0.00,,CLR,0.01,VWS V14.00,2013-11-21 05:11:00,
2013-11-20 21:12:00,30.2,27.9,30.50,ESE,113,2.0,4.0,91,0.00,,OVC095,0.01,VWS V14.00,2013-11-21 05:12:00,
2013-11-20 21:13:00,30.2,27.6,30.50,ESE,113,1.0,2.0,90,0.00,,OVC095,0.01,VWS V14.00,2013-11-21 05:13:00,
2013-11-20 21:14:00,30.2,27.6,30.49,ENE,77,3.0,4.0,90,0.00,,OVC095,0.01,VWS V14.00,2013-11-21 05:14:00,
2013-11-20 21:15:00,30.2,27.6,30.50,ESE,103,1.0,5.0,90,0.00,,OVC095,0.01,VWS V14.00,2013-11-21 05:15:00,
2013-11-20 21:16:00,30.2,27.6,30.50,ESE,103,2.0,4.0,90,0.00,,CLR,0.01,VWS V14.00,2013-11-21 05:16:00,
2013-11-20 21:17:00,30.2,27.6,30.50,ESE,103,2.0,4.0,90,0.00,,OVC095,0.01,VWS V14.00,2013-11-21 05:17:00,
2013-11-20 21:18:00,30.2,27.6,30.50,ESE,103,2.0,4.0,90,0.00,,OVC095,0.01,VWS V14.00,2013-11-21 05:18:00,
2013-11-20 21:19:00,30.2,27.6,30.50,ESE,103,2.0,5.0,90,0.00,,OVC095,0.01,VWS V14.00,2013-11-21 05:19:00,
2013-11-20 21:20:00,30.2,27.6,30.50,ESE,103,2.0,4.0,90,0.00,,OVC095,0.01,VWS V14.00,2013-11-21 05:20:00,
2013-11-20 21:21:00,30.2,27.6,30.50,ESE,103,2.0,2.0,90,0.00,,CLR,0.01,VWS V14.00,2013-11-21 05:21:00,
2013-11-20 21:22:00,30.2,27.6,30.50,ESE,103,0.0,2.0,90,0.00,,OVC095,0.01,VWS V14.00,2013-11-21 05:22:00,
2013-11-20 21:23:00,30.2,27.6,30.50,ESE,103,2.0,4.0,90,0.00,,OVC095,0.01,VWS V14.00,2013-11-21 05:23:00,
2013-11-20 21:24:00,30.2,27.6,30.50,ESE,103,1.0,2.0,90,0.00,,OVC095,0.01,VWS V14.00,2013-11-21 05:24:00,
2013-11-20 21:25:00,30.2,27.6,30.50,ESE,103,1.0,4.0,90,0.00,,OVC095,0.01,VWS V14.00,2013-11-21 05:25:00,
2013-11-20 21:26:00,30.2,27.6,30.50,ESE,103,0.0,2.0,90,0.00,,CLR,0.01,VWS V14.00,2013-11-21 05:26:00,
2013-11-20 21:27:00,30.2,27.6,30.50,ESE,103,1.0,2.0,90,0.00,,OVC095,0.01,VWS V14.00,2013-11-21 05:27:00,
2013-11-20 21:28:00,30.2,27.6,30.50,ESE,103,0.0,1.0,90,0.00,,OVC095,0.01,VWS V14.00,2013-11-21 05:28:00,
2013-11-20 21:29:00,30.2,27.6,30.50,ESE,103,0.0,2.0,90,0.00,,OVC095,0.01,VWS V14.00,2013-11-21 05:29:00,
2013-11-20 21:30:00,30.3,27.7,30.50,ESE,103,0.0,0.0,90,0.00,,OVC095,0.01,VWS V14.00,2013-11-21 05:30:00,
2013-11-20 21:31:00,30.4,27.8,30.50,ESE,103,0.0,1.0,90,0.00,,CLR,0.01,VWS V14.00,2013-11-21 05:31:00,
2013-11-20 21:32:00,30.3,27.7,30.50,ESE,103,0.0,1.0,90,0.00,,OVC095,0.01,VWS V14.00,2013-11-21 05:32:00,
2013-11-20 21:33:00,30.4,27.8,30.50,ESE,103,1.0,2.0,90,0.00,,OVC095,0.01,VWS V14.00,2013-11-21 05:33:00,
2013-11-20 21:34:00,30.4,27.8,30.50,ESE,103,1.0,1.0,90,0.00,,OVC095,0.01,VWS V14.00,2013-11-21 05:34:00,
2013-11-20 21:35:00,30.3,27.5,30.50,ESE,103,0.0,2.0,89,0.00,,OVC095,0.01,VWS V14.00,2013-11-21 05:35:00,
2013-11-20 21:36:00,30.2,27.4,30.50,ESE,103,0.0,2.0,89,0.00,,CLR,0.01,VWS V14.00,2013-11-21 05:36:00,
2013-11-20 21:37:00,30.1,27.3,30.50,ESE,103,0.0,2.0,89,0.00,,OVC095,0.01,VWS V14.00,2013-11-21 05:37:00,
2013-11-20 21:38:00,30.0,27.2,30.50,ESE,103,0.0,2.0,89,0.00,,OVC095,0.01,VWS V14.00,2013-11-21 05:38:00,
2013-11-20 21:39:00,30.0,27.2,30.50,ESE,103,2.0,2.0,89,0.00,,OVC095,0.01,VWS V14.00,2013-11-21 05:39:00,
2013-11-20 21:40:00,30.0,27.2,30.50,ESE,103,0.0,2.0,89,0.00,,OVC095,0.01,VWS V14.00,2013-11-21 05:40:00,
2013-11-20 21:41:00,30.0,27.2,30.50,ESE,103,2.0,2.0,89,0.00,,CLR,0.01,VWS V14.00,2013-11-21 05:41:00,
2013-11-20 21:42:00,30.0,27.2,30.50,ESE,103,2.0,4.0,89,0.00,,OVC095,0.01,VWS V14.00,2013-11-21 05:42:00,
2013-11-20 21:43:00,29.9,27.1,30.51,ESE,103,2.0,4.0,89,0.00,,OVC095,0.01,VWS V14.00,2013-11-21 05:43:00,
2013-11-20 21:44:00,29.9,27.1,30.51,ESE,103,2.0,2.0,89,0.00,,OVC095,0.01,VWS V14.00,2013-11-21 05:44:00,
2013-11-20 21:45:00,29.8,27.0,30.51,ESE,103,1.0,2.0,89,0.00,,OVC095,0.01,VWS V14.00,2013-11-21 05:45:00,
2013-11-20 21:46:00,29.8,27.0,30.51,ESE,103,0.0,2.0,89,0.00,,CLR,0.01,VWS V14.00,2013-11-21 05:46:00,
2013-11-20 21:47:00,29.8,27.0,30.51,ESE,103,1.0,2.0,89,0.00,,OVC095,0.01,VWS V14.00,2013-11-21 05:47:00,
2013-11-20 21:48:00,29.8,27.0,30.51,ESE,103,0.0,1.0,89,0.00,,OVC095,0.01,VWS V14.00,2013-11-21 05:48:00,
2013-11-20 21:49:00,29.7,26.9,30.51,ESE,103,0.0,0.0,89,0.00,,OVC095,0.01,VWS V14.00,2013-11-21 05:49:00,
2013-11-20 21:51:00,29.7,26.9,30.51,ESE,103,0.0,0.0,89,0.00,,CLR,0.01,VWS V14.00,2013-11-21 05:51:00,
2013-11-20 21:54:00,29.7,27.1,30.51,ESE,103,1.0,1.0,90,0.00,,OVC095,0.01,VWS V14.00,2013-11-21 05:54:00,
2013-11-20 21:55:00,29.7,27.1,30.51,ESE,103,0.0,1.0,90,0.00,,OVC095,0.01,VWS V14.00,2013-11-21 05:55:00,
2013-11-20 21:56:00,29.7,27.1,30.51,ESE,103,0.0,2.0,90,0.00,,CLR,0.01,VWS V14.00,2013-11-21 05:56:00,
2013-11-20 21:57:00,29.7,27.1,30.51,ESE,103,0.0,1.0,90,0.00,,CLR,0.01,VWS V14.00,2013-11-21 05:57:00,
2013-11-20 21:58:00,29.6,27.0,30.52,ESE,103,0.0,1.0,90,0.00,,OVC095,0.01,VWS V14.00,2013-11-21 05:58:00,
2013-11-20 22:00:00,29.6,27.0,30.51,ESE,103,0.0,1.0,90,0.00,,OVC095,0.01,VWS V14.00,2013-11-21 06:00:00,
2013-11-20 22:01:00,29.5,26.9,30.51,ESE,103,1.0,1.0,90,0.00,,OVC095,0.01,VWS V14.00,2013-11-21 06:01:00,
2013-11-20 22:02:00,29.5,26.9,30.51,ESE,103,2.0,2.0,90,0.00,,CLR,0.01,VWS V14.00,2013-11-21 06:02:00,
2013-11-20 22:03:00,29.5,26.9,30.51,ESE,103,1.0,2.0,90,0.00,,OVC095,0.01,VWS V14.00,2013-11-21 06:03:00,
2013-11-20 22:04:00,29.4,26.8,30.51,ESE,103,0.0,1.0,90,0.00,,OVC095,0.01,VWS V14.00,2013-11-21 06:04:00,
2013-11-20 22:05:00,29.3,26.7,30.51,ESE,103,0.0,0.0,90,0.00,,OVC095,0.01,VWS V14.00,2013-11-21 06:05:00,
2013-11-20 22:06:00,29.3,26.7,30.51,ESE,103,0.0,1.0,90,0.00,,OVC095,0.01,VWS V14.00,2013-11-21 06:06:00,
2013-11-20 22:07:00,29.3,26.7,30.51,ESE,103,0.0,0.0,90,0.00,,CLR,0.01,VWS V14.00,2013-11-21 06:07:00,
2013-11-20 22:08:00,29.2,26.6,30.51,ESE,103,0.0,0.0,90,0.00,,OVC095,0.01,VWS V14.00,2013-11-21 06:08:00,
2013-11-20 22:09:00,29.2,26.6,30.51,ESE,103,0.0,0.0,90,0.00,,OVC095,0.01,VWS V14.00,2013-11-21 06:09:00,
2013-11-20 22:10:00,29.2,26.6,30.51,ESE,103,0.0,1.0,90,0.00,,OVC095,0.01,VWS V14.00,2013-11-21 06:10:00,
2013-11-20 22:11:00,29.2,26.6,30.51,ESE,103,1.0,1.0,90,0.00,,OVC095,0.01,VWS V14.00,2013-11-21 06:11:00,
2013-11-20 22:12:00,29.1,26.5,30.51,ESE,103,0.0,1.0,90,0.00,,CLR,0.01,VWS V14.00,2013-11-21 06:12:00,
2013-11-20 22:13:00,29.1,26.8,30.51,ESE,103,1.0,1.0,91,0.00,,OVC095,0.01,VWS V14.00,2013-11-21 06:13:00,
2013-11-20 22:14:00,29.0,26.7,30.51,ESE,103,0.0,1.0,91,0.00,,OVC095,0.01,VWS V14.00,2013-11-21 06:14:00,
2013-11-20 22:15:00,29.0,26.7,30.52,ESE,103,0.0,1.0,91,0.00,,OVC095,0.01,VWS V14.00,2013-11-21 06:15:00,
2013-11-20 22:16:00,29.0,26.7,30.51,ESE,103,2.0,2.0,91,0.00,,OVC095,0.01,VWS V14.00,2013-11-21 06:16:00,
2013-11-20 22:17:00,29.0,26.7,30.51,ESE,103,2.0,2.0,91,0.00,,CLR,0.01,VWS V14.00,2013-11-21 06:17:00,
2013-11-20 22:18:00,29.0,26.7,30.52,ESE,103,1.0,2.0,91,0.00,,OVC095,0.01,VWS V14.00,2013-11-21 06:18:00,
2013-11-20 22:19:00,29.0,26.7,30.52,ESE,103,0.0,1.0,91,0.00,,OVC095,0.01,VWS V14.00,2013-11-21 06:19:00,
2013-11-20 22:20:00,29.0,26.7,30.52,ESE,103,0.0,2.0,91,0.00,,OVC095,0.01,VWS V14.00,2013-11-21 06:20:00,
2013-11-20 22:21:00,28.9,26.6,30.52,ESE,103,1.0,1.0,91,0.00,,OVC095,0.01,VWS V14.00,2013-11-21 06:21:00,
2013-11-20 22:22:00,28.9,26.6,30.52,ESE,103,0.0,0.0,91,0.00,,CLR,0.01,VWS V14.00,2013-11-21 06:22:00,
2013-11-20 22:23:00,28.9,26.6,30.52,ESE,103,1.0,1.0,91,0.00,,OVC095,0.01,VWS V14.00,2013-11-21 06:23:00,
2013-11-20 22:24:00,28.9,26.9,30.52,ESE,103,1.0,2.0,92,0.00,,OVC095,0.01,VWS V14.00,2013-11-21 06:24:00,
2013-11-20 22:25:00,28.9,26.9,30.52,ESE,103,1.0,2.0,92,0.00,,OVC095,0.01,VWS V14.00,2013-11-21 06:25:00,
2013-11-20 22:26:00,28.9,26.9,30.52,ESE,103,1.0,1.0,92,0.00,,OVC095,0.01,VWS V14.00,2013-11-21 06:26:00,
2013-11-20 22:27:00,28.9,26.9,30.52,ESE,103,2.0,4.0,92,0.00,,CLR,0.01,VWS V14.00,2013-11-21 06:27:00,
2013-11-20 22:28:00,28.8,26.8,30.52,ESE,103,2.0,4.0,92,0.00,,OVC095,0.01,VWS V14.00,2013-11-21 06:28:00,
2013-11-20 22:29:00,28.8,26.8,30.52,ESE,103,0.0,4.0,92,0.00,,OVC095,0.01,VWS V14.00,2013-11-21 06:29:00,
2013-11-20 22:30:00,28.8,26.8,30.52,ESE,103,4.0,4.0,92,0.00,,OVC095,0.01,VWS V14.00,2013-11-21 06:30:00,
2013-11-20 22:31:00,28.8,26.5,30.52,ESE,103,2.0,5.0,91,0.00,,OVC095,0.01,VWS V14.00,2013-11-21 06:31:00,
2013-11-20 22:32:00,28.8,26.8,30.52,ESE,103,1.0,1.0,92,0.00,,CLR,0.01,VWS V14.00,2013-11-21 06:32:00,
2013-11-20 22:33:00,28.8,26.8,30.52,ESE,103,1.0,2.0,92,0.00,,OVC095,0.01,VWS V14.00,2013-11-21 06:33:00,
2013-11-20 22:34:00,28.7,26.7,30.52,ESE,103,1.0,2.0,92,0.00,,OVC095,0.01,VWS V14.00,2013-11-21 06:34:00,
2013-11-20 22:35:00,28.7,26.7,30.52,ESE,103,1.0,2.0,92,0.00,,OVC095,0.01,VWS V14.00,2013-11-21 06:35:00,
2013-11-20 22:36:00,28.7,26.7,30.52,ESE,103,1.0,2.0,92,0.00,,OVC095,0.01,VWS V14.00,2013-11-21 06:36:00,
2013-11-20 22:37:00,28.7,26.7,30.52,ESE,103,0.0,0.0,92,0.00,,CLR,0.01,VWS V14.00,2013-11-21 06:37:00,
2013-11-20 22:38:00,28.8,26.8,30.52,ESE,103,1.0,2.0,92,0.00,,OVC095,0.01,VWS V14.00,2013-11-21 06:38:00,
2013-11-20 22:39:00,28.8,26.8,30.52,ESE,103,2.0,4.0,92,0.00,,OVC095,0.01,VWS V14.00,2013-11-21 06:39:00,
2013-11-20 22:40:00,28.8,26.8,30.52,ESE,103,2.0,4.0,92,0.00,,OVC095,0.01,VWS V14.00,2013-11-21 06:40:00,
2013-11-20 22:41:00,28.8,26.8,30.52,East,96,2.0,2.0,92,0.00,,CLR,0.01,VWS V14.00,2013-11-21 06:41:00,
2013-11-20 22:42:00,28.8,26.8,30.52,East,96,1.0,4.0,92,0.00,,OVC095,0.01,VWS V14.00,2013-11-21 06:42:00,
2013-11-20 22:43:00,28.8,26.8,30.52,East,96,2.0,4.0,92,0.00,,OVC095,0.01,VWS V14.00,2013-11-21 06:43:00,
2013-11-20 22:44:00,28.8,26.8,30.52,East,96,2.0,4.0,92,0.00,,OVC095,0.01,VWS V14.00,2013-11-21 06:44:00,
2013-11-20 22:45:00,28.8,26.8,30.52,East,96,2.0,4.0,92,0.00,,OVC095,0.01,VWS V14.00,2013-11-21 06:45:00,
2013-11-20 22:46:00,28.8,26.8,30.53,East,96,2.0,2.0,92,0.00,,CLR,0.01,VWS V14.00,2013-11-21 06:46:00,
2013-11-20 22:47:00,28.8,26.8,30.53,East,96,1.0,4.0,92,0.00,,OVC095,0.01,VWS V14.00,2013-11-21 06:47:00,
2013-11-20 22:48:00,28.8,26.8,30.53,East,96,2.0,4.0,92,0.00,,OVC095,0.01,VWS V14.00,2013-11-21 06:48:00,
2013-11-20 22:49:00,28.8,26.8,30.53,East,96,1.0,4.0,92,0.00,,OVC095,0.01,VWS V14.00,2013-11-21 06:49:00,
2013-11-20 22:50:00,28.8,26.8,30.53,East,96,2.0,5.0,92,0.00,,OVC095,0.01,VWS V14.00,2013-11-21 06:50:00,
2013-11-20 22:51:00,28.9,26.9,30.53,East,96,4.0,4.0,92,0.00,,CLR,0.01,VWS V14.00,2013-11-21 06:51:00,
2013-11-20 22:52:00,28.9,26.9,30.53,East,96,4.0,4.0,92,0.00,,OVC095,0.01,VWS V14.00,2013-11-21 06:52:00,
2013-11-20 22:53:00,28.9,26.9,30.53,East,96,2.0,4.0,92,0.00,,OVC095,0.01,VWS V14.00,2013-11-21 06:53:00,
2013-11-20 22:54:00,28.8,26.8,30.53,East,96,2.0,4.0,92,0.00,,OVC095,0.01,VWS V14.00,2013-11-21 06:54:00,
2013-11-20 22:55:00,28.8,26.8,30.53,East,96,2.0,4.0,92,0.00,,OVC095,0.01,VWS V14.00,2013-11-21 06:55:00,
2013-11-20 22:56:00,28.8,26.8,30.53,East,96,4.0,4.0,92,0.00,,CLR,0.01,VWS V14.00,2013-11-21 06:56:00,
2013-11-20 22:57:00,28.8,26.8,30.53,East,96,4.0,4.0,92,0.00,,OVC095,0.01,VWS V14.00,2013-11-21 06:57:00,
2013-11-20 22:58:00,28.8,26.8,30.53,East,96,1.0,5.0,92,0.00,,OVC095,0.01,VWS V14.00,2013-11-21 06:58:00,
2013-11-20 22:59:00,28.8,26.8,30.53,East,96,2.0,2.0,92,0.00,,OVC095,0.01,VWS V14.00,2013-11-21 06:59:00,
2013-11-20 23:00:00,28.7,26.7,30.53,East,96,1.0,2.0,92,0.00,,OVC095,0.01,VWS V14.00,2013-11-21 07:00:00,
2013-11-20 23:01:00,28.7,26.7,30.53,East,96,2.0,2.0,92,0.00,,CLR,0.01,VWS V14.00,2013-11-21 07:01:00,
2013-11-20 23:02:00,28.7,26.7,30.53,East,96,2.0,2.0,92,0.00,,OVC095,0.01,VWS V14.00,2013-11-21 07:02:00,
2013-11-20 23:03:00,28.7,26.7,30.53,East,96,0.0,2.0,92,0.00,,OVC095,0.01,VWS V14.00,2013-11-21 07:03:00,
2013-11-20 23:04:00,28.7,26.7,30.53,East,96,2.0,2.0,92,0.00,,OVC095,0.01,VWS V14.00,2013-11-21 07:04:00,
2013-11-20 23:05:00,28.7,26.7,30.53,East,96,1.0,2.0,92,0.00,,OVC095,0.01,VWS V14.00,2013-11-21 07:05:00,
2013-11-20 23:06:00,28.6,26.6,30.54,East,96,1.0,1.0,92,0.00,,CLR,0.01,VWS V14.00,2013-11-21 07:06:00,
2013-11-20 23:07:00,28.6,26.6,30.54,East,96,1.0,1.0,92,0.00,,OVC095,0.01,VWS V14.00,2013-11-21 07:07:00,
2013-11-20 23:08:00,28.6,26.6,30.54,East,96,0.0,2.0,92,0.00,,OVC095,0.01,VWS V14.00,2013-11-21 07:08:00,
2013-11-20 23:09:00,28.5,26.5,30.54,East,96,1.0,4.0,92,0.00,,OVC095,0.01,VWS V14.00,2013-11-21 07:09:00,
2013-11-20 23:10:00,28.5,26.5,30.53,East,96,1.0,2.0,92,0.00,,OVC095,0.01,VWS V14.00,2013-11-21 07:10:00,
2013-11-20 23:11:00,28.4,26.4,30.54,East,96,1.0,1.0,92,0.00,,CLR,0.01,VWS V14.00,2013-11-21 07:11:00,
2013-11-20 23:12:00,28.4,26.4,30.54,East,96,1.0,4.0,92,0.00,,OVC095,0.01,VWS V14.00,2013-11-21 07:12:00,
2013-11-20 23:13:00,28.4,26.4,30.54,East,96,1.0,2.0,92,0.00,,OVC095,0.01,VWS V14.00,2013-11-21 07:13:00,
2013-11-20 23:14:00,28.4,26.4,30.54,East,96,0.0,1.0,92,0.00,,OVC095,0.01,VWS V14.00,2013-11-21 07:14:00,
2013-11-20 23:15:00,28.4,26.4,30.54,East,96,1.0,1.0,92,0.00,,OVC095,0.01,VWS V14.00,2013-11-21 07:15:00,
2013-11-20 23:16:00,28.4,26.4,30.54,East,96,1.0,1.0,92,0.00,,CLR,0.01,VWS V14.00,2013-11-21 07:16:00,
2013-11-20 23:17:00,28.4,26.4,30.54,East,96,1.0,2.0,92,0.00,,OVC095,0.01,VWS V14.00,2013-11-21 07:17:00,
2013-11-20 23:18:00,28.4,26.4,30.54,East,96,1.0,2.0,92,0.00,,OVC095,0.01,VWS V14.00,2013-11-21 07:18:00,
2013-11-20 23:19:00,28.4,26.4,30.54,East,96,0.0,1.0,92,0.00,,OVC095,0.01,VWS V14.00,2013-11-21 07:19:00,
2013-11-20 23:20:00,28.5,26.5,30.54,East,96,1.0,1.0,92,0.00,,OVC095,0.01,VWS V14.00,2013-11-21 07:20:00,
2013-11-20 23:21:00,28.4,26.4,30.54,East,96,1.0,1.0,92,0.00,,CLR,0.01,VWS V14.00,2013-11-21 07:21:00,
2013-11-20 23:22:00,28.4,26.4,30.54,East,96,1.0,2.0,92,0.00,,OVC095,0.01,VWS V14.00,2013-11-21 07:22:00,
2013-11-20 23:23:00,28.4,26.4,30.54,East,96,1.0,2.0,92,0.00,,OVC095,0.01,VWS V14.00,2013-11-21 07:23:00,
2013-11-20 23:24:00,28.5,26.5,30.54,East,96,1.0,1.0,92,0.00,,OVC095,0.01,VWS V14.00,2013-11-21 07:24:00,
2013-11-20 23:26:00,28.4,26.4,30.54,East,96,2.0,2.0,92,0.00,,CLR,0.01,VWS V14.00,2013-11-21 07:26:00,
2013-11-20 23:27:00,28.4,26.4,30.54,East,96,1.0,2.0,92,0.00,,OVC095,0.01,VWS V14.00,2013-11-21 07:27:00,
2013-11-20 23:28:00,28.4,26.4,30.54,East,96,1.0,2.0,92,0.00,,OVC095,0.01,VWS V14.00,2013-11-21 07:28:00,
2013-11-20 23:29:00,28.4,26.4,30.55,East,96,0.0,2.0,92,0.00,,OVC095,0.01,VWS V14.00,2013-11-21 07:29:00,
2013-11-20 23:30:00,28.4,26.4,30.55,East,96,1.0,2.0,92,0.00,,OVC095,0.01,VWS V14.00,2013-11-21 07:30:00,
2013-11-20 23:31:00,28.4,26.4,30.55,East,96,1.0,2.0,92,0.00,,CLR,0.01,VWS V14.00,2013-11-21 07:31:00,
2013-11-20 23:32:00,28.4,26.4,30.55,East,96,2.0,2.0,92,0.00,,OVC095,0.01,VWS V14.00,2013-11-21 07:32:00,
2013-11-20 23:33:00,28.4,26.4,30.55,East,96,0.0,2.0,92,0.00,,OVC095,0.01,VWS V14.00,2013-11-21 07:33:00,
2013-11-20 23:34:00,28.4,26.4,30.55,East,96,0.0,0.0,92,0.00,,OVC095,0.01,VWS V14.00,2013-11-21 07:34:00,
2013-11-20 23:35:00,28.5,26.5,30.55,East,96,0.0,2.0,92,0.00,,OVC095,0.01,VWS V14.00,2013-11-21 07:35:00,
2013-11-20 23:36:00,28.5,26.5,30.55,East,96,0.0,0.0,92,0.00,,CLR,0.01,VWS V14.00,2013-11-21 07:36:00,
2013-11-20 23:37:00,28.4,26.4,30.55,East,96,0.0,1.0,92,0.00,,OVC095,0.01,VWS V14.00,2013-11-21 07:37:00,
2013-11-20 23:38:00,28.4,26.4,30.55,East,96,0.0,0.0,92,0.00,,OVC095,0.01,VWS V14.00,2013-11-21 07:38:00,
2013-11-20 23:39:00,28.4,26.4,30.55,East,96,0.0,0.0,92,0.00,,OVC095,0.01,VWS V14.00,2013-11-21 07:39:00,
2013-11-20 23:40:00,28.4,26.4,30.55,East,96,0.0,0.0,92,0.00,,OVC095,0.01,VWS V14.00,2013-11-21 07:40:00,
2013-11-20 23:41:00,28.4,26.4,30.55,East,96,0.0,0.0,92,0.00,,CLR,0.01,VWS V14.00,2013-11-21 07:41:00,
2013-11-20 23:42:00,28.4,26.4,30.55,East,96,0.0,1.0,92,0.00,,OVC095,0.01,VWS V14.00,2013-11-21 07:42:00,
2013-11-20 23:43:00,28.4,26.4,30.55,East,96,0.0,1.0,92,0.00,,OVC095,0.01,VWS V14.00,2013-11-21 07:43:00,
2013-11-20 23:44:00,28.4,26.4,30.55,East,96,0.0,1.0,92,0.00,,OVC095,0.01,VWS V14.00,2013-11-21 07:44:00,
2013-11-20 23:45:00,28.3,26.3,30.55,East,96,0.0,1.0,92,0.00,,OVC095,0.01,VWS V14.00,2013-11-21 07:45:00,
2013-11-20 23:46:00,28.3,26.3,30.55,East,96,1.0,1.0,92,0.00,,CLR,0.01,VWS V14.00,2013-11-21 07:46:00,
2013-11-20 23:47:00,28.2,26.2,30.55,East,96,0.0,0.0,92,0.00,,OVC095,0.01,VWS V14.00,2013-11-21 07:47:00,
2013-11-20 23:48:00,28.2,26.2,30.55,East,96,1.0,1.0,92,0.00,,OVC095,0.01,VWS V14.00,2013-11-21 07:48:00,
2013-11-20 23:49:00,28.2,26.2,30.55,East,96,0.0,1.0,92,0.00,,OVC095,0.01,VWS V14.00,2013-11-21 07:49:00,
2013-11-20 23:50:00,28.1,26.1,30.55,East,96,1.0,1.0,92,0.00,,OVC095,0.01,VWS V14.00,2013-11-21 07:50:00,
2013-11-20 23:51:00,28.0,26.0,30.55,East,96,1.0,1.0,92,0.00,,CLR,0.01,VWS V14.00,2013-11-21 07:51:00,
2013-11-20 23:52:00,28.0,26.0,30.55,East,96,1.0,1.0,92,0.00,,OVC095,0.01,VWS V14.00,2013-11-21 07:52:00,
2013-11-20 23:53:00,28.0,26.0,30.55,East,96,0.0,1.0,92,0.00,,OVC095,0.01,VWS V14.00,2013-11-21 07:53:00,
2013-11-20 23:54:00,28.0,26.0,30.55,East,96,0.0,0.0,92,0.00,,OVC095,0.01,VWS V14.00,2013-11-21 07:54:00,
2013-11-20 23:55:00,28.0,26.0,30.55,East,96,1.0,1.0,92,0.00,,OVC095,0.01,VWS V14.00,2013-11-21 07:55:00,
2013-11-20 23:56:00,28.0,26.0,30.55,East,96,0.0,0.0,92,0.00,,CLR,0.01,VWS V14.00,2013-11-21 07:56:00,
2013-11-20 23:57:00,28.0,26.0,30.55,East,96,0.0,1.0,92,0.00,,OVC095,0.01,VWS V14.00,2013-11-21 07:57:00,
2013-11-20 23:58:00,28.1,26.1,30.55,East,96,0.0,0.0,92,0.00,,OVC095,0.01,VWS V14.00,2013-11-21 07:58:00,
2013-11-20 23:59:00,28.1,26.1,30.55,East,96,0.0,1.0,92,0.00,,OVC095,0.01,VWS V14.00,2013-11-21 07:59:00,